GFSGBSN_sfc_30mbdewp_009.txt.gz
Dewpoint
51 52 54 55 55 55 54 54 54 53 53 53 52 53 53 54 53 52 52 52 52 52 52 51 51 52 52 46 35 26 37 41 42 38 34 33 28 18 14 14 8 4 5 4 4 7 13
52 54 54 55 54 54 54 54 53 53 52 52 52 53 55 55 55 52 52 52 52 51 51 51 52 52 48 32 30 23 23 39 31 35 33 32 22 18 13 9 6 7 4 3 4 12 12
52 54 54 54 54 54 54 53 53 53 52 53 53 54 55 55 53 52 52 52 52 51 51 52 52 51 47 37 28 22 22 21 19 20 22 20 20 18 15 14 13 9 5 6 9 15 14
53 54 54 53 54 54 53 53 53 53 53 53 55 55 55 55 53 52 52 52 51 51 52 52 52 50 32 33 22 18 20 18 17 21 23 23 23 20 19 11 10 10 12 11 14 17 16
53 53 53 52 54 54 53 53 53 53 53 54 54 54 54 54 54 52 52 52 52 52 52 52 50 50 34 23 18 21 19 18 21 23 21 20 22 19 14 10 11 12 10 14 14 17 19
53 53 52 52 54 53 53 54 53 52 54 54 54 53 53 54 54 54 53 54 54 53 53 52 49 40 40 22 21 19 20 19 22 23 22 20 21 18 16 16 12 12 11 16 16 14 11
53 52 50 52 54 53 53 53 53 53 53 53 53 53 52 53 53 54 52 51 44 40 48 32 31 33 15 13 16 19 20 18 23 23 21 23 21 19 17 16 15 14 13 16 17 17 14
52 52 49 52 54 53 53 53 53 53 53 53 53 53 52 52 53 53 52 52 42 43 31 36 23 21 23 23 17 19 24 22 21 20 22 19 18 18 19 21 19 15 21 21 18 18 13
52 51 48 52 53 53 53 53 53 53 53 52 52 52 52 52 54 52 49 49 50 48 27 25 24 23 25 26 24 22 25 25 19 19 22 20 19 19 19 24 22 23 23 22 20 20 18
51 49 48 51 53 52 52 52 52 52 52 52 51 52 52 52 48 52 49 47 50 52 23 19 22 22 23 24 23 24 23 25 19 21 22 20 21 23 23 24 23 25 27 25 21 20 16
51 48 49 51 52 52 51 51 51 52 52 51 51 51 51 51 48 49 47 51 49 48 20 20 23 26 22 25 25 24 26 28 22 15 23 23 25 26 25 24 24 26 26 25 23 22 21
51 47 50 51 51 51 51 51 51 51 51 51 49 51 52 50 51 53 55 56 43 38 22 19 23 25 22 24 25 25 23 27 28 24 24 24 28 27 26 27 25 25 27 27 26 25 22
49 48 50 51 51 51 50 50 51 51 50 50 49 50 50 52 52 57 57 45 29 29 25 19 22 24 23 24 25 26 26 27 27 23 23 25 27 27 27 27 27 27 27 25 23 24 23
48 50 50 50 51 50 50 50 50 51 50 51 51 51 55 59 59 58 53 38 30 23 19 22 23 24 23 25 25 26 26 25 26 29 26 24 24 25 27 25 24 27 26 21 22 20 20
49 50 50 50 50 50 50 50 50 50 50 51 52 54 56 58 59 56 46 36 33 26 21 21 23 23 23 25 26 26 25 24 27 27 24 26 24 27 24 26 27 27 21 23 27 29 24
49 50 49 49 50 50 49 50 50 50 50 52 49 52 50 57 58 52 43 38 32 25 22 22 20 23 21 21 24 26 27 29 28 28 27 23 23 22 22 27 28 22 24 24 22 19 16
49 49 48 49 50 49 49 49 50 50 50 51 50 39 52 58 53 42 39 40 27 29 32 27 25 21 25 22 24 26 27 30 30 29 27 29 29 23 25 24 25 26 26 24 24 23 19
49 49 48 49 50 49 49 49 50 50 50 48 49 38 54 57 29 39 36 36 28 29 32 31 31 26 26 26 28 30 32 32 34 35 27 27 26 22 24 26 26 25 25 25 20 23 25
49 49 48 49 50 48 49 49 50 49 49 51 43 47 53 55 28 33 37 31 29 29 30 29 31 32 31 31 29 34 35 36 37 35 33 30 25 23 26 29 28 22 23 28 30 27 19
49 49 48 49 49 49 49 49 49 49 46 49 48 35 45 47 45 42 37 31 31 34 33 33 32 31 32 31 32 34 35 36 35 31 32 36 26 24 21 21 20 18 19 22 28 27 24
49 49 48 49 48 48 49 48 49 49 45 46 47 39 36 30 32 39 37 33 32 32 33 33 31 31 31 29 32 34 35 34 35 30 33 32 30 28 26 24 22 21 20 21 20 21 22
49 49 49 49 48 49 50 48 49 49 46 46 46 43 37 33 32 37 37 32 33 32 32 31 29 31 33 32 33 32 32 32 33 32 33 36 33 28 25 28 25 23 24 24 22 21 22
49 49 48 49 49 50 50 47 48 49 51 48 47 47 46 42 33 36 35 32 32 33 33 34 33 35 34 35 38 38 36 35 36 33 35 36 32 28 25 29 31 26 27 25 24 25 23
49 49 49 49 50 50 50 48 47 49 51 55 51 50 41 34 40 36 36 34 34 32 31 37 37 35 38 37 35 35 33 35 35 35 37 33 35 32 22 28 13 29 27 26 26 27 28
49 48 49 49 50 50 50 49 47 48 50 52 52 52 42 34 42 37 34 35 35 40 39 38 37 37 38 39 28 22 24 25 31 33 35 37 34 25 21 25 24 26 27 28 27 27 36
49 49 50 50 50 50 50 50 48 48 49 53 52 55 48 38 38 41 34 34 38 39 40 41 43 44 44 39 29 25 24 26 28 30 36 39 35 31 28 17 9 27 30 32 31 27 38
50 50 50 50 50 50 50 50 49 48 48 54 51 55 53 41 42 43 37 36 41 41 40 42 42 41 44 33 32 26 30 31 28 29 30 33 33 28 29 25 27 32 31 32 25 26 39
49 49 49 49 49 50 49 50 50 49 48 54 51 53 53 44 43 46 47 40 40 42 38 41 39 40 41 32 29 32 34 30 30 31 29 24 26 28 30 26 21 31 31 27 33 40 40
49 49 49 49 50 49 49 49 50 50 49 52 51 52 54 49 47 50 48 46 45 45 43 42 32 43 42 37 39 40 33 37 33 26 33 27 29 29 30 27 30 33 32 36 40 40 39

GFSGBSN_sfc_30mbdewp_015.txt.gz
Dewpoint
55 54 54 54 54 55 55 54 53 53 53 53 52 52 52 52 52 52 52 51 52 51 51 50 50 51 51 44 31 31 50 55 46 36 30 28 28 27 22 17 21 14 3 8 8 6 5
55 54 53 53 54 54 54 53 53 53 53 52 52 51 52 52 52 53 53 51 51 50 50 50 50 51 46 25 29 33 45 43 37 35 33 30 26 29 24 19 9 7 4 8 12 9 4
55 54 53 53 54 55 54 52 53 52 52 52 52 51 52 52 52 53 52 51 51 50 50 50 51 51 47 26 35 35 35 35 35 32 29 34 32 27 20 17 14 5 3 5 10 11 11
54 53 53 54 54 54 53 53 53 52 52 52 51 51 52 54 53 52 51 51 50 50 50 50 51 50 28 34 37 33 21 19 25 34 29 23 26 26 14 14 12 9 9 7 9 14 15
54 53 54 54 54 53 53 53 53 52 52 52 51 53 54 54 54 51 51 50 50 50 50 51 49 49 21 30 25 20 20 18 21 25 24 21 24 19 14 10 10 13 8 9 13 15 15
54 54 54 54 54 52 52 53 52 52 52 52 53 54 53 54 54 53 51 50 51 52 52 52 50 38 31 20 24 20 19 19 22 24 22 23 23 17 18 8 2 6 10 12 11 15 17
54 54 54 54 54 52 53 53 52 52 53 53 53 53 53 53 53 53 52 50 43 41 48 20 22 28 33 26 18 18 20 22 24 24 21 23 18 16 17 19 16 15 16 15 16 16 23
54 54 54 54 53 51 54 54 53 54 53 53 53 53 53 53 53 53 51 48 42 46 32 36 37 36 34 30 19 20 27 22 21 20 22 20 17 21 27 24 22 19 17 19 21 21 25
54 54 54 53 52 51 54 54 54 53 52 53 52 52 52 53 53 51 46 41 49 45 37 26 31 29 25 24 22 22 25 25 21 19 21 19 20 24 24 25 23 25 21 20 19 22 25
53 53 53 53 50 52 53 53 52 52 52 52 52 52 52 53 48 48 43 44 51 41 22 20 20 21 25 26 18 25 24 24 23 21 22 26 28 25 23 22 25 22 26 23 21 21 20
53 53 52 51 49 51 52 52 51 51 51 52 51 52 52 51 46 50 49 55 52 41 12 19 23 25 24 25 23 19 27 26 19 21 23 25 26 25 22 24 25 24 27 23 23 22 21
52 52 52 50 49 51 51 51 51 50 51 51 51 52 52 50 49 48 55 49 37 29 16 20 24 22 22 25 24 24 28 31 28 26 27 26 28 26 26 27 27 26 28 29 30 26 21
52 52 51 49 50 51 51 50 50 50 51 51 51 52 49 52 50 56 54 34 22 27 24 21 21 22 23 24 26 26 26 26 24 22 24 25 25 27 28 27 27 27 27 22 21 22 22
52 51 50 49 50 51 50 50 49 50 50 51 51 52 51 50 58 56 41 23 25 27 21 23 24 25 23 26 27 27 26 24 27 28 26 24 19 23 24 25 24 24 26 23 20 21 18
51 51 49 49 51 51 50 49 49 50 50 52 52 49 55 55 58 49 34 19 30 29 23 23 25 23 24 26 25 25 26 23 26 27 25 22 22 27 24 25 28 25 23 27 25 26 23
51 50 49 50 50 50 50 48 50 50 50 52 48 48 45 56 52 45 35 32 35 32 25 25 22 24 22 24 25 27 27 30 28 28 28 27 20 24 24 28 27 24 27 21 21 12 14
50 49 50 50 50 50 48 49 50 50 50 51 47 31 37 55 39 34 25 35 39 31 31 23 23 24 23 23 26 28 29 32 34 32 30 30 21 22 26 25 25 25 23 25 26 22 13
50 49 50 49 49 49 48 49 50 50 51 49 42 25 51 38 24 38 33 38 36 28 31 32 32 28 25 30 31 31 30 32 37 35 24 30 26 23 23 27 29 26 24 22 14 20 24
49 49 49 49 49 49 49 49 50 50 49 48 39 48 52 34 22 29 33 35 31 28 30 30 30 32 33 33 30 34 34 36 31 32 29 30 25 22 25 26 26 25 26 28 25 23 21
49 49 49 50 48 48 49 49 50 50 50 47 42 40 43 44 35 25 28 33 30 34 33 32 32 33 31 33 36 34 34 35 29 29 34 33 29 20 13 21 23 19 24 28 24 19 19
49 48 50 48 48 48 49 49 49 49 50 48 45 34 37 35 36 42 33 33 31 30 33 32 31 32 31 32 34 34 35 33 30 32 34 31 25 27 26 26 23 21 20 26 25 25 21
48 49 48 48 48 49 48 49 49 48 48 45 44 37 38 29 30 39 38 35 31 32 32 31 30 34 32 31 31 32 31 28 22 33 34 35 27 23 26 29 27 21 22 22 23 23 25
48 48 47 48 49 49 48 49 49 47 46 42 47 49 34 37 32 35 36 35 33 33 36 35 34 33 32 35 37 37 36 35 34 32 35 30 28 18 9 28 23 15 19 24 24 25 23
48 48 48 49 50 49 48 48 49 47 48 49 50 46 37 35 27 32 37 35 34 33 33 37 36 34 35 36 33 31 32 37 37 37 34 31 27 22 16 18 7 13 27 27 25 27 31
48 49 49 50 50 49 48 48 49 48 50 49 52 45 37 36 35 35 36 38 39 40 38 39 40 39 38 28 28 27 25 26 32 38 35 33 26 20 13 14 14 14 25 26 26 24 34
48 49 49 49 50 49 49 48 49 51 52 51 53 48 38 37 38 40 38 37 35 36 37 40 44 42 37 27 20 16 15 16 25 32 36 31 26 17 23 10 1 8 30 31 29 23 35
49 49 49 49 49 50 49 48 49 52 50 47 50 53 43 38 42 41 37 35 39 37 36 40 41 39 35 27 19 19 18 25 19 23 30 33 31 22 20 15 17 21 31 30 23 14 37
49 49 49 49 49 49 50 49 50 51 51 48 50 52 44 41 45 47 45 40 41 39 34 39 36 37 33 28 22 24 28 29 28 29 29 27 26 26 24 20 13 27 31 27 27 31 38
48 49 49 49 49 49 50 50 50 51 53 50 48 53 50 43 44 48 47 48 46 40 40 40 34 37 35 30 29 32 29 33 29 22 31 24 23 20 24 19 27 31 31 33 34 35 39

GFSGBSN_sfc_30mbdewp_018.txt.gz
Dewpoint
57 56 55 55 55 54 54 54 54 52 52 53 52 52 51 51 52 52 52 52 51 50 50 50 50 50 50 44 32 43 56 56 48 34 30 28 26 25 24 25 22 18 14 9 8 11 10
57 56 56 55 54 54 53 54 55 52 52 52 52 51 51 52 51 52 51 52 51 50 50 50 49 50 46 29 30 43 49 44 38 33 31 29 27 26 26 20 15 14 6 8 11 7 3
57 57 56 54 54 54 54 55 55 52 52 52 51 51 51 52 52 52 52 52 50 50 50 49 49 50 48 30 33 37 41 37 38 34 31 31 28 26 26 19 13 5 3 6 10 10 10
56 57 55 54 53 53 54 54 54 52 52 52 52 51 51 52 52 52 51 51 50 50 50 50 51 50 32 33 37 34 32 22 35 35 31 29 33 27 24 16 13 8 9 2 8 12 15
56 56 55 54 53 54 54 54 53 52 52 51 51 51 51 53 53 52 51 50 50 49 50 50 49 49 25 29 27 21 20 18 21 30 31 27 29 21 14 11 9 12 7 9 10 15 14
56 56 55 54 54 54 54 53 53 52 51 51 51 51 54 54 54 52 50 49 50 51 51 51 50 41 31 21 29 20 19 20 22 24 23 24 22 17 16 8 4 7 9 10 11 15 25
56 55 54 54 54 54 54 53 52 52 52 52 53 54 53 53 54 52 50 49 44 43 48 24 24 22 27 30 21 18 20 23 25 24 21 23 17 15 18 14 11 14 13 13 15 19 28
56 55 54 54 54 54 53 53 54 53 54 53 53 53 53 53 54 52 51 47 38 45 37 40 38 34 35 32 23 21 26 21 21 20 21 18 18 22 26 24 21 18 17 19 22 25 31
55 55 54 54 54 54 53 52 54 54 53 52 52 52 53 53 53 52 49 43 47 46 38 27 35 27 27 27 20 22 25 25 20 20 20 18 22 24 25 24 20 24 20 20 20 27 29
55 54 54 54 54 53 52 52 54 53 52 51 52 52 52 53 49 48 43 43 53 43 21 21 21 21 24 24 19 24 25 24 23 22 26 26 27 24 22 24 25 20 26 22 23 23 21
55 54 53 53 53 52 51 52 53 52 51 51 52 51 52 50 47 49 48 56 52 37 13 18 22 24 24 25 21 20 31 23 21 21 24 25 25 23 22 24 25 24 27 24 23 21 21
54 53 53 53 52 51 50 51 52 51 51 51 52 51 52 51 49 48 54 45 35 27 18 19 24 21 23 25 24 26 28 30 28 27 27 26 28 26 25 27 26 27 28 28 29 25 19
54 53 52 52 51 50 49 51 51 51 50 51 51 52 52 50 49 57 50 32 22 23 24 20 21 21 23 25 25 26 26 26 24 22 24 24 25 26 27 26 26 29 26 22 22 22 20
54 52 52 51 50 49 49 51 51 50 50 51 51 52 51 50 54 54 35 22 20 27 21 23 24 24 22 26 27 26 25 25 27 26 25 20 16 21 25 25 24 23 26 22 19 21 21
53 52 51 51 50 49 50 51 50 49 50 51 51 51 51 55 54 47 26 19 24 29 23 23 24 24 24 26 26 25 25 24 27 28 24 22 20 26 24 26 28 25 21 27 24 25 22
53 51 51 50 49 49 50 50 50 50 50 51 49 49 48 55 52 42 26 21 34 36 27 25 21 24 23 25 25 25 26 31 28 31 29 26 21 24 24 28 27 25 28 20 21 10 9
53 51 50 49 49 49 50 50 49 50 50 52 45 35 39 52 38 30 23 23 38 37 31 24 24 24 24 24 26 27 28 32 34 32 30 27 22 21 25 25 25 25 23 25 24 21 11
52 50 49 49 49 50 50 49 49 50 51 51 37 27 49 37 27 34 28 36 39 28 32 32 29 26 24 29 30 29 27 30 35 35 26 29 25 22 21 27 30 26 24 21 12 16 22
51 50 49 49 49 50 49 49 50 50 51 47 37 48 51 33 23 28 31 33 33 28 30 30 31 31 34 33 28 33 33 35 30 31 28 28 25 21 22 23 25 25 27 25 23 24 21
50 49 49 49 49 49 49 49 50 50 51 45 42 40 44 38 32 25 25 30 30 33 32 32 33 33 33 34 35 33 33 34 30 31 35 30 26 19 11 17 23 21 26 25 21 17 17
49 49 49 49 49 49 49 49 50 50 51 48 40 38 41 37 34 27 26 32 30 30 32 32 31 31 31 32 33 32 35 31 30 33 35 28 23 25 26 27 24 20 21 26 23 22 18
49 48 49 49 48 48 49 49 50 50 50 45 43 35 33 35 38 35 31 29 31 32 32 30 29 34 32 30 29 31 31 27 18 34 33 33 25 22 24 29 27 23 22 22 26 25 25
48 49 48 48 48 48 49 49 49 49 48 43 48 44 33 34 37 35 35 33 33 33 36 35 32 33 32 34 36 36 35 33 32 32 32 29 26 18 13 26 21 13 18 21 22 23 22
49 48 48 48 49 49 48 49 49 49 47 46 48 45 36 29 31 36 36 37 35 33 32 36 35 32 36 36 33 32 33 37 37 36 34 27 23 17 13 17 5 12 27 26 23 25 25
49 47 48 50 49 48 48 49 49 48 49 48 51 44 37 29 29 31 37 38 38 39 38 38 40 38 36 29 29 28 27 28 31 35 32 30 23 17 11 14 12 11 19 25 25 22 29
48 49 49 49 49 48 48 49 49 48 49 52 52 44 40 30 30 36 37 38 35 36 37 40 42 39 33 24 19 24 23 22 20 31 34 28 24 15 19 8 2 7 25 30 27 21 28
49 49 49 49 49 48 49 50 50 48 49 50 51 49 42 40 43 40 35 36 37 36 36 39 37 38 33 23 18 16 15 22 15 18 28 32 30 21 17 13 15 18 29 30 19 12 32
49 49 49 49 49 49 50 50 51 51 49 50 50 52 43 42 45 47 44 38 39 38 33 39 36 36 31 27 22 22 24 25 26 26 29 24 25 24 22 19 13 25 31 26 26 29 34
48 48 49 49 49 48 48 49 51 50 50 49 49 53 49 43 44 48 47 48 46 39 39 40 35 36 34 30 26 29 27 31 28 19 31 24 25 20 22 18 24 29 32 32 32 30 36

GFSGBSN_sfc_30mbdewp_024.txt.gz
Dewpoint
60 59 58 57 57 56 56 55 55 55 54 52 52 52 53 52 52 52 52 51 52 51 50 50 50 49 49 42 29 45 55 54 42 32 27 24 21 20 14 16 20 20 18 16 13 29 37
60 59 58 58 57 56 56 56 55 55 54 54 52 51 52 52 51 51 52 51 51 52 50 50 49 49 46 30 31 44 47 40 33 29 31 27 21 22 19 23 20 20 18 12 10 20 32
54 59 58 58 57 56 56 56 55 54 54 54 53 52 52 52 51 51 51 52 52 51 50 50 49 49 46 31 31 42 40 36 33 29 29 29 26 23 25 24 21 14 10 10 9 15 23
54 57 59 58 57 56 55 55 54 54 54 54 53 52 51 51 50 51 52 51 51 50 49 49 50 49 38 36 35 36 33 35 37 33 30 32 31 27 26 21 12 9 9 5 13 13 14
54 53 59 58 57 56 55 54 54 53 54 54 52 52 51 51 50 51 52 51 49 49 49 50 49 48 32 34 30 25 32 25 34 35 34 31 31 27 24 20 9 9 2 5 13 20 14
53 53 57 58 57 56 55 54 53 53 53 53 52 51 51 51 52 53 50 49 49 50 50 49 49 45 36 23 29 25 23 29 31 31 31 29 26 22 16 15 8 4 8 3 6 22 13
52 53 54 58 57 56 55 54 54 53 53 53 52 51 52 53 53 51 49 49 47 45 48 33 28 31 21 25 29 19 23 27 27 26 23 26 20 16 13 13 12 9 10 6 16 28 28
51 51 51 55 57 56 55 55 54 53 52 52 51 53 53 53 53 50 49 45 39 46 35 40 37 34 32 31 25 20 26 21 24 19 23 21 18 24 25 17 15 14 11 17 23 28 28
50 51 51 51 57 56 55 55 54 53 52 52 54 53 53 53 52 49 48 44 49 47 41 35 38 29 23 29 20 18 23 22 23 21 22 19 24 26 23 21 18 21 18 21 18 27 29
49 50 52 50 53 56 55 55 54 53 52 52 53 52 53 52 48 48 45 44 46 48 24 21 26 28 26 26 20 25 28 23 23 19 26 25 26 25 23 22 22 18 24 23 24 21 15
48 49 50 50 51 56 55 54 54 53 52 52 53 52 53 50 49 44 48 50 55 45 14 21 22 25 26 21 21 26 31 25 20 24 27 25 24 23 23 25 26 24 27 25 23 21 21
47 48 50 50 50 54 54 54 53 52 52 52 52 52 53 51 50 50 51 52 48 30 15 20 23 23 24 24 24 28 29 30 29 26 27 26 28 27 27 28 27 28 26 25 24 22 17
47 48 49 50 50 53 54 54 53 52 51 52 51 52 52 51 44 57 57 46 27 21 25 19 20 22 21 22 24 27 26 25 21 22 23 24 25 26 29 26 30 28 24 17 20 18 14
46 47 48 49 50 51 54 53 52 51 51 51 51 52 51 50 51 54 46 33 20 19 21 23 22 22 20 23 25 27 26 23 28 25 21 17 19 23 27 26 22 24 23 16 8 12 13
45 47 48 48 50 51 53 53 51 50 51 51 51 51 49 50 52 52 39 26 20 24 25 22 22 19 22 24 24 26 26 24 27 28 17 18 19 26 28 28 27 25 21 28 25 26 23
45 46 45 46 49 50 52 52 51 50 51 51 48 48 44 51 54 48 37 26 24 32 27 23 18 19 20 21 21 24 25 29 28 30 31 25 21 25 27 28 29 27 27 22 23 18 12
45 45 45 45 48 50 51 52 50 50 51 51 46 39 51 57 53 45 31 29 27 37 32 23 20 23 21 24 20 21 24 30 31 30 29 26 23 25 27 25 24 26 23 23 23 22 10
45 45 45 46 48 50 51 51 50 50 51 50 43 36 54 51 42 37 30 29 36 33 36 29 28 27 24 26 26 22 23 27 35 32 27 28 27 25 25 28 29 27 23 20 13 16 23
44 44 45 46 48 48 52 50 50 50 50 47 39 44 51 43 34 34 32 30 36 30 31 31 29 30 33 30 27 31 31 34 33 32 30 30 27 24 23 25 27 25 25 22 25 25 19
44 44 45 46 47 46 51 50 50 50 50 46 40 39 47 41 35 31 29 28 29 34 33 34 34 35 34 32 35 33 33 34 33 33 32 29 28 24 21 18 23 24 25 22 18 19 14
43 44 45 47 46 46 51 50 50 50 50 48 43 37 40 35 32 31 29 28 25 31 33 34 33 32 31 32 32 33 34 30 33 36 36 32 26 26 24 25 24 22 22 23 19 19 17
44 45 45 46 45 46 50 50 50 50 50 47 39 39 41 35 31 28 28 28 24 32 32 31 31 33 34 32 29 31 33 30 29 35 34 33 28 28 26 27 25 23 22 21 23 21 21
45 44 46 47 46 49 50 49 50 50 50 44 47 42 36 37 31 27 27 26 26 34 37 34 34 34 34 36 38 37 36 33 30 33 34 32 29 25 21 24 24 20 23 21 20 23 23
44 45 46 47 47 50 49 49 49 50 49 43 48 40 37 34 33 26 27 29 32 34 35 36 37 35 39 39 36 36 36 35 33 33 33 31 28 27 24 20 11 14 21 21 20 20 20
44 47 46 47 49 49 49 49 49 50 49 51 50 42 39 36 34 30 28 28 38 38 39 38 40 39 38 36 34 32 32 32 34 32 30 29 28 23 23 17 13 6 16 19 21 15 20
46 48 49 49 48 48 49 49 49 49 49 52 51 48 43 34 34 32 30 36 36 38 39 39 39 39 34 36 34 30 29 28 27 32 32 28 28 27 22 18 13 16 23 29 28 17 21
48 48 48 48 48 49 48 48 49 49 49 53 51 51 43 41 38 39 33 35 39 39 39 38 37 38 36 34 31 33 29 27 23 21 28 32 32 28 27 25 22 21 21 30 18 16 28
48 48 48 49 48 48 48 48 49 49 49 53 53 53 47 46 42 46 42 40 40 40 38 39 37 38 36 32 34 32 31 27 25 24 29 26 29 28 27 24 18 24 29 23 27 31 31
48 48 48 48 48 48 48 48 49 49 49 53 50 52 52 46 46 49 48 48 47 42 41 40 40 38 37 38 35 36 31 30 32 27 30 26 28 27 26 24 27 28 29 32 34 32 32

GFSGBSN_sfc_30mbdewp_027.txt.gz
Dewpoint
55 55 60 59 58 57 56 56 56 55 55 54 54 53 51 52 52 52 52 51 52 51 52 51 50 50 49 42 34 48 55 54 41 37 26 16 15 16 12 12 12 17 17 19 24 28 26
52 54 56 59 58 57 57 56 56 55 55 54 54 54 52 52 52 52 52 52 52 52 52 50 50 49 48 34 28 38 39 37 29 31 23 18 17 16 14 10 13 17 17 13 15 26 33
52 53 54 58 58 58 57 56 56 55 55 54 54 54 52 52 52 52 51 51 52 52 51 50 49 48 44 35 30 38 35 30 26 27 24 24 22 22 22 21 20 17 14 9 12 24 27
52 53 54 54 58 58 57 56 56 55 54 54 54 54 52 52 51 51 51 52 51 50 50 49 49 48 39 33 31 32 34 32 32 30 28 30 28 25 24 24 18 15 14 13 14 20 25
51 53 54 53 57 58 57 56 55 55 54 54 53 53 51 51 51 51 52 51 50 49 49 49 50 47 34 33 27 25 26 25 32 32 31 30 31 27 25 23 14 13 10 10 12 14 17
50 51 53 54 54 58 57 56 55 54 54 53 53 52 51 51 51 52 51 49 49 49 49 48 47 45 40 24 26 22 25 31 32 32 31 29 27 25 22 18 13 10 8 7 9 12 18
49 50 51 53 53 57 57 56 55 54 53 53 53 52 51 51 53 52 49 48 44 46 45 35 30 29 22 24 26 21 21 25 29 27 25 27 21 19 17 17 15 11 12 3 12 20 11
47 49 50 52 53 55 58 57 55 54 53 53 52 51 52 53 53 51 50 40 41 46 39 36 32 29 29 28 22 19 21 22 25 24 24 22 21 22 21 16 15 10 8 10 14 16 20
47 48 49 51 51 51 56 57 55 54 53 53 52 52 53 53 52 49 46 41 47 47 42 31 30 29 23 26 19 18 20 18 22 21 21 28 25 25 20 14 12 12 10 14 13 19 19
47 47 49 50 51 51 53 57 56 54 53 52 52 53 53 52 47 45 43 41 43 45 36 23 25 26 25 24 19 21 21 19 21 21 23 29 26 23 17 16 17 14 21 19 19 19 14
46 47 47 49 50 51 51 54 56 54 53 52 52 53 53 50 51 42 48 46 50 52 21 19 21 26 23 20 18 21 25 19 19 18 22 27 23 21 18 21 24 26 22 22 20 18 22
46 46 47 48 50 51 50 53 55 54 53 52 52 52 53 51 50 49 50 54 52 37 20 18 21 20 21 19 16 23 20 21 24 20 19 30 26 25 25 27 26 26 24 23 22 15 14
45 46 46 48 49 50 50 53 54 54 53 52 52 52 52 50 42 50 55 50 34 24 21 16 17 18 18 18 17 18 18 17 13 15 17 22 21 26 26 24 26 22 20 17 17 15 14
43 45 46 47 48 50 50 52 54 53 52 52 52 52 52 50 50 54 54 40 28 19 19 18 17 18 15 17 16 18 16 13 15 19 19 17 19 23 26 23 20 21 18 18 11 9 9
40 43 46 46 48 49 50 52 54 53 52 51 51 51 50 50 52 54 48 34 26 17 19 17 17 15 16 18 18 18 16 12 15 18 19 16 18 24 26 26 22 21 19 23 21 27 18
42 42 45 45 47 49 50 51 53 52 51 51 48 48 45 49 53 52 43 31 25 24 23 19 15 16 16 19 17 16 18 21 24 27 28 20 19 22 26 27 27 25 24 18 17 15 12
39 42 45 44 45 48 50 50 53 52 51 50 46 42 40 50 52 45 37 30 25 26 27 21 16 16 16 16 15 16 19 26 27 28 28 22 19 24 25 23 17 25 21 20 21 22 16
40 42 45 44 44 46 49 50 52 52 50 49 46 38 51 55 39 42 35 30 26 27 33 25 25 19 18 19 18 15 17 21 28 28 23 25 20 20 23 27 27 25 22 22 18 15 19
39 45 43 44 44 44 47 49 51 51 50 46 44 43 55 49 37 40 34 29 28 28 30 27 22 24 21 20 20 19 18 35 34 31 24 29 20 19 22 25 26 21 20 21 19 23 17
41 43 43 44 43 44 47 50 50 51 50 47 42 37 48 49 40 36 32 28 28 30 29 27 22 28 27 26 28 26 27 33 35 32 31 30 22 21 19 20 21 23 20 20 20 18 15
44 43 44 44 45 46 47 48 50 51 49 47 43 34 39 38 39 36 31 28 25 28 31 31 29 27 26 26 28 29 29 32 34 35 31 31 25 23 22 23 22 20 17 20 19 17 14
41 43 43 45 45 46 47 47 50 50 49 47 41 33 36 37 37 34 31 28 23 27 30 30 26 25 25 25 27 26 31 30 29 35 33 31 24 28 27 26 24 21 20 17 16 15 13
42 43 44 44 45 46 47 47 47 50 49 44 46 43 37 39 37 32 31 27 24 29 37 32 28 27 28 33 37 37 35 33 31 34 33 32 28 26 19 23 22 21 24 21 18 16 18
41 42 43 44 45 45 44 45 45 49 48 44 46 41 39 37 36 31 28 27 25 30 32 34 33 31 39 38 37 36 34 33 33 34 34 33 30 30 23 23 14 11 18 16 17 17 15
41 42 44 44 46 46 45 45 45 49 49 46 50 45 39 37 33 27 26 27 27 34 35 36 39 39 39 36 34 33 33 33 31 29 28 30 29 27 28 17 14 13 10 17 17 14 16
42 43 44 45 46 46 46 45 49 49 49 51 54 50 40 39 33 27 25 25 32 37 40 40 41 40 39 38 37 29 27 26 29 32 30 28 30 25 25 24 19 22 21 24 24 16 20
43 43 43 45 47 47 47 49 49 49 49 49 53 54 37 30 29 30 26 26 31 35 37 40 40 39 39 41 36 34 28 28 25 27 32 33 33 29 28 28 26 22 22 27 17 23 27
43 43 45 46 47 48 49 49 48 48 49 50 53 54 42 39 39 40 32 30 30 35 40 40 38 39 37 36 39 36 37 30 28 24 30 29 32 30 33 31 21 22 26 21 30 26 26
43 45 45 47 48 49 48 48 48 48 49 50 51 53 51 42 46 48 49 48 42 37 36 40 34 39 39 35 41 42 36 34 33 26 28 27 29 29 27 26 27 25 24 26 29 30 30

GFSGBSN_sfc_30mbdewp_030.txt.gz
Dewpoint
52 53 54 55 60 59 58 57 56 56 55 55 55 54 53 53 52 52 51 51 52 52 52 52 51 50 49 43 36 49 56 52 41 33 31 24 14 14 14 14 13 13 15 16 19 31 29
51 53 53 54 55 59 58 57 57 56 55 55 55 54 54 53 52 52 52 51 51 52 52 51 50 50 48 35 28 40 40 39 27 31 28 17 14 15 15 11 11 11 18 17 15 28 27
49 52 53 54 54 57 59 58 57 56 56 55 55 54 53 53 51 52 51 51 50 52 51 50 49 48 43 33 33 35 33 27 26 28 23 21 19 20 18 18 13 19 16 16 13 25 29
49 51 53 53 54 54 58 58 57 56 56 55 54 54 53 52 51 51 50 51 52 51 50 50 49 48 40 34 33 31 33 32 30 26 26 28 28 24 24 25 21 19 15 15 16 23 28
48 49 51 52 54 54 55 58 57 56 56 55 54 54 53 52 50 51 51 52 51 50 49 49 49 48 36 33 29 26 27 25 30 30 29 28 29 28 25 24 22 16 15 18 16 18 27
47 48 50 51 52 54 53 57 57 56 55 55 54 53 53 51 50 51 52 51 51 49 49 47 45 42 42 29 24 22 24 27 31 30 30 29 27 25 24 23 19 15 16 14 12 11 15
48 47 47 51 51 53 54 56 57 56 55 54 53 53 52 51 51 52 50 48 46 46 45 34 32 31 24 23 25 23 22 30 30 30 27 28 24 21 29 23 19 17 14 13 11 11 13
47 48 47 48 50 51 54 55 57 56 55 54 53 53 52 52 53 53 50 46 42 46 43 40 28 31 28 28 23 21 19 23 28 28 28 26 22 23 29 22 21 17 16 12 11 15 15
47 48 48 48 49 50 52 52 55 56 55 54 53 52 52 53 53 51 46 41 43 44 41 33 27 24 27 26 21 18 19 19 28 27 28 30 28 29 26 19 16 14 13 18 13 10 6
44 46 48 48 48 50 50 52 52 56 55 54 53 52 53 53 49 47 44 43 43 45 36 27 25 25 26 23 19 17 18 17 23 22 33 31 28 25 19 17 15 19 23 19 17 15 13
43 43 47 48 48 48 50 52 52 55 55 54 52 53 52 51 51 43 48 43 52 52 27 24 24 23 24 21 18 17 21 21 19 23 29 30 28 25 21 22 24 22 24 23 15 15 25
43 44 46 47 48 48 49 51 51 54 55 54 52 53 52 52 50 50 51 54 53 40 25 19 21 22 19 20 16 16 18 21 20 20 22 26 27 30 30 28 24 26 25 22 18 17 23
44 44 46 47 47 48 49 50 50 52 55 54 52 53 52 49 45 48 50 53 37 25 20 18 18 19 18 17 16 18 19 15 16 16 19 22 22 24 30 22 21 18 18 18 25 25 19
40 43 45 46 47 47 48 50 50 52 54 54 52 52 51 49 50 52 54 50 28 22 23 14 15 17 16 17 13 14 17 14 15 14 14 20 18 20 23 20 29 21 15 22 23 25 20
39 42 43 44 46 47 48 49 50 52 53 53 52 51 49 50 52 53 49 40 29 27 21 17 15 15 15 15 13 14 15 13 13 13 22 25 27 29 24 22 21 20 19 20 18 28 21
38 42 41 42 45 46 47 49 50 52 53 52 48 47 46 51 52 52 47 38 30 27 23 18 14 15 12 13 15 15 14 15 12 17 32 37 32 32 24 24 23 21 20 20 17 13 12
39 41 40 40 44 46 46 48 50 52 52 51 46 42 43 51 53 47 40 37 35 27 23 21 15 14 14 16 16 15 13 15 22 24 25 26 33 23 25 21 14 23 22 17 14 20 20
40 40 40 40 41 44 46 47 49 52 52 51 44 37 49 54 41 36 39 35 33 29 24 26 22 16 14 16 16 13 15 18 23 23 23 21 21 19 21 22 24 22 23 20 22 17 21
39 40 40 40 41 43 46 45 48 51 51 48 40 41 52 50 33 35 38 36 31 29 27 28 22 21 19 18 17 16 16 34 32 29 27 27 22 18 16 22 25 21 18 18 21 25 22
39 40 40 41 42 40 45 44 47 51 51 49 41 39 50 50 35 35 37 33 30 30 25 27 25 21 22 18 21 20 21 33 34 32 31 33 23 17 20 18 22 23 21 17 18 23 21
39 40 41 41 42 43 45 44 45 50 51 50 43 37 43 42 42 36 37 32 29 27 26 27 24 20 25 24 20 25 24 34 34 35 31 30 21 19 18 20 23 23 19 18 17 19 19
39 40 41 40 45 45 43 44 45 50 51 47 40 37 41 38 39 36 37 34 28 26 26 28 25 23 26 24 25 25 26 32 29 35 30 31 28 27 27 26 24 23 22 21 17 15 16
38 41 43 43 44 43 43 45 45 49 50 45 44 46 43 38 37 36 38 36 30 27 28 28 28 26 25 29 34 37 36 33 30 34 32 32 32 29 25 25 22 17 21 21 18 17 16
41 41 42 43 42 43 45 47 46 47 49 47 43 45 42 37 36 36 38 35 28 28 31 30 30 28 37 38 37 36 34 34 35 35 34 34 33 32 27 25 13 14 18 16 16 15 14
40 41 42 43 44 44 44 47 46 44 47 49 47 48 45 39 35 34 38 35 29 27 32 32 40 40 40 38 37 34 34 29 31 30 31 32 34 31 28 22 18 18 15 16 16 15 18
41 41 42 43 44 45 45 45 46 45 46 48 48 55 51 42 38 34 32 32 30 34 40 41 41 42 39 39 37 30 28 27 26 30 27 28 32 28 27 25 18 24 21 22 21 16 22
41 41 42 43 44 45 45 44 44 45 45 44 48 52 54 44 39 36 31 32 34 39 40 40 41 40 42 45 37 31 27 26 28 31 32 33 33 29 30 28 29 24 23 25 19 27 27
41 42 43 43 44 45 45 45 45 45 44 44 47 51 52 47 38 37 32 31 33 40 41 41 39 39 41 36 37 37 37 32 26 27 33 32 34 32 34 33 25 23 25 22 32 30 29
42 42 44 44 44 45 46 46 45 45 44 49 46 50 52 52 48 50 49 47 44 40 43 43 38 39 41 37 39 41 38 36 35 27 26 26 31 33 33 31 31 23 24 25 28 29 30

GFSGBSN_sfc_30mbdewp_033.txt.gz
Dewpoint
51 51 53 54 54 55 60 59 58 56 56 55 55 55 55 54 54 53 53 52 51 51 52 53 52 51 49 46 43 47 53 51 40 33 29 29 29 23 15 15 15 15 14 14 35 38 41
50 51 52 53 54 54 55 59 58 57 56 55 55 55 54 54 54 52 51 51 51 51 52 53 51 51 48 38 38 51 47 43 35 30 32 32 28 15 14 16 18 14 14 15 18 38 38
49 50 51 53 54 54 54 58 59 58 57 56 55 55 54 53 53 52 52 50 51 51 52 52 51 48 46 33 36 35 36 32 30 29 29 29 26 26 24 23 26 20 16 16 14 31 37
49 50 50 52 53 54 54 54 58 58 57 56 55 55 54 53 53 51 51 51 51 52 52 51 50 48 40 42 40 36 34 29 26 29 29 28 30 29 25 25 26 20 19 15 17 30 34
49 49 49 50 52 53 53 54 55 58 57 56 55 54 54 53 52 51 51 51 52 52 51 50 48 48 42 42 35 33 30 31 31 29 29 28 29 28 29 24 24 22 17 17 17 28 32
46 48 49 49 50 52 52 54 54 56 57 56 55 54 53 53 52 51 51 51 51 51 50 48 47 42 42 33 32 29 28 30 30 30 30 29 28 27 26 26 21 20 17 17 20 20 30
46 46 47 48 49 52 52 54 54 55 57 56 55 54 53 52 51 52 51 50 47 47 46 41 36 34 29 29 28 24 28 31 31 30 32 34 28 26 28 28 26 24 18 17 18 13 27
46 47 47 48 48 48 51 52 54 55 56 56 55 54 53 52 53 52 51 47 44 44 43 45 41 36 31 32 26 24 27 28 30 29 32 30 30 29 28 28 27 26 19 18 18 16 17
44 45 48 47 48 48 49 51 53 54 56 56 55 53 53 52 53 51 49 46 44 44 43 41 40 39 28 29 26 24 22 25 27 25 31 30 31 31 26 26 26 25 24 20 15 11 12
44 46 44 46 49 48 48 50 52 51 54 56 55 53 52 53 48 49 48 48 47 46 40 34 36 29 23 26 25 26 22 23 25 29 30 29 30 30 26 26 25 20 24 25 21 16 11
44 45 45 45 46 49 48 49 51 52 53 55 55 53 52 51 49 49 49 52 46 47 26 29 30 27 24 25 23 21 22 19 24 30 30 26 29 30 29 27 26 25 26 22 23 22 23
42 43 45 45 44 46 48 48 50 52 53 55 54 53 52 51 51 49 50 49 54 42 29 26 26 22 22 24 22 21 19 21 22 29 25 23 31 31 29 28 28 28 22 25 28 26 20
42 41 43 45 44 45 47 47 49 51 51 54 54 53 52 50 46 51 52 49 39 35 25 21 21 22 22 21 20 19 18 18 19 20 25 27 27 27 32 28 28 27 23 22 19 21 22
42 42 41 42 44 45 47 47 48 51 51 54 54 53 52 50 51 52 53 46 36 26 27 23 22 22 19 19 18 17 19 17 20 18 24 21 23 29 29 29 25 23 24 21 20 20 25
42 41 41 43 44 45 47 46 47 50 51 53 53 51 50 49 51 51 50 39 32 30 24 24 17 18 17 17 17 16 15 19 17 15 16 25 27 32 31 33 26 24 22 26 28 32 28
41 41 40 40 41 45 46 47 46 49 51 53 50 49 48 50 52 49 45 36 37 32 31 27 19 16 16 17 16 16 15 16 17 17 29 32 25 33 31 33 24 22 22 20 22 14 14
40 40 39 39 40 42 45 46 47 49 51 52 49 45 46 50 52 47 38 37 38 37 32 27 19 16 17 16 17 15 16 16 19 30 32 33 30 31 33 28 20 23 21 20 20 22 18
40 39 39 39 40 41 43 46 46 48 50 51 48 40 47 51 42 41 37 39 39 35 37 35 25 22 16 17 18 15 16 29 22 27 25 32 33 29 28 28 24 23 22 27 18 17 24
38 38 39 39 40 43 42 44 47 48 49 47 44 42 49 45 31 36 36 38 40 37 36 32 26 25 23 19 21 18 29 35 33 29 27 31 24 21 18 24 27 23 21 20 24 28 21
38 38 38 38 38 43 41 42 46 47 49 47 44 37 47 47 31 34 33 32 37 38 37 34 28 28 24 20 22 21 31 33 35 33 31 32 26 20 16 18 24 24 23 22 19 21 21
37 37 38 39 40 41 40 43 44 46 48 47 45 36 42 39 41 34 33 31 36 36 36 33 29 27 24 22 22 25 34 33 35 33 31 30 23 21 20 24 25 24 24 24 19 22 19
37 38 39 40 40 40 40 41 43 46 47 46 42 37 43 43 41 40 34 34 35 34 35 30 30 26 25 25 27 23 32 32 31 34 30 31 27 27 26 28 25 23 24 24 23 21 19
37 38 40 40 41 41 42 42 42 46 47 43 43 44 41 41 41 39 33 34 35 35 33 31 29 28 28 31 35 36 34 33 33 32 31 31 30 28 25 24 21 19 21 21 22 23 20
38 39 40 41 41 42 42 43 42 46 46 46 42 43 41 36 41 39 32 33 37 35 35 31 30 30 36 39 38 37 36 36 37 37 36 34 33 31 25 24 16 19 18 15 14 19 19
39 39 39 41 41 41 42 43 45 45 46 46 46 45 45 38 39 37 31 35 38 38 35 32 38 37 40 39 36 32 31 28 31 31 33 37 33 31 24 20 23 19 20 20 17 20 23
39 40 41 44 42 45 44 45 44 44 46 45 42 46 47 43 40 37 31 36 37 38 41 43 44 44 41 40 34 28 26 27 28 27 33 33 35 25 32 20 12 23 21 23 21 22 28
38 41 43 42 43 44 44 43 45 46 47 45 44 46 46 45 44 40 32 33 39 40 41 44 43 42 45 38 32 28 26 30 29 30 28 29 31 26 25 20 26 30 24 25 15 23 29
38 41 41 41 42 43 43 45 46 45 45 43 42 45 46 46 47 45 38 37 39 42 39 43 44 41 42 32 32 34 31 29 30 34 32 28 28 27 34 29 22 28 25 19 32 31 30
40 41 42 43 44 44 45 45 45 45 45 45 40 45 47 46 48 52 50 51 45 44 43 42 40 40 41 38 40 39 35 35 31 27 34 27 34 29 31 30 33 26 25 30 30 34 36

GFSGBSN_sfc_30mbdewp_036.txt.gz
Dewpoint
50 51 50 53 54 53 54 58 59 58 57 56 55 55 54 55 54 54 53 51 51 51 52 52 53 52 49 42 34 49 51 52 41 34 28 26 28 28 19 16 16 15 18 28 38 39 38
50 51 51 52 53 53 54 54 58 59 57 56 55 55 54 54 54 53 53 52 51 51 52 52 52 51 48 23 41 49 45 40 36 31 29 29 29 29 22 17 20 22 25 33 36 35 34
50 50 51 51 53 53 54 54 54 58 58 57 56 55 54 54 53 53 52 52 52 51 52 52 51 49 45 18 43 44 41 32 33 26 27 31 31 28 26 23 26 26 19 35 37 38 37
50 50 50 51 52 53 53 54 53 55 58 58 56 55 54 54 53 52 52 51 51 52 53 52 51 48 34 42 44 41 37 32 29 29 29 29 30 29 26 26 25 25 19 17 36 36 35
47 49 50 50 50 52 53 52 53 54 57 58 57 56 55 53 53 52 51 51 52 52 53 52 48 48 32 44 39 38 34 31 30 27 28 29 29 29 28 25 24 23 16 17 26 31 31
46 46 48 49 50 50 52 52 52 53 55 57 57 56 54 53 52 51 51 51 51 51 50 49 47 41 39 31 36 32 30 29 30 30 30 30 29 27 27 25 21 22 18 17 19 27 28
46 45 47 47 50 49 50 52 53 53 54 56 57 56 54 53 52 52 50 48 46 46 46 35 29 30 29 35 32 29 28 29 32 34 28 34 29 27 28 28 27 26 25 23 21 19 29
46 46 47 47 48 49 49 50 52 53 54 55 56 56 54 53 52 52 50 43 44 42 40 44 44 41 38 37 30 29 31 28 30 29 35 30 27 30 30 27 27 26 25 23 22 20 25
47 45 46 46 47 47 49 48 50 52 54 55 56 56 54 52 52 51 48 45 46 43 40 41 44 42 41 38 29 28 28 28 28 29 29 27 27 31 29 26 24 25 25 22 24 21 14
46 46 46 46 46 47 48 49 48 51 52 54 56 56 53 52 47 48 48 49 49 46 37 32 36 39 30 24 25 29 25 28 26 27 30 29 31 30 29 27 26 23 25 22 22 18 9
47 45 45 45 45 44 47 47 48 50 51 51 54 55 52 50 48 48 48 49 48 48 10 28 37 33 25 24 25 23 26 22 26 28 29 23 29 28 27 27 28 26 27 25 24 23 22
47 46 44 45 46 44 44 47 48 49 50 51 53 54 52 51 50 48 49 50 53 40 21 29 31 23 22 23 24 23 20 22 27 29 31 25 31 29 28 29 29 30 26 27 30 27 20
43 47 45 44 45 46 45 43 46 48 49 51 53 54 52 51 42 51 52 49 39 32 30 26 24 23 21 22 23 23 20 18 18 23 24 27 28 30 32 27 28 27 25 20 18 19 18
40 41 45 44 42 45 46 44 43 47 49 50 53 53 52 50 50 51 52 46 33 30 30 28 25 23 21 22 22 21 18 17 20 21 26 22 21 27 31 29 28 28 23 20 15 16 19
39 40 45 44 41 42 45 45 44 46 48 50 53 52 51 50 51 49 49 38 30 34 26 22 23 22 21 21 19 20 18 17 17 19 17 25 26 33 32 33 31 25 23 26 27 32 26
40 41 46 45 43 41 42 45 45 45 47 49 49 48 49 50 50 46 44 35 36 37 33 30 21 22 19 17 18 18 17 18 19 19 23 27 23 31 32 30 29 28 25 20 24 17 18
40 41 45 43 43 41 42 42 44 44 47 49 46 43 48 51 49 42 37 35 37 36 38 33 27 22 19 17 18 17 16 17 18 25 28 32 25 27 32 29 24 22 20 21 22 21 16
40 41 43 43 42 42 42 41 44 44 46 47 44 38 49 51 40 38 38 36 37 36 38 38 36 30 20 19 18 17 17 16 27 31 24 32 31 26 23 29 30 27 23 24 18 16 24
39 41 42 42 41 40 42 41 41 46 45 43 40 42 49 48 36 32 36 37 36 34 36 36 33 31 25 19 19 20 23 34 34 29 27 31 29 23 23 24 28 26 22 24 27 25 19
39 42 42 42 41 40 40 40 42 45 46 44 41 36 43 45 39 31 32 35 36 36 36 39 38 37 32 23 25 24 30 33 35 31 33 30 25 22 20 18 23 24 25 24 22 20 21
39 41 41 41 41 40 40 40 40 44 47 43 41 35 37 37 38 34 31 34 34 33 37 37 33 35 35 23 22 29 34 33 35 31 32 28 23 23 21 23 28 25 24 25 23 22 18
39 40 40 40 40 39 40 40 42 44 47 41 37 38 40 39 38 37 32 32 31 30 30 30 33 34 32 25 23 28 30 31 26 32 28 31 22 26 22 27 24 24 23 23 24 23 24
39 39 39 38 39 39 39 41 41 43 46 40 42 44 40 35 38 37 34 32 29 29 30 32 33 32 32 29 30 29 33 32 31 28 30 29 28 26 22 24 21 20 21 22 22 24 23
39 39 38 38 38 40 41 39 43 43 44 42 42 42 40 34 39 37 35 33 30 31 28 34 34 34 34 39 37 35 35 38 36 36 36 31 31 28 24 22 19 22 23 22 20 21 22
38 38 38 39 40 40 40 41 41 42 43 44 44 43 43 34 37 40 38 34 31 32 36 31 35 36 40 38 34 32 32 33 30 32 35 36 32 29 24 21 23 22 19 18 17 22 24
38 38 39 39 40 40 40 41 41 42 43 42 45 47 44 40 36 38 40 35 31 35 35 37 44 45 43 38 31 26 27 29 29 27 33 35 33 29 30 21 19 20 22 23 24 22 28
38 39 39 40 40 41 41 41 41 42 43 43 43 47 43 41 43 40 38 37 34 34 39 43 42 42 43 33 30 27 26 29 26 26 25 29 30 28 26 22 17 25 25 25 11 15 29
40 40 40 41 42 42 42 41 41 42 43 45 43 47 43 42 43 48 41 34 34 37 38 43 42 42 40 32 30 31 26 30 30 31 28 25 28 28 29 22 21 31 24 21 25 32 32
38 39 42 43 42 41 42 42 42 42 45 45 41 47 47 41 43 47 46 47 46 39 42 45 38 40 41 36 38 36 34 32 31 30 35 26 25 25 29 26 31 29 29 33 34 35 38

GFSGBSN_sfc_30mbdewp_039.txt.gz
Dewpoint
51 50 51 51 52 54 54 54 55 59 58 57 56 55 55 55 55 54 53 53 52 52 51 52 53 52 48 37 25 46 54 53 49 37 28 25 27 27 22 19 16 15 17 28 38 40 39
49 51 51 51 51 51 52 53 54 54 59 58 56 55 55 54 54 54 53 53 52 52 52 52 52 51 46 15 36 49 45 43 36 33 27 27 28 29 28 21 19 22 25 33 38 38 35
47 49 50 51 51 52 53 53 54 54 56 59 57 56 55 55 54 54 53 52 52 51 52 53 52 49 44 18 45 41 40 36 35 30 28 31 32 28 27 23 26 26 27 36 37 36 35
48 47 49 51 51 51 52 52 53 54 53 57 58 57 55 55 54 53 52 52 51 51 52 53 51 48 30 39 43 44 40 36 34 31 28 29 29 29 28 27 26 24 22 24 32 37 37
47 47 46 48 50 51 51 52 52 53 53 54 57 57 56 55 53 53 52 51 52 52 52 52 48 48 27 41 39 40 39 32 31 28 28 28 29 29 28 24 22 23 16 17 25 35 34
48 47 48 46 48 50 50 50 52 52 52 53 56 57 56 55 53 52 51 51 51 51 50 49 47 35 33 29 34 34 36 33 31 29 29 30 29 26 27 24 18 22 22 20 23 31 32
48 47 46 48 46 48 50 50 50 52 52 53 54 56 56 55 53 51 50 47 42 46 45 33 25 22 26 35 34 30 29 29 33 31 27 34 28 26 26 27 26 26 25 24 23 22 28
47 47 47 47 47 47 48 49 49 50 52 53 54 55 56 54 52 52 50 42 42 43 36 40 42 38 39 39 38 30 31 28 30 28 34 29 26 29 30 29 27 26 23 23 23 23 24
46 48 46 46 47 47 46 48 49 49 50 52 54 55 56 54 52 51 47 44 45 47 32 36 43 42 40 42 37 31 29 30 28 29 31 26 26 31 29 25 25 24 23 24 23 24 18
44 46 48 46 46 47 48 45 48 49 49 51 53 55 56 52 48 47 47 49 49 47 33 32 40 39 40 35 27 30 29 28 27 27 30 28 29 28 29 26 26 21 26 26 25 23 9
41 43 46 48 45 45 46 46 48 49 48 50 51 53 54 51 46 47 48 49 48 47 4 19 37 37 33 24 25 26 26 27 24 28 29 23 30 30 27 25 27 24 28 27 26 23 22
41 42 42 46 47 45 46 46 46 47 47 48 50 51 54 50 50 47 48 51 50 34 7 25 33 32 23 22 24 23 24 23 29 30 30 25 31 29 26 29 29 29 26 27 29 27 20
42 40 40 43 47 46 44 45 45 46 48 47 50 52 52 51 46 50 51 50 39 28 24 26 29 24 20 20 21 23 20 21 22 23 23 27 27 30 32 27 30 27 25 21 19 19 18
42 41 40 42 44 48 45 45 45 44 46 48 48 52 53 51 50 49 52 45 32 31 27 33 26 23 19 22 22 22 21 19 20 24 25 22 20 27 30 28 26 27 24 20 15 15 18
43 42 41 41 42 45 45 45 45 44 42 47 48 50 50 52 51 47 47 37 30 31 32 20 24 21 20 20 21 22 20 18 19 22 18 23 23 32 31 33 29 26 23 26 26 30 24
44 43 42 40 41 42 47 45 45 45 42 47 45 46 48 51 51 45 42 35 34 35 37 35 22 23 20 21 20 20 19 19 18 20 22 25 17 29 32 32 31 26 27 22 24 16 16
45 43 42 41 40 42 45 44 44 45 43 46 43 41 44 51 50 41 34 35 36 36 36 36 34 25 22 20 20 19 18 18 20 21 24 30 19 22 30 26 23 25 22 22 23 20 14
45 44 42 41 40 40 44 43 43 44 44 45 41 34 49 50 41 39 33 35 36 34 36 37 38 36 30 21 19 18 17 17 20 27 22 28 24 18 21 30 29 26 24 22 18 16 24
46 44 42 41 41 42 43 43 41 43 43 43 37 39 49 47 34 34 35 33 36 33 34 35 35 35 33 23 18 20 20 29 34 26 24 32 26 19 20 23 28 26 26 27 26 24 20
46 44 42 41 41 44 45 42 41 44 45 44 38 34 43 43 38 34 33 34 35 37 34 36 38 38 34 29 25 22 26 33 35 31 30 29 28 20 17 18 23 24 25 24 25 20 19
46 44 43 41 42 45 43 42 42 41 45 44 38 32 37 36 37 36 33 33 34 34 36 33 33 36 36 31 24 28 33 34 33 33 32 27 22 24 23 21 25 23 23 25 22 22 20
46 44 42 41 42 43 42 42 42 40 43 43 34 36 39 37 37 36 34 32 32 34 34 33 29 32 29 31 30 27 31 31 29 32 30 29 23 23 22 26 25 24 24 24 25 23 23
45 43 42 42 43 43 41 41 40 41 41 39 38 41 38 35 35 35 34 31 32 33 34 34 33 34 33 34 34 32 33 31 29 29 28 27 26 23 19 25 22 20 23 24 23 24 23
44 43 42 41 42 41 41 40 40 41 40 40 39 41 39 31 36 34 33 33 31 33 31 33 32 30 36 38 37 36 36 35 35 35 32 28 26 26 20 22 16 21 25 23 23 22 22
43 42 42 42 42 41 40 40 40 41 40 39 41 42 40 35 34 36 34 35 33 32 32 31 31 29 35 37 33 33 33 32 30 35 36 33 29 25 22 21 22 23 21 20 18 20 24
42 41 41 41 41 40 39 40 41 41 39 40 40 43 42 39 35 37 36 35 33 32 32 32 38 39 41 37 32 29 29 30 30 29 34 33 32 25 25 23 22 23 24 23 24 18 25
41 41 40 40 39 39 39 40 40 40 41 41 40 41 43 38 40 39 37 36 35 32 31 34 35 42 42 35 31 26 26 31 28 29 28 32 30 29 26 25 24 24 25 23 15 14 28
39 39 39 39 38 38 40 40 41 40 40 43 39 44 43 39 39 45 44 39 38 35 32 40 40 42 39 35 32 28 28 29 28 29 27 29 30 29 26 24 25 28 27 17 21 31 31
38 38 38 39 39 39 40 41 41 42 42 42 38 42 47 40 40 43 43 45 44 39 35 42 38 39 39 36 36 34 28 31 30 25 34 25 28 29 29 28 30 32 27 31 33 31 34

GFSGBSN_sfc_30mbdewp_042.txt.gz
Dewpoint
48 50 51 51 49 50 51 54 54 54 55 59 58 57 56 55 55 55 54 53 53 52 52 52 52 52 48 31 16 45 55 54 49 37 27 25 26 27 23 22 18 16 16 24 25 39 39
49 48 49 51 50 49 49 50 52 54 54 54 58 57 56 55 55 54 54 53 52 52 52 52 53 51 43 16 29 47 49 40 37 33 27 26 28 29 28 24 20 21 29 33 38 39 37
47 48 49 49 50 51 50 51 52 53 53 54 55 58 57 56 55 54 54 53 52 52 52 52 52 49 42 16 45 40 40 36 36 34 27 28 30 28 27 25 26 26 30 35 37 36 36
47 47 48 49 48 50 50 50 50 51 52 53 53 56 57 56 55 54 53 52 52 51 52 53 51 48 29 36 43 43 42 39 35 34 28 28 30 28 28 28 26 22 26 28 34 37 37
48 47 47 49 49 48 50 49 50 50 52 52 53 54 56 57 55 54 53 51 51 52 53 52 48 47 22 36 31 35 40 35 32 31 29 28 29 29 28 24 21 24 16 17 25 36 36
46 49 46 47 49 48 48 49 48 49 50 51 51 53 55 57 55 53 51 51 51 51 51 50 47 37 25 27 35 34 40 34 30 29 28 31 29 26 27 24 17 22 22 22 22 32 33
44 46 49 47 47 48 48 48 49 48 48 50 51 52 54 56 55 52 50 45 39 43 45 38 27 20 21 36 39 31 32 32 33 30 27 34 29 26 25 26 26 26 25 23 24 23 31
43 44 46 49 46 47 47 47 48 49 48 49 51 52 54 55 55 52 50 39 40 44 40 41 40 37 35 39 39 36 30 26 29 27 33 29 27 27 29 29 29 26 23 23 24 24 25
43 43 44 46 49 46 46 47 47 48 49 48 49 52 54 55 53 51 47 42 47 48 38 33 40 40 39 41 36 34 30 30 28 28 30 26 25 31 30 26 26 24 22 23 24 25 20
43 43 43 44 46 48 45 46 47 47 48 48 48 50 53 54 50 47 43 48 49 48 29 28 37 39 41 40 30 35 30 29 28 26 30 29 29 28 28 27 25 21 26 26 25 23 18
44 43 42 42 45 46 48 46 46 47 47 49 47 49 52 52 46 46 48 48 48 46 7 18 38 40 40 26 26 28 29 28 24 27 29 25 29 29 27 26 27 23 28 27 26 24 22
45 44 43 42 42 43 47 47 44 45 46 48 47 49 51 52 50 47 49 51 49 33 10 16 34 34 30 25 24 25 25 26 29 30 31 26 31 30 28 29 28 29 26 26 28 26 20
45 45 44 43 42 42 44 48 45 44 45 47 47 48 51 51 48 50 50 48 39 27 22 21 31 28 24 22 22 22 23 22 21 21 23 27 27 29 32 27 29 27 24 20 19 20 18
45 45 44 43 43 43 43 45 47 45 45 46 47 47 51 51 50 49 50 42 31 29 22 30 27 26 20 20 21 22 20 21 22 23 23 20 17 27 31 27 25 26 24 21 15 15 16
45 45 45 44 43 42 42 44 47 45 45 46 47 47 47 50 51 48 45 35 31 31 32 23 24 22 20 20 20 21 21 20 20 24 18 22 22 31 31 32 29 26 23 25 25 29 24
45 45 45 45 44 43 41 43 46 46 45 45 43 44 42 50 52 46 40 34 34 32 37 36 19 23 20 19 19 21 20 21 19 22 23 24 17 29 31 32 31 26 29 22 24 17 16
46 45 45 45 44 43 42 43 46 46 44 44 42 38 40 51 51 44 34 33 34 36 36 35 36 33 23 21 19 20 20 20 21 21 24 26 19 20 31 27 23 26 24 23 23 20 15
46 46 45 45 45 43 42 42 44 46 43 42 40 31 47 51 41 38 35 34 34 35 37 36 37 37 34 23 21 19 19 18 21 24 20 27 21 16 18 29 29 25 24 23 20 18 23
44 46 46 45 45 43 42 42 44 46 42 40 36 36 48 46 33 35 35 34 34 35 35 35 35 36 36 26 20 21 21 22 26 23 22 28 22 15 16 22 28 26 26 26 25 24 20
43 44 46 46 46 44 42 42 42 46 43 40 37 30 40 42 36 33 32 31 32 35 34 35 36 37 34 31 28 21 20 30 34 26 29 28 25 17 14 15 21 24 25 27 25 22 21
43 43 44 46 46 44 42 41 44 46 44 40 38 30 36 33 34 34 31 31 32 29 34 35 34 35 34 29 29 26 30 33 33 35 31 26 19 24 21 22 23 23 24 25 24 23 21
43 43 42 46 45 44 42 41 43 44 43 38 35 33 36 34 33 33 33 30 31 31 34 32 32 33 35 34 31 27 32 32 28 33 30 30 23 23 23 25 25 24 24 25 25 24 23
43 43 42 46 45 44 42 41 42 42 42 37 41 39 36 32 33 32 31 30 30 33 32 35 33 31 32 32 32 31 33 33 32 31 30 27 25 23 20 25 23 21 23 24 23 25 24
43 43 42 45 44 43 42 42 43 43 42 38 41 38 35 31 34 31 30 32 31 32 31 33 35 34 34 38 37 37 35 36 34 35 33 27 25 23 20 22 17 21 26 25 25 25 25
43 43 43 45 44 43 43 44 43 43 42 40 41 40 36 31 34 34 32 31 33 33 33 33 34 34 34 33 31 33 33 31 32 36 34 32 26 23 20 20 21 22 22 22 20 18 23
42 43 44 44 43 42 43 43 42 42 42 39 40 41 40 36 30 35 32 33 32 31 32 34 35 35 36 34 29 26 29 29 29 31 33 31 29 22 23 19 17 22 25 23 22 16 25
42 44 44 43 43 42 43 43 41 42 42 38 36 41 38 36 40 36 33 33 35 32 32 32 34 38 40 31 31 29 29 32 28 27 30 30 29 22 23 22 25 27 24 23 16 17 26
44 43 43 43 43 42 42 40 40 41 42 38 36 41 38 38 39 43 42 36 35 35 32 34 32 35 39 33 33 32 29 30 30 30 31 29 29 28 26 25 24 26 25 19 22 27 28
42 43 43 42 42 41 41 41 41 41 41 39 35 41 42 38 40 43 42 42 40 40 35 37 33 36 35 36 35 32 30 31 29 27 31 29 30 29 30 29 31 30 25 27 29 29 30

GFSGBSN_sfc_30mbdewp_045.txt.gz
Dewpoint
48 47 48 48 48 48 48 48 49 52 53 54 54 56 58 57 56 56 55 54 53 53 52 52 52 52 48 28 16 49 57 54 48 39 26 24 25 27 24 23 20 20 18 21 27 39 40
48 48 48 48 48 47 47 48 48 50 52 53 53 54 56 58 57 56 55 54 53 52 52 52 53 52 42 15 36 49 48 42 38 32 26 27 28 29 28 26 20 22 26 33 38 39 39
49 47 48 49 49 47 46 48 48 49 50 52 53 53 54 57 57 56 55 54 53 52 52 52 53 49 41 19 43 42 41 36 36 32 23 26 30 29 28 26 26 27 27 34 37 37 37
46 50 48 48 48 48 47 47 48 47 49 50 52 52 53 54 56 56 55 54 53 52 52 53 52 48 28 34 42 43 41 37 38 35 28 28 31 29 29 29 26 22 27 26 31 37 38
44 45 48 50 47 48 48 47 46 48 48 49 51 51 51 53 55 56 55 53 52 52 53 52 48 47 22 32 28 32 38 32 35 34 31 29 30 29 29 24 21 25 18 19 21 37 37
43 44 45 48 50 47 48 48 46 47 48 48 49 50 51 53 54 56 53 51 51 51 51 50 47 37 28 22 32 36 41 36 31 29 28 32 30 27 27 24 15 22 21 23 22 33 34
42 41 42 44 46 49 47 48 47 46 47 47 47 50 51 53 54 55 51 47 36 41 47 37 34 26 17 33 41 33 36 34 32 30 27 34 29 26 25 26 25 25 25 23 24 24 32
45 44 43 43 44 45 48 48 48 47 46 46 47 48 51 53 54 53 50 45 39 44 40 42 41 38 35 38 37 37 32 29 30 27 33 30 27 28 29 29 28 27 24 23 24 24 25
45 45 45 43 42 42 44 48 47 47 46 46 46 47 49 53 54 51 49 46 47 48 43 37 40 39 38 38 35 35 29 29 26 27 30 27 25 31 30 27 27 26 23 24 24 25 22
44 45 45 45 44 44 43 46 49 46 46 45 47 47 48 53 50 48 46 48 49 49 32 24 33 37 41 40 31 37 30 29 29 24 30 29 30 28 29 27 26 23 24 26 25 24 18
45 45 45 45 45 44 43 44 47 47 46 46 45 47 47 53 47 45 46 49 49 45 13 21 38 41 41 31 26 32 31 28 27 28 29 25 27 28 27 26 27 24 28 27 27 25 23
46 45 45 45 45 44 43 43 47 48 46 45 45 47 47 50 51 48 49 51 48 36 16 14 36 36 36 32 25 26 26 30 30 30 30 26 31 30 29 29 28 29 27 26 28 26 20
46 46 46 46 45 45 44 43 44 46 47 45 44 47 48 50 45 50 50 47 37 30 23 17 32 31 29 24 23 25 24 26 24 22 24 27 28 29 31 28 30 28 25 20 20 21 18
46 46 46 46 46 46 45 44 43 44 47 45 44 47 47 48 51 49 49 41 30 29 24 27 27 28 24 22 22 22 23 22 24 21 22 19 16 27 31 27 26 27 25 21 15 17 17
46 46 46 46 46 46 45 44 43 43 46 46 45 45 45 47 50 49 44 34 29 31 31 24 23 25 23 20 21 22 23 23 23 24 18 21 20 28 31 31 28 26 24 26 25 28 23
45 46 46 46 46 46 46 45 44 43 46 46 42 42 42 46 50 47 39 32 34 33 35 36 21 24 23 19 20 21 22 22 22 25 24 24 18 29 31 32 32 27 29 24 25 19 18
45 45 46 46 46 46 46 45 44 44 45 46 41 37 39 46 50 43 32 32 33 35 36 33 36 34 24 21 20 21 21 21 22 22 24 26 20 21 30 28 24 28 25 24 24 22 16
44 45 45 46 46 46 46 45 44 43 45 45 39 31 41 46 37 37 32 32 34 33 36 36 37 36 35 24 21 21 21 21 23 24 22 26 22 17 20 29 29 27 26 25 21 19 23
40 43 44 45 46 46 46 45 44 43 44 42 35 33 44 43 30 32 32 33 32 32 33 35 35 36 37 31 20 21 22 23 25 23 22 27 21 16 16 23 28 27 26 26 26 25 22
41 42 43 43 45 46 47 46 44 43 44 42 36 29 37 39 35 29 31 31 31 33 34 35 36 37 34 30 30 23 23 27 27 24 28 26 23 18 15 16 22 23 26 27 26 23 23
42 42 42 42 44 45 47 46 44 43 44 41 37 30 33 31 32 32 31 29 31 31 33 35 34 34 34 28 29 26 28 33 34 34 29 24 19 22 19 18 22 20 23 26 25 25 23
42 42 43 42 43 44 45 45 44 43 44 39 34 31 35 32 32 31 32 30 29 31 30 31 32 34 33 33 29 30 30 31 30 34 30 29 21 24 20 25 23 21 24 26 26 25 25
43 43 44 43 43 44 46 45 44 43 44 38 38 37 31 32 31 29 28 30 30 32 32 31 33 32 34 34 34 35 34 32 31 31 31 29 25 23 20 25 23 22 24 25 25 26 25
43 42 42 43 43 44 46 45 44 43 42 39 38 35 32 29 31 29 28 30 30 31 28 31 33 30 32 36 37 37 35 36 36 35 33 29 27 25 21 23 20 23 26 25 24 25 26
43 43 42 42 43 43 46 44 43 44 42 40 40 37 33 28 32 31 30 29 32 32 32 30 35 36 37 32 30 32 29 31 34 36 34 31 27 23 22 21 22 21 23 22 20 18 23
42 42 43 43 40 42 45 43 43 43 42 41 40 41 39 30 30 33 32 30 30 30 32 33 36 36 37 33 28 25 25 29 29 31 33 31 29 26 23 20 19 22 24 25 22 19 22
43 43 43 42 41 45 44 43 43 43 42 39 41 41 39 35 35 36 32 31 32 32 32 34 34 34 35 31 30 26 24 33 29 28 31 28 27 24 23 21 23 26 25 24 19 20 23
43 43 42 42 45 44 43 43 42 42 42 38 40 41 38 36 38 40 41 35 33 32 30 34 33 34 37 31 31 31 30 30 29 31 31 28 26 24 24 23 21 28 24 21 25 25 27
43 43 44 44 44 43 43 42 42 42 41 40 36 42 41 37 37 42 43 43 40 35 33 36 31 33 34 33 32 32 31 31 31 27 31 30 29 26 26 26 32 28 27 27 27 26 30

GFSGBSN_sfc_30mbdewp_051.txt.gz
Dewpoint
47 48 51 50 49 49 48 48 49 49 49 49 50 50 50 53 54 55 58 57 56 55 55 54 53 53 48 34 26 43 53 55 39 36 24 24 23 21 18 14 16 17 17 18 21 26 34
46 46 47 48 50 49 48 49 49 47 47 48 49 49 50 52 53 54 55 57 57 56 55 54 53 52 43 29 25 34 43 43 33 31 23 24 24 24 23 20 18 20 20 20 25 28 28
44 45 46 47 47 48 51 48 48 47 46 47 47 48 50 51 51 51 53 54 56 56 55 54 53 48 38 30 29 31 38 33 29 26 23 24 27 25 25 20 19 21 20 21 25 28 27
44 44 45 46 46 47 48 50 49 47 47 46 47 47 48 50 49 50 52 53 55 56 54 53 53 46 35 31 27 34 35 31 29 26 25 26 29 28 25 23 20 14 15 15 37 28 29
47 45 44 45 46 47 47 48 49 49 47 46 45 46 47 48 49 50 52 53 55 55 52 52 49 44 32 35 27 27 35 29 28 28 29 28 28 24 24 19 15 14 9 15 27 24 28
42 44 48 46 46 46 46 46 46 49 50 47 46 45 46 47 49 50 52 54 53 52 50 48 45 40 36 25 20 19 35 33 30 30 29 27 24 23 22 17 11 9 10 11 10 30 24
43 43 44 45 48 47 45 45 45 47 49 49 47 45 46 47 48 51 53 47 45 46 44 30 31 24 20 24 31 23 27 34 29 29 25 25 23 21 21 19 16 15 13 10 16 24 24
45 45 44 45 44 45 46 45 44 45 48 49 49 46 46 47 47 50 53 41 37 45 34 33 36 33 33 30 27 22 31 30 27 25 25 25 23 22 24 23 21 17 17 13 20 21 22
47 47 46 46 46 46 43 45 46 45 45 47 47 47 46 47 47 49 48 41 43 47 35 22 25 29 28 31 28 21 30 29 26 25 23 23 22 25 24 22 18 17 18 19 20 28 18
46 47 47 47 46 46 46 46 46 46 45 45 47 48 46 46 44 41 40 41 42 49 28 12 29 30 30 28 28 26 26 27 25 23 23 23 23 25 23 22 19 16 19 21 19 17 14
47 47 47 47 47 47 46 46 46 46 46 45 48 48 46 46 44 42 42 44 49 48 0 14 23 32 30 28 22 25 23 23 22 22 22 21 22 24 23 23 21 19 24 21 19 19 18
47 47 47 47 47 47 47 46 46 46 46 46 47 48 46 44 44 45 47 49 50 28 7 14 30 30 32 29 23 20 23 23 21 21 20 20 23 24 24 24 24 23 24 22 22 19 18
47 47 47 47 47 47 47 47 46 47 46 46 46 47 47 42 38 42 48 50 27 12 5 10 25 29 29 27 21 20 21 20 18 18 19 20 22 24 25 24 27 24 21 20 19 16 19
48 48 47 47 47 47 48 47 47 47 47 46 46 47 45 43 42 44 46 41 16 7 7 21 20 27 27 24 24 22 23 18 19 19 19 18 16 22 24 22 25 22 21 22 21 20 19
48 48 48 47 47 47 47 48 47 47 47 46 46 43 44 44 43 44 41 31 20 10 4 9 20 26 25 22 22 21 20 18 18 19 16 16 16 18 20 23 22 23 20 22 21 26 22
47 48 48 47 47 47 47 48 47 47 47 46 43 36 37 44 44 43 36 32 23 15 5 14 12 24 22 20 19 20 19 18 18 18 18 17 16 18 21 23 23 23 27 21 23 21 20
47 47 48 48 47 47 47 47 47 47 47 46 42 37 34 44 44 40 30 29 28 19 12 11 15 15 22 24 18 18 20 19 18 19 19 18 18 19 26 25 22 24 25 24 23 22 24
48 48 48 48 47 47 47 47 47 47 47 45 40 32 36 43 35 35 30 29 24 26 22 19 21 27 14 23 22 16 17 18 21 21 21 19 19 20 23 23 23 23 23 24 22 22 21
43 43 43 43 45 48 48 47 47 47 47 43 36 35 41 42 28 31 30 26 19 22 21 19 23 27 26 25 25 22 18 20 22 23 23 21 18 18 19 23 25 24 25 24 25 24 22
43 43 43 43 44 44 45 46 47 47 47 43 37 30 37 39 33 28 26 25 21 23 22 20 26 24 23 29 27 26 22 26 23 24 26 26 20 19 17 18 20 20 20 20 21 23 22
43 42 42 42 42 43 43 44 46 46 48 43 37 31 34 30 32 27 25 21 16 16 24 23 24 30 22 21 23 26 27 32 29 28 27 27 20 19 18 17 16 16 17 18 18 20 20
42 42 43 43 43 43 43 43 45 47 47 41 32 31 32 30 33 29 26 21 18 15 19 22 24 31 29 22 23 25 29 27 25 30 27 26 23 21 17 17 16 14 14 13 13 15 17
42 42 43 44 44 43 43 43 45 46 46 39 38 32 29 27 31 27 28 23 18 14 18 18 21 23 29 26 34 36 35 34 34 32 27 27 26 21 20 18 17 18 16 15 14 14 16
44 44 44 44 44 44 43 43 44 45 46 38 39 30 31 26 32 28 25 24 19 15 17 17 16 20 27 35 35 34 33 29 34 33 32 31 27 25 24 25 21 21 20 19 18 18 17
43 43 44 44 44 44 43 43 43 46 45 40 38 34 32 28 26 28 25 23 21 19 22 19 18 20 25 32 29 27 29 28 30 34 30 32 32 28 27 24 20 18 21 21 18 17 17
44 44 43 44 43 45 44 44 43 43 45 42 38 37 36 31 26 26 24 24 21 22 23 26 24 30 33 32 27 20 15 13 12 27 33 29 33 33 30 24 20 22 22 22 20 20 19
43 43 43 43 43 43 43 44 43 43 45 42 40 39 39 32 26 28 27 26 23 25 29 29 29 33 32 33 30 21 18 14 12 26 35 33 34 34 32 27 23 22 21 22 22 22 22
42 42 42 43 44 44 44 44 43 44 45 42 40 41 40 35 32 33 34 33 26 25 26 30 26 34 34 32 26 21 21 20 16 17 32 33 30 34 33 30 27 27 26 23 26 27 28
42 43 44 43 43 43 44 43 42 43 45 42 39 42 42 38 39 41 41 41 39 30 27 29 34 31 31 26 24 23 26 31 22 21 20 28 33 31 30 29 32 31 28 28 26 27 31

GFSGBSN_sfc_30mbdewp_054.txt.gz
Dewpoint
47 47 46 48 49 51 50 49 48 47 46 47 47 49 50 49 51 53 54 54 55 57 57 56 56 55 48 36 34 47 51 46 37 33 30 20 20 19 18 17 13 14 15 14 17 19 26
45 45 47 47 47 47 48 51 51 48 47 45 45 46 47 49 50 51 51 52 53 55 56 56 55 54 47 34 32 36 40 46 33 30 27 20 22 23 22 21 17 16 17 17 18 21 26
45 45 46 47 48 47 47 48 49 51 48 45 45 46 47 47 49 50 50 50 52 54 55 56 55 51 45 39 32 29 33 40 32 27 23 20 22 24 23 23 20 16 15 17 21 22 25
46 47 46 46 47 48 48 47 49 49 51 49 46 44 45 46 46 49 50 50 51 53 55 55 53 49 40 36 34 32 31 32 29 26 23 23 24 25 26 25 22 19 14 11 21 26 27
44 44 45 48 47 47 48 48 48 48 48 49 49 46 44 44 46 47 49 50 51 53 55 54 50 47 33 33 34 30 29 28 27 25 24 25 26 25 23 21 17 15 12 10 23 28 30
43 44 45 45 45 48 47 47 48 48 48 48 48 49 46 44 44 47 49 49 49 53 52 50 47 36 36 25 27 29 26 30 26 23 25 25 24 21 21 19 15 13 12 13 10 24 23
43 44 45 46 46 46 45 48 47 47 47 48 49 49 48 46 46 47 47 46 42 49 48 38 32 25 13 30 22 21 22 30 29 26 23 24 21 18 20 21 22 18 14 12 20 26 25
46 46 46 46 46 46 44 44 47 47 46 46 49 47 49 46 47 47 46 43 31 42 37 34 40 38 33 32 25 25 19 29 28 24 25 22 21 22 22 23 22 19 16 14 15 23 20
47 47 47 46 46 46 46 46 46 45 47 46 46 47 46 47 47 45 42 43 41 40 36 26 23 20 27 29 28 26 19 27 27 23 23 22 22 25 22 23 20 17 14 13 20 25 22
47 47 47 47 46 47 47 47 47 46 45 47 46 47 46 47 42 39 36 41 42 41 33 14 8 17 17 24 24 28 22 24 25 21 22 22 23 24 24 22 20 16 14 16 21 21 16
47 47 47 47 47 48 48 48 47 47 47 47 47 48 47 47 41 43 46 48 43 47 7 2 10 27 21 22 23 23 26 25 24 23 23 22 22 22 22 21 22 19 24 22 17 16 15
46 47 47 48 48 48 48 48 48 47 47 47 47 47 47 46 44 42 45 48 48 31 10 8 27 26 25 24 24 23 24 24 24 24 23 21 22 22 21 23 22 22 22 23 21 19 18
47 47 47 47 48 48 48 48 48 48 47 47 47 47 46 41 40 40 46 48 32 16 5 0 22 27 25 25 25 24 23 21 20 20 21 20 19 20 23 21 23 22 21 20 19 18 19
46 47 47 48 48 48 48 48 48 48 47 47 47 47 44 40 44 43 46 40 15 8 14 14 13 25 25 26 26 26 25 21 22 20 19 18 17 18 23 23 23 24 22 21 22 24 23
47 47 47 48 48 48 48 48 48 48 48 47 47 45 42 42 43 44 41 29 17 10 9 12 12 18 24 26 24 24 21 22 22 21 18 18 17 18 23 23 22 24 21 22 21 29 27
46 47 47 47 48 48 48 48 48 48 48 47 45 42 41 42 45 43 36 30 24 14 9 12 10 15 20 25 23 22 19 21 22 22 21 20 19 20 20 22 22 21 26 22 20 23 23
46 46 47 47 47 47 48 48 48 48 48 47 44 38 38 41 44 39 29 30 27 20 16 12 15 10 9 18 22 21 21 21 23 21 20 21 21 20 18 19 19 20 21 27 25 21 22
45 46 46 47 47 47 48 48 48 48 48 47 41 32 40 42 35 36 29 30 27 22 20 19 19 16 14 15 24 22 19 21 22 22 19 21 21 19 19 20 21 20 22 24 25 23 25
45 45 46 46 47 48 48 48 48 48 48 45 37 36 39 40 29 31 32 25 26 25 18 17 18 18 21 23 29 25 30 21 23 21 21 22 21 20 18 21 23 21 22 24 25 25 26
45 45 47 45 45 44 44 48 49 48 48 45 37 31 36 39 34 30 28 27 24 25 23 18 19 21 22 29 31 31 29 24 25 22 25 25 23 21 20 26 24 21 21 26 26 26 27
45 45 44 44 44 44 44 45 47 49 48 45 37 32 35 30 32 30 30 24 24 23 22 21 17 19 20 25 32 32 33 31 28 26 25 27 24 25 21 20 21 22 21 21 22 21 29
44 44 44 44 44 44 43 43 46 48 48 43 32 34 32 28 32 30 29 27 22 21 20 17 17 17 20 23 31 31 39 30 31 27 26 27 25 25 24 20 20 18 19 18 18 17 17
42 41 41 42 42 42 42 43 43 44 46 41 38 38 32 29 31 30 28 28 25 23 21 17 16 20 19 24 32 41 42 42 38 28 28 28 27 24 23 23 20 17 18 17 16 18 16
42 42 42 42 42 42 43 43 43 43 43 41 37 38 35 29 32 29 27 27 25 23 23 19 17 18 22 31 43 43 40 39 39 34 34 29 27 26 26 25 20 21 21 19 18 18 17
42 43 43 43 43 44 43 43 44 43 43 42 41 38 34 32 28 29 27 25 26 25 24 22 19 17 23 34 33 35 34 34 35 33 33 32 33 30 26 25 24 21 22 21 20 19 19
44 44 44 44 45 45 44 44 44 44 43 43 42 40 37 32 32 27 27 26 25 26 27 24 24 23 23 22 29 28 28 28 26 26 32 32 33 33 29 26 24 26 25 22 23 20 22
44 43 43 44 44 44 44 44 44 44 44 43 42 40 39 35 35 29 26 29 28 27 26 25 23 26 30 24 23 26 22 19 18 22 24 29 32 33 33 30 27 24 25 24 21 23 25
42 43 43 44 44 44 44 44 44 44 43 43 41 42 39 36 36 35 38 34 31 29 28 26 28 33 35 30 27 26 23 21 15 15 29 29 30 32 33 32 29 28 26 23 26 28 29
43 43 43 43 43 44 44 44 44 44 43 44 40 42 43 39 39 42 42 45 42 36 34 29 31 32 35 36 28 29 25 24 19 19 25 27 29 32 31 30 37 34 29 31 30 32 32

GFSGBSN_sfc_30mbdewp_057.txt.gz
Dewpoint
46 47 47 47 47 47 48 49 51 51 49 46 45 46 45 47 49 50 51 51 51 52 54 55 57 56 52 42 39 46 45 46 39 32 32 28 25 17 17 16 18 19 14 16 18 17 26
46 46 46 46 47 47 47 47 49 49 49 49 46 45 45 46 46 47 50 50 50 50 52 54 56 55 50 37 40 45 43 44 35 31 30 30 24 21 22 23 21 21 18 16 16 17 23
45 47 48 48 48 48 47 49 49 49 49 49 49 46 44 45 45 45 47 49 50 50 51 53 56 53 48 38 40 36 38 43 40 33 29 28 23 20 24 24 27 25 21 19 16 22 28
45 45 45 46 48 48 48 48 49 48 49 49 49 48 48 44 44 44 45 48 49 49 50 53 55 51 44 41 41 41 39 37 39 36 30 27 24 23 24 26 25 22 20 17 17 21 32
43 44 45 46 46 47 48 48 49 48 48 49 49 48 47 47 44 44 45 48 48 49 50 53 52 48 42 38 37 37 35 32 32 32 28 24 25 25 26 24 22 21 17 16 16 23 32
43 44 45 46 46 47 47 46 49 49 49 49 49 49 49 49 47 46 46 47 47 48 51 52 50 43 44 29 31 34 34 30 30 27 25 24 24 23 23 21 18 19 19 15 16 25 34
42 44 44 45 46 47 45 46 47 47 49 48 48 49 49 49 48 47 47 44 43 47 49 45 41 35 26 30 33 26 31 26 29 26 21 24 23 21 21 21 21 21 21 17 17 25 24
43 44 44 45 46 47 47 47 47 46 46 48 47 48 48 47 48 48 47 41 42 43 39 42 45 41 38 41 34 32 25 23 28 27 23 23 22 24 23 21 21 23 20 17 17 28 24
44 46 46 46 46 46 46 47 47 47 47 47 48 47 48 47 48 46 41 40 40 39 38 33 34 31 32 32 36 32 25 22 28 28 25 23 24 24 23 22 22 22 20 17 16 24 24
45 46 47 46 46 47 47 47 47 47 47 47 47 48 46 46 43 42 39 46 47 43 36 28 16 25 25 23 30 33 31 21 28 26 27 25 25 24 23 23 23 20 21 17 15 21 20
45 46 47 47 48 48 48 48 48 48 48 48 47 47 47 46 43 41 42 42 44 46 -17 8 12 20 18 19 23 25 29 28 24 26 26 23 23 24 23 24 24 21 24 24 22 21 16
45 45 46 47 47 48 48 48 48 48 48 48 48 47 47 45 46 44 44 42 48 35 19 12 25 22 16 17 19 23 25 28 24 23 25 24 24 23 23 24 24 23 23 22 24 23 18
46 46 46 47 47 47 48 48 48 48 49 48 48 47 47 43 40 44 46 43 34 22 -1 -4 24 25 25 20 16 18 21 20 22 22 23 24 24 23 23 22 23 22 21 20 20 20 19
45 46 46 47 47 47 48 48 48 48 48 48 48 48 47 43 42 42 44 38 26 14 10 11 12 19 26 25 23 20 20 22 22 22 22 22 21 23 22 21 22 22 22 21 18 21 20
45 45 46 46 47 48 48 48 48 48 49 48 47 47 45 44 43 44 40 29 22 19 12 6 3 7 18 25 26 24 24 23 24 22 20 21 21 22 21 22 23 25 22 24 22 28 27
44 45 46 47 47 47 48 48 48 48 49 48 45 44 41 44 45 41 35 29 28 27 19 16 10 12 14 21 26 26 26 26 26 25 22 22 20 22 21 21 24 23 26 23 23 20 21
44 45 46 46 47 47 47 48 49 49 49 48 44 38 41 44 44 38 29 27 25 28 25 18 13 10 11 14 18 25 25 24 26 25 23 21 22 21 23 21 22 22 21 22 27 27 22
43 44 45 45 46 46 47 47 48 49 49 48 42 33 41 43 34 33 29 29 28 24 27 26 22 19 19 19 19 20 26 31 26 24 23 23 22 20 21 23 23 23 21 22 26 26 27
42 43 44 44 45 45 46 47 48 48 48 45 38 37 42 40 28 28 31 30 30 28 26 24 23 19 20 19 19 32 32 32 36 33 23 24 20 20 21 21 22 21 21 23 24 30 27
42 43 44 44 45 45 46 47 46 48 48 46 37 30 36 38 33 28 27 29 29 29 28 27 25 23 19 20 21 29 32 34 39 38 30 26 21 19 20 22 23 22 21 22 24 23 23
43 43 43 44 45 45 46 46 47 48 48 46 36 32 35 30 31 31 27 26 27 28 26 24 23 24 23 19 21 23 33 38 39 37 33 26 21 20 22 24 24 24 25 23 22 25 26
43 43 44 44 45 47 46 46 45 45 46 44 32 33 35 28 32 31 30 28 26 24 26 24 22 22 23 21 19 23 35 38 38 41 38 31 23 22 20 22 24 24 26 25 22 26 27
43 44 44 45 45 45 45 44 45 45 45 42 39 37 33 31 31 30 29 28 28 27 26 25 24 23 22 22 24 40 42 42 41 39 39 36 27 26 22 24 23 23 22 24 25 23 22
43 43 42 42 43 43 44 44 44 44 45 41 39 38 34 31 30 29 29 29 29 29 28 26 25 23 22 38 43 41 39 38 38 38 42 38 35 29 24 25 21 24 23 22 21 22 20
42 42 42 42 42 42 42 42 43 43 43 42 40 39 35 30 32 29 29 28 28 29 28 28 26 26 24 20 23 28 32 32 33 36 38 40 37 29 26 25 24 24 23 22 20 21 21
42 42 43 43 43 43 43 43 42 43 43 42 42 41 39 33 32 30 29 29 27 28 28 27 29 30 29 20 23 20 23 28 28 30 38 37 39 30 32 26 22 26 28 29 26 20 24
43 44 44 45 45 44 44 44 43 43 43 42 40 41 38 32 35 33 28 28 29 28 27 27 28 29 30 24 23 23 26 30 25 24 25 30 32 32 32 31 31 29 27 28 22 23 25
44 44 44 44 44 44 44 44 45 44 44 43 41 42 38 35 37 34 36 36 31 30 27 30 29 30 29 24 23 24 23 25 26 25 28 28 28 27 31 31 28 36 33 23 26 26 28
44 44 43 43 44 44 44 44 45 45 44 44 40 43 41 38 39 43 43 41 42 40 35 31 29 28 31 29 28 27 24 25 23 20 27 26 26 28 27 29 37 35 38 40 40 40 36

GFSGBSN_sfc_30mbdewp_060.txt.gz
Dewpoint
47 47 47 47 47 47 48 48 49 50 49 49 49 48 46 46 46 46 46 48 50 50 50 49 52 55 53 44 40 42 44 46 39 31 25 24 25 23 15 16 19 20 21 20 17 24 37
46 47 48 48 48 47 47 47 49 49 50 50 49 49 49 45 46 45 46 47 48 49 50 50 51 55 51 35 34 40 45 42 34 29 29 29 25 24 20 21 24 24 26 24 21 19 37
45 45 46 47 47 48 49 49 49 49 49 50 50 49 48 48 47 45 46 46 47 48 49 49 50 53 46 38 39 38 42 42 40 33 29 29 28 28 22 21 27 25 22 21 21 19 30
44 45 45 46 47 48 48 49 49 49 49 49 49 50 49 48 47 48 46 47 47 47 48 49 51 52 41 42 44 44 43 41 38 40 33 31 30 26 23 25 24 23 22 18 19 18 28
43 44 44 46 47 47 48 48 48 49 49 49 49 49 49 49 49 49 48 48 48 48 48 50 50 48 39 44 43 41 39 33 34 36 37 33 30 26 25 22 21 22 16 19 20 21 23
43 44 44 45 46 47 47 48 48 48 49 49 49 49 49 50 49 48 48 47 45 48 48 52 51 42 40 20 34 34 36 33 30 31 31 29 24 22 23 22 14 16 20 20 19 21 32
44 42 43 45 45 45 46 47 48 48 48 48 49 49 47 48 47 48 48 42 35 43 48 44 44 38 28 30 38 33 34 32 29 28 25 24 21 19 22 22 22 21 20 20 21 27 28
43 41 42 44 44 45 46 47 48 48 48 48 48 49 47 48 47 48 47 40 39 39 33 38 43 44 42 40 37 36 33 29 26 24 25 22 20 22 23 23 22 21 20 20 20 23 25
42 40 41 43 45 46 46 47 48 48 48 48 48 48 48 47 46 44 43 40 39 43 38 34 36 36 38 40 38 34 34 27 24 26 25 22 22 23 24 23 22 21 20 21 19 19 25
38 42 44 44 45 46 47 47 48 48 48 48 48 47 48 46 40 42 41 42 42 43 27 19 26 24 27 31 33 31 28 25 24 25 28 24 24 23 24 23 23 21 23 22 21 19 18
42 44 45 45 45 47 48 48 48 48 48 49 48 48 47 46 40 38 41 42 44 44 -28 -9 19 26 28 23 21 26 27 29 20 26 27 27 25 25 24 24 24 22 25 23 24 22 19
42 44 44 46 46 47 47 48 48 48 48 49 49 48 47 46 45 44 43 44 46 31 1 12 18 20 22 21 19 25 28 30 27 25 27 27 27 25 25 25 25 25 24 23 25 23 19
43 44 44 45 46 47 47 48 48 48 48 49 49 48 47 44 38 43 42 44 32 23 10 -6 22 21 17 18 15 17 19 24 24 21 20 23 25 26 25 22 24 24 21 19 19 19 18
42 43 44 45 46 46 47 47 48 48 48 48 47 48 47 46 43 42 42 38 24 19 7 10 10 6 24 19 15 15 18 16 25 23 21 18 19 23 25 24 22 23 22 19 17 19 19
41 42 43 44 45 46 47 47 48 48 48 47 47 46 45 45 45 42 38 29 23 20 17 12 7 5 3 18 25 18 19 18 20 24 21 22 21 24 24 25 23 23 21 24 21 29 26
40 41 43 43 44 46 47 47 48 48 48 48 45 44 42 44 44 40 33 28 27 25 22 23 14 11 11 11 22 25 28 26 22 23 24 22 20 23 23 24 23 23 26 23 25 19 19
41 42 43 43 44 45 46 47 47 48 48 48 45 38 42 44 43 37 27 28 27 27 28 25 20 16 16 15 18 21 26 26 29 27 25 24 22 21 23 22 21 23 23 25 25 25 21
41 42 42 43 43 44 46 47 48 48 47 47 43 33 43 43 33 32 28 28 29 27 28 28 25 24 21 20 20 20 20 23 33 37 31 26 23 21 20 22 24 22 22 23 22 25 27
41 42 42 43 43 44 45 46 47 48 47 45 38 36 42 39 27 28 27 27 29 28 27 26 26 25 21 20 18 22 26 27 38 36 37 37 24 21 20 21 22 21 23 23 24 26 23
40 41 43 44 44 44 45 45 46 47 48 46 36 30 37 38 33 28 27 26 27 29 28 28 28 27 24 23 22 19 24 28 37 38 41 39 33 27 20 20 22 21 22 23 23 22 23
41 42 42 43 43 44 44 45 46 47 47 46 34 32 35 30 31 31 29 26 24 25 29 29 28 26 26 24 22 19 23 37 36 40 39 40 34 28 26 22 21 24 23 24 22 24 22
41 42 42 42 43 44 44 45 46 46 47 43 31 33 36 31 32 32 29 26 26 26 27 27 25 22 22 24 23 20 22 23 33 37 34 39 34 34 26 25 21 20 24 25 24 24 25
42 42 43 43 44 44 44 45 46 46 46 41 41 38 34 32 33 31 29 27 27 27 27 28 27 26 24 23 23 24 36 40 41 35 34 34 35 32 29 23 22 22 23 24 26 27 26
42 43 43 44 44 44 45 45 45 47 46 41 40 39 35 30 30 31 28 29 27 28 27 25 25 26 26 27 39 41 38 39 39 40 38 34 33 34 31 28 23 24 26 25 25 25 26
43 43 42 42 43 43 44 45 45 46 46 42 42 39 36 31 32 29 28 28 29 28 28 29 30 29 30 26 26 23 25 25 31 37 40 39 35 31 29 30 26 28 28 27 26 24 25
41 42 42 42 42 42 42 43 44 43 44 44 41 41 37 33 32 31 28 29 27 28 28 29 30 31 30 27 24 19 15 21 24 34 39 37 36 31 30 26 26 26 28 28 27 22 24
41 41 41 42 43 43 43 43 42 42 42 42 42 41 38 31 35 34 29 29 29 29 27 28 29 29 30 26 25 23 21 22 19 23 29 31 31 29 29 28 31 33 37 28 24 23 27
43 43 43 43 44 44 44 44 43 43 43 42 39 42 38 33 34 38 35 31 30 29 27 29 28 30 30 26 26 24 23 26 28 27 26 24 25 26 29 28 28 37 37 30 35 38 40
44 44 44 44 44 44 45 45 44 45 43 42 38 42 42 37 36 40 39 42 34 33 30 31 28 28 30 29 28 25 22 26 25 23 26 25 26 24 27 27 31 39 36 41 41 37 39

GFSGBSN_sfc_30mbdewp_063.txt.gz
Dewpoint
47 48 49 49 49 48 48 47 48 49 49 50 50 49 48 49 48 47 47 47 47 47 47 48 49 50 52 42 34 41 46 48 42 29 23 23 24 23 19 15 18 18 20 23 24 23 30
46 46 46 47 47 47 48 49 49 49 50 50 50 50 50 48 48 49 49 47 47 47 48 47 48 50 48 29 31 39 46 44 32 29 28 26 21 25 22 20 22 24 25 24 23 24 42
43 44 45 46 47 47 47 48 49 49 50 50 49 49 50 49 48 49 49 49 48 48 48 47 48 49 44 33 39 38 36 38 38 32 28 29 28 26 25 22 25 25 21 22 21 21 34
44 45 43 46 46 47 48 48 48 48 49 50 49 50 49 49 49 50 49 49 49 49 48 48 49 50 41 43 43 43 42 38 38 34 32 33 30 27 25 24 24 22 22 18 19 19 25
43 45 45 45 46 47 48 48 48 48 48 49 49 50 49 49 49 49 48 48 48 48 48 49 48 47 36 43 42 43 41 33 30 36 37 36 31 28 25 23 21 22 15 16 16 21 23
43 43 45 44 45 46 46 47 48 48 49 49 49 49 49 48 48 47 47 48 47 48 47 49 50 40 36 18 31 36 41 36 27 32 34 33 29 23 24 22 14 17 18 20 19 21 28
43 43 44 43 43 44 45 45 47 48 49 49 49 48 49 48 48 47 46 43 34 40 41 36 40 38 33 35 39 36 38 33 29 30 27 27 25 22 21 22 22 20 20 19 20 21 27
42 42 42 42 42 43 45 46 48 48 49 49 49 48 48 48 48 47 45 40 37 40 37 39 36 38 42 43 38 30 35 30 27 25 27 25 22 23 22 23 22 22 21 19 21 22 26
41 42 41 40 41 43 45 45 48 48 48 49 49 48 48 48 48 42 42 41 41 41 38 38 33 28 23 39 37 31 31 29 25 25 25 25 23 23 22 22 21 21 20 19 19 21 23
41 42 40 38 41 43 45 46 47 48 48 49 49 49 48 47 40 41 41 42 40 43 32 17 29 27 28 35 35 34 28 27 26 23 25 25 26 23 22 21 23 20 22 22 22 21 18
42 41 40 42 43 45 46 47 47 47 48 48 48 49 48 47 39 37 40 41 42 43 -19 -8 22 26 29 25 17 26 29 27 24 25 26 26 26 24 22 23 24 22 23 23 24 22 20
42 40 41 42 43 45 46 47 47 47 48 48 49 49 48 46 46 44 44 42 45 30 1 3 18 25 26 25 21 28 26 28 26 23 26 26 28 26 25 25 25 25 25 25 25 24 20
41 41 40 41 43 44 46 47 47 48 48 48 48 49 48 44 38 42 42 41 32 22 15 2 17 23 21 21 19 18 22 22 22 22 21 23 26 27 26 23 25 25 23 21 20 19 19
40 39 40 41 42 44 45 46 47 47 47 47 47 47 47 46 44 42 41 36 25 21 18 14 11 8 18 18 17 15 21 16 23 23 20 18 16 22 26 25 23 23 22 21 18 18 18
38 39 39 41 41 43 45 45 45 47 47 47 47 47 45 46 44 42 36 28 23 25 21 22 13 7 12 16 26 19 17 17 17 24 20 19 17 22 21 24 25 24 22 24 21 26 24
36 38 39 41 41 43 44 45 46 46 47 47 46 44 42 45 44 40 31 26 28 28 26 25 15 15 11 14 20 24 28 28 21 22 26 24 21 24 23 24 25 23 26 22 25 18 19
37 37 38 40 42 43 43 44 45 46 47 47 45 39 42 45 42 35 25 25 27 28 28 26 24 17 20 19 20 21 25 24 31 32 27 24 22 21 22 22 21 23 22 25 24 23 19
39 39 40 41 42 42 43 44 45 46 47 46 42 33 43 43 33 32 25 25 27 26 28 27 27 25 22 21 17 19 20 21 36 37 34 34 26 21 21 23 23 23 23 24 22 24 26
39 40 40 41 42 42 42 43 44 45 46 45 38 35 44 40 27 28 27 26 28 28 27 26 26 27 23 21 16 19 22 28 38 37 33 35 33 25 22 23 23 21 21 22 26 27 23
39 40 40 41 41 41 42 43 43 45 46 45 34 30 37 38 33 27 27 25 26 28 28 29 28 28 26 24 24 21 22 22 30 39 40 39 35 33 29 25 24 21 20 21 23 22 22
39 39 39 40 41 42 43 43 44 44 46 44 33 31 35 29 31 30 28 26 24 24 27 28 26 25 25 24 23 21 21 26 27 37 39 37 33 36 35 34 31 28 23 21 20 23 22
40 40 40 42 41 42 43 43 44 45 46 42 31 33 36 32 34 31 29 27 24 25 26 27 27 27 26 23 24 21 23 23 22 33 37 38 30 35 30 33 31 29 24 22 24 24 24
40 40 40 41 41 42 43 43 43 45 45 39 39 38 36 33 33 31 28 27 27 27 27 25 28 27 26 26 25 26 26 26 31 35 33 34 32 30 23 31 29 25 27 25 22 23 26
40 40 41 42 42 42 43 43 44 44 45 42 40 38 34 30 31 30 29 30 27 27 26 27 28 28 28 29 33 34 36 35 36 38 38 34 32 32 26 27 21 30 28 29 24 24 27
42 41 42 43 43 43 44 44 44 44 45 43 42 39 35 30 33 31 31 30 28 28 28 26 26 28 29 30 27 24 25 30 32 37 38 36 34 30 22 22 25 23 27 27 27 25 26
42 42 43 44 44 43 43 45 45 45 45 44 42 43 38 33 31 34 31 31 31 28 28 29 31 33 31 29 26 24 19 20 26 33 39 39 36 29 30 23 17 16 24 23 33 26 29
41 42 42 42 42 42 42 41 41 43 45 44 42 42 37 31 35 35 32 31 30 30 28 28 29 30 31 27 26 23 23 22 16 28 29 31 32 29 29 26 28 31 37 39 32 30 39
41 42 42 42 42 42 42 42 42 43 42 44 42 42 38 32 35 38 37 33 30 29 27 29 29 30 29 25 25 25 24 24 23 25 28 28 28 28 29 27 22 36 33 33 36 39 38
42 44 44 44 44 43 43 43 43 42 42 42 39 43 41 36 35 38 35 37 38 33 29 31 27 30 30 26 27 26 24 25 26 20 28 23 25 24 27 25 31 35 30 35 38 41 38

GFSGBSN_sfc_30mbdewp_066.txt.gz
Dewpoint
46 46 47 47 47 48 49 49 49 49 49 49 49 48 48 48 48 48 49 49 49 49 48 47 48 48 50 37 23 40 48 50 47 33 26 24 24 22 19 16 17 16 17 21 23 25 25
45 45 45 45 46 47 46 46 47 49 49 50 50 50 48 48 47 47 49 50 50 50 49 48 48 48 47 26 28 39 39 45 35 28 26 24 22 25 21 19 19 22 22 24 24 22 37
43 43 44 46 46 46 46 47 47 48 49 49 50 50 50 49 47 48 48 48 49 49 49 49 48 47 45 30 38 39 41 35 37 31 27 29 26 26 24 21 24 25 22 22 19 21 28
44 43 42 42 45 46 46 47 47 47 47 48 48 49 50 50 49 49 48 47 46 47 48 48 48 47 39 42 44 43 42 35 36 35 33 32 31 26 24 25 23 22 21 17 17 23 28
42 43 44 44 43 44 46 47 47 47 47 49 49 49 50 50 49 49 48 47 44 47 49 49 46 44 32 41 40 40 41 31 27 33 34 33 30 27 26 23 21 22 16 15 16 21 31
42 41 43 45 44 43 44 46 46 47 48 49 49 49 49 49 49 49 48 42 44 47 47 47 48 35 31 12 30 39 43 39 29 31 33 34 33 26 25 22 12 17 18 19 18 21 23
42 42 42 41 41 41 42 43 46 48 48 49 49 49 50 49 49 49 45 39 35 36 38 37 38 35 32 41 41 37 37 34 30 32 13 31 29 27 24 23 21 19 20 19 19 20 20
41 41 40 39 39 40 41 42 45 47 48 49 49 49 49 49 49 48 42 37 38 39 35 37 38 38 38 41 38 30 32 31 25 25 28 24 25 26 25 24 22 22 20 20 20 19 22
43 41 37 39 40 38 40 43 45 47 48 48 49 49 49 49 48 40 41 39 41 39 37 35 36 35 31 32 31 25 29 31 26 25 27 23 24 25 23 23 21 22 20 20 15 21 22
42 42 40 42 39 39 42 44 45 45 48 48 49 49 49 48 42 40 40 41 41 43 31 25 29 30 26 34 31 30 25 21 28 24 25 26 26 24 22 21 21 18 22 21 20 20 18
42 42 41 42 39 40 43 44 45 46 47 47 47 48 48 48 40 39 38 43 40 43 -9 0 24 27 32 22 20 27 29 26 20 24 25 23 25 25 22 21 23 19 21 21 21 22 22
41 41 41 41 40 42 43 44 45 46 47 47 48 48 48 46 45 44 44 42 44 26 8 6 20 25 29 27 23 30 30 27 25 25 27 24 29 26 24 25 23 25 24 25 26 24 21
41 41 41 41 40 40 41 42 45 46 45 47 46 48 47 45 38 42 41 39 30 20 18 8 15 23 24 23 23 23 24 21 17 16 20 23 25 27 26 24 25 24 23 20 20 21 20
40 41 40 39 39 39 41 42 44 45 46 47 47 47 47 46 43 42 40 34 23 21 21 22 18 15 20 20 19 16 19 19 22 22 19 18 17 23 27 25 23 25 24 21 18 19 19
38 37 39 39 39 39 39 41 44 44 45 46 46 45 46 46 44 41 33 24 22 23 25 23 19 13 13 15 23 20 19 16 15 22 18 19 18 21 24 26 25 25 23 24 21 25 23
37 38 39 38 39 39 40 41 43 44 45 46 44 43 42 45 44 39 29 21 26 28 27 27 16 17 15 18 19 24 27 29 26 24 24 23 19 24 24 23 26 24 26 21 24 19 18
37 37 37 38 38 39 39 40 43 44 45 45 43 37 42 45 44 35 25 23 24 26 27 27 26 22 22 19 18 16 23 32 35 35 27 24 23 22 23 22 22 23 23 24 24 23 19
37 37 37 37 37 38 39 40 42 43 44 43 40 32 44 44 33 32 27 26 25 24 28 26 28 27 23 22 18 14 21 32 33 36 29 34 30 22 21 23 24 23 23 24 22 21 26
37 37 37 37 38 39 40 40 42 43 43 40 36 36 44 41 28 28 29 28 24 28 26 26 27 28 26 21 17 18 22 29 36 37 34 33 33 28 24 24 25 23 22 22 25 27 23
37 37 36 37 38 40 41 42 42 42 43 42 34 29 36 38 35 29 28 27 25 27 27 29 28 28 26 24 24 22 23 24 26 30 40 38 34 33 29 32 34 32 31 28 22 20 20
37 37 38 39 39 40 40 41 41 41 43 42 35 30 35 28 31 30 28 26 25 26 26 27 26 27 25 23 24 22 22 23 22 25 38 34 28 33 36 34 33 33 31 30 29 22 20
37 38 39 39 39 40 40 39 41 42 42 40 31 31 36 33 32 32 30 29 25 25 26 26 26 27 26 24 23 20 22 23 21 22 35 38 29 35 30 31 30 27 26 28 29 26 24
39 39 39 40 39 39 40 41 41 42 42 38 39 38 37 34 33 31 28 28 28 26 26 25 28 27 26 26 27 27 26 26 26 26 26 34 32 30 23 30 26 17 28 27 25 28 28
40 40 40 40 41 40 40 40 42 42 42 40 38 38 33 29 31 30 30 29 27 28 25 28 27 27 29 30 30 30 30 28 27 27 29 29 32 31 25 25 15 16 30 27 27 24 23
40 40 42 43 43 41 41 41 41 42 43 42 41 38 34 28 33 31 32 32 29 28 29 27 28 28 30 30 29 24 23 30 31 34 35 36 33 28 25 23 20 19 18 21 22 20 23
42 42 40 41 43 42 41 42 43 43 43 43 42 41 39 32 30 35 32 32 31 30 28 29 30 30 30 29 28 24 20 19 23 29 38 37 34 30 28 24 16 16 30 38 35 20 38
42 41 40 39 39 43 43 43 44 44 44 43 41 43 38 32 35 34 32 33 34 32 29 28 29 30 31 29 25 23 23 23 19 25 29 31 32 29 28 26 27 29 36 40 31 24 35
41 40 41 40 40 39 41 42 43 44 44 43 41 43 39 33 37 38 37 36 35 31 28 29 30 31 31 27 25 25 24 24 22 26 29 27 26 27 29 26 22 33 32 25 31 33 30
42 43 41 42 42 40 41 41 41 41 43 45 38 44 43 37 35 39 39 38 36 34 30 30 29 30 30 27 26 24 23 25 24 20 28 23 27 25 28 24 29 35 28 31 33 31 31

GFSGBSN_sfc_30mbdewp_069.txt.gz
Dewpoint
45 45 45 46 46 46 46 46 47 48 48 49 49 49 49 49 48 47 49 49 49 48 48 49 49 49 48 28 11 38 43 54 52 36 26 24 27 26 22 19 18 20 19 18 18 22 25
43 43 43 44 44 42 43 46 47 48 49 49 50 50 49 48 49 49 49 49 48 47 46 47 49 48 47 9 22 39 39 41 37 31 27 25 21 25 22 18 17 20 18 21 25 23 25
42 42 43 44 44 44 45 46 46 47 47 48 48 49 49 48 48 49 48 49 49 48 47 45 47 47 41 15 31 39 39 33 37 30 27 26 25 24 25 21 24 24 22 22 21 21 24
45 43 44 44 44 43 44 45 47 46 46 47 48 49 50 50 49 49 49 49 48 47 46 47 47 45 34 39 43 43 40 36 36 33 34 33 31 26 24 25 24 22 22 17 17 25 33
45 45 42 44 45 46 44 44 45 46 46 48 49 49 50 50 50 49 49 49 47 45 49 49 46 43 23 37 39 38 39 30 32 33 32 32 31 29 26 21 18 22 16 17 16 21 34
41 42 43 42 42 42 42 43 44 45 47 48 49 49 49 50 50 49 49 46 44 47 47 47 45 36 29 12 30 39 42 39 29 32 32 30 31 28 25 20 9 11 19 19 16 21 24
43 41 43 41 41 41 41 42 43 44 47 48 48 48 49 49 49 49 46 39 35 36 38 37 35 33 34 39 42 38 41 36 30 28 26 33 26 27 25 23 18 18 18 17 19 21 19
43 44 42 40 40 41 40 40 41 45 46 47 48 49 49 49 49 47 40 38 38 39 34 37 37 36 37 39 34 35 36 25 27 24 23 28 25 27 28 25 22 20 19 18 20 22 21
41 41 42 42 37 39 41 39 41 45 46 47 48 48 49 49 48 40 40 39 40 41 36 34 36 35 34 34 30 25 31 31 26 24 24 17 22 27 27 25 23 22 20 19 17 20 21
40 41 42 41 39 41 38 38 43 44 45 47 47 47 48 48 41 40 37 42 42 42 31 24 31 33 31 32 28 27 23 23 28 25 26 21 18 26 24 23 23 20 22 21 20 19 10
40 41 43 41 39 41 40 40 41 44 44 46 47 47 47 47 41 39 37 43 41 43 -1 6 25 28 33 23 20 29 27 23 12 23 26 24 25 24 23 23 23 19 22 22 21 20 19
39 40 41 40 40 41 40 41 42 43 44 46 46 47 47 46 45 43 44 41 43 27 6 10 21 27 29 28 24 30 28 28 21 21 28 24 29 26 21 23 23 24 22 24 26 24 20
38 39 39 40 40 40 41 39 41 42 43 45 46 45 46 45 39 42 41 37 28 20 20 14 18 20 18 24 24 24 26 21 17 14 21 25 23 27 26 24 24 23 22 18 20 21 18
37 38 39 41 41 38 39 40 41 42 44 45 45 45 45 46 42 42 39 31 21 20 23 23 21 21 20 19 21 21 22 21 20 22 15 19 16 25 27 25 24 24 22 20 14 18 19
37 36 38 38 39 39 39 39 40 41 43 44 44 44 44 46 44 43 32 23 19 21 25 25 22 14 16 19 22 21 18 21 18 21 15 17 15 21 25 27 26 26 23 25 22 25 22
36 36 37 38 39 40 39 39 39 40 41 44 42 40 39 46 45 40 30 21 24 28 28 27 20 20 17 18 17 22 27 32 33 30 25 24 19 23 22 25 26 25 27 23 24 17 16
32 37 35 37 39 38 38 39 38 39 41 43 39 35 39 45 44 35 26 25 22 21 22 26 26 25 24 21 18 12 26 31 33 33 28 23 23 22 23 22 22 24 23 25 24 24 17
35 33 37 38 38 38 37 37 38 39 41 40 36 30 43 45 33 32 28 26 24 23 27 26 28 27 24 22 18 18 23 29 27 37 32 35 28 19 19 22 24 24 23 24 23 21 26
35 35 36 38 38 38 37 38 38 40 40 39 34 34 44 42 27 28 31 30 24 25 24 26 27 28 27 23 18 18 24 27 26 26 33 33 31 27 24 25 31 30 29 30 28 26 21
35 35 36 37 37 37 36 37 39 40 40 38 34 27 35 38 37 28 29 28 25 26 25 29 28 28 26 24 25 23 22 24 25 23 27 39 31 31 28 32 35 31 31 31 29 27 23
36 36 36 37 37 35 36 37 39 39 39 35 34 29 34 27 29 32 30 29 25 23 25 27 27 26 25 23 23 21 23 24 23 24 36 35 28 29 28 30 34 31 29 27 23 27 27
35 36 37 38 37 37 37 38 40 39 41 35 30 30 34 32 33 32 30 30 26 25 26 25 25 27 26 24 23 20 22 22 21 26 28 30 30 34 30 32 31 29 29 27 25 27 27
39 37 37 37 38 38 39 40 40 40 38 34 35 37 35 28 30 31 30 28 29 27 26 27 26 26 26 27 28 27 27 27 26 25 24 26 32 30 25 30 29 22 24 24 26 26 26
42 40 39 39 39 39 39 39 40 40 40 37 37 37 31 25 30 30 33 30 29 27 25 27 26 27 30 31 33 31 30 29 29 28 28 25 28 30 26 26 18 16 25 27 27 26 28
41 41 40 40 40 40 40 41 41 41 40 39 38 37 33 26 27 30 32 32 30 29 28 28 28 28 32 31 31 28 24 28 29 29 29 28 28 27 26 24 21 20 17 20 22 21 34
41 41 41 41 41 42 43 43 43 41 40 40 39 40 37 30 28 30 33 34 30 30 31 30 31 36 32 33 29 22 18 20 21 28 35 32 31 28 28 22 18 18 28 37 31 21 34
42 42 42 42 42 41 40 42 43 42 41 41 40 41 38 31 34 32 29 31 33 31 30 31 32 34 35 30 25 23 20 24 20 22 26 29 30 26 27 24 25 28 30 40 24 24 33
42 42 41 41 42 42 40 41 43 42 42 41 39 43 38 32 36 35 34 32 36 34 30 32 32 33 31 28 27 25 24 25 21 25 29 25 26 26 25 25 21 30 34 26 25 31 33
43 43 42 42 42 41 40 40 42 44 43 43 38 43 42 36 36 40 39 38 37 36 33 33 30 31 32 29 28 25 24 25 24 20 28 22 27 26 29 26 30 35 35 33 35 35 35

GFSGBSN_sfc_30mbdewp_072.txt.gz
Dewpoint
42 43 44 44 45 44 45 45 46 47 48 48 48 49 48 48 47 48 49 50 49 48 48 48 46 48 43 25 6 33 43 53 44 40 28 27 25 20 18 16 16 19 12 15 17 18 18
43 43 44 44 45 43 44 45 45 46 47 48 49 49 48 48 48 48 49 49 49 49 48 47 46 48 39 26 10 28 35 38 35 37 30 27 23 23 19 18 16 16 16 14 13 17 20
47 45 42 44 44 44 42 44 45 46 47 47 48 49 49 49 49 49 49 49 49 49 48 47 46 44 39 24 17 29 33 27 34 27 30 27 26 22 20 19 20 18 17 14 15 17 16
43 46 46 43 44 45 46 44 44 44 45 46 47 49 50 50 50 50 50 49 48 48 48 49 48 43 31 28 32 32 27 19 30 33 31 27 26 25 24 23 21 18 17 13 12 14 22
44 42 43 44 43 44 44 43 43 43 45 46 47 49 50 50 50 50 50 49 48 47 48 48 44 41 24 30 32 29 27 20 14 22 24 32 31 26 26 21 16 18 13 14 14 17 21
41 42 42 43 43 42 42 42 43 43 44 46 47 48 49 49 50 49 49 48 43 46 46 44 42 37 28 14 28 37 40 34 25 19 29 31 30 28 26 21 16 15 15 14 13 14 22
42 43 44 43 42 41 42 41 42 42 44 46 47 47 48 49 49 49 44 37 30 34 33 31 28 30 24 33 36 31 40 38 30 20 21 30 26 24 23 23 20 17 13 13 10 15 18
41 41 41 43 43 40 39 41 41 41 44 45 46 47 48 49 49 48 39 36 37 37 33 33 31 29 28 29 29 28 37 28 31 19 15 28 25 23 25 25 22 19 15 13 14 18 19
40 41 41 40 43 42 38 42 40 41 44 45 46 47 47 48 48 43 40 38 40 39 34 28 31 32 32 33 26 22 35 27 27 25 17 18 20 23 24 25 22 19 17 15 14 14 17
39 40 41 41 42 41 37 40 38 39 42 44 46 47 47 46 43 39 37 40 41 41 30 16 27 29 33 30 26 26 26 28 24 20 21 20 17 20 23 22 21 18 19 19 17 17 12
39 40 42 42 41 41 41 41 39 41 43 43 46 46 46 46 42 38 39 41 40 42 2 9 21 28 28 25 19 29 25 18 16 20 25 20 20 16 15 19 17 17 18 20 20 18 17
39 39 38 39 40 41 41 40 40 41 42 43 45 46 45 41 43 41 42 41 39 30 1 7 21 23 28 24 22 29 26 20 17 15 19 22 25 24 16 21 23 23 21 21 21 18 16
38 38 39 39 39 39 42 40 40 40 41 42 44 45 43 41 39 42 42 35 26 10 14 12 18 18 18 18 24 22 27 22 13 15 16 19 20 24 25 18 19 21 18 17 18 19 16
38 36 38 37 37 40 42 39 39 41 41 41 43 44 40 40 44 43 40 30 18 9 16 21 21 19 17 19 22 21 24 21 17 14 12 16 18 20 24 22 21 19 19 17 15 16 17
35 34 35 37 37 37 40 39 39 40 41 42 43 39 41 40 44 44 36 24 10 15 19 24 19 14 15 18 21 21 28 29 19 18 10 13 13 21 22 25 23 21 20 21 18 23 21
35 37 36 37 38 38 39 40 40 40 40 41 39 38 35 39 46 42 32 20 18 27 26 26 18 20 16 17 15 22 27 29 31 28 20 21 13 17 20 23 24 23 24 22 22 19 17
33 33 34 34 37 37 40 40 40 39 39 40 37 32 32 41 44 37 26 25 20 21 24 25 24 22 21 19 16 16 29 27 25 31 29 22 24 25 23 20 21 23 24 23 22 21 17
35 35 37 36 35 37 38 38 38 38 39 39 34 28 38 44 33 33 28 27 25 21 22 24 27 25 23 21 19 14 18 23 24 25 30 33 28 21 22 23 23 22 22 23 21 19 21
36 36 35 36 36 36 39 39 38 38 39 35 29 29 38 42 27 28 31 29 24 22 20 21 22 26 25 22 18 18 21 26 26 21 26 31 29 16 14 20 26 21 26 26 26 25 23
35 36 36 35 36 37 38 39 38 39 39 37 32 26 29 37 35 28 26 25 29 24 22 25 24 27 25 23 22 19 19 20 23 21 30 32 27 30 21 24 29 30 29 29 28 23 21
36 36 36 36 35 36 38 39 37 39 39 37 33 27 25 27 28 31 25 25 23 21 24 24 23 24 23 21 21 21 20 21 21 27 28 36 24 24 26 23 24 24 24 24 24 24 23
39 39 38 37 38 36 36 38 38 39 39 37 30 25 29 28 27 32 31 29 24 21 22 22 23 24 25 23 22 19 21 21 21 22 25 30 22 29 22 22 23 22 22 22 21 21 25
41 41 41 41 38 37 37 38 38 39 39 35 36 32 30 26 22 23 26 25 30 24 23 22 23 24 25 25 26 27 27 27 25 24 25 25 27 24 19 26 24 21 22 19 19 19 23
42 43 42 42 42 39 38 38 38 39 40 35 34 32 29 21 23 24 19 26 29 27 25 25 24 25 29 32 32 31 30 28 29 27 26 24 27 28 23 26 16 16 21 22 22 21 21
43 42 41 41 42 41 39 39 39 39 40 39 35 34 30 23 22 20 22 31 30 28 29 26 26 27 34 34 30 25 25 26 26 27 27 27 24 25 20 16 15 15 16 16 15 13 27
41 41 42 41 41 41 40 39 40 41 41 39 38 37 35 29 23 20 19 25 29 29 28 28 36 33 36 34 28 20 18 19 19 26 27 28 26 23 24 17 15 17 27 31 28 15 27
42 42 42 42 42 42 41 41 41 42 42 41 39 39 34 29 28 34 24 21 31 34 29 31 35 35 37 31 25 21 19 20 17 21 28 27 27 24 22 22 21 23 21 34 21 25 28
42 42 42 42 43 42 42 42 42 43 43 43 39 41 36 30 28 28 32 27 27 30 26 34 33 33 31 28 26 22 21 20 18 21 27 26 23 24 24 21 21 27 30 26 31 30 30
43 44 43 43 43 42 42 42 42 41 42 43 37 42 40 35 35 35 32 33 33 32 30 36 31 33 31 29 25 25 23 23 19 16 22 25 25 23 22 22 29 33 31 29 36 36 35

GFSGBSN_sfc_30mbdewp_075.txt.gz
Dewpoint
43 44 44 44 44 45 42 45 45 45 45 46 47 47 48 48 48 49 50 50 49 48 48 48 48 47 43 29 27 25 38 50 45 41 35 28 26 23 19 14 13 14 13 13 11 11 11
46 46 45 44 44 43 43 42 44 45 46 46 47 48 48 48 48 49 49 50 50 50 49 48 48 47 39 26 26 14 19 22 34 36 30 27 25 22 18 17 15 15 14 15 13 12 11
44 44 47 46 45 45 45 45 44 44 44 46 47 48 48 48 48 48 49 50 49 49 49 48 48 46 34 23 18 19 24 15 17 33 33 29 26 21 20 19 18 17 15 15 15 13 11
45 44 43 44 45 44 45 44 44 43 42 45 45 47 49 49 49 49 49 49 49 49 48 48 50 43 30 22 22 24 25 22 18 17 27 30 30 26 24 24 21 19 18 16 16 14 13
44 43 42 43 44 44 43 43 43 43 43 44 45 47 49 49 49 49 49 49 48 48 47 49 45 39 25 28 24 22 22 22 17 12 23 23 25 25 24 22 21 20 16 15 16 15 14
42 43 44 44 44 44 42 42 43 43 43 43 46 47 48 48 49 49 49 47 43 45 46 42 38 37 32 11 20 29 38 29 16 13 14 15 18 19 20 19 17 17 16 17 16 16 14
41 42 42 42 42 45 43 41 41 43 42 42 46 46 47 48 48 48 46 35 30 37 35 27 25 29 21 16 26 25 34 35 30 25 14 9 17 14 15 17 19 20 18 16 16 16 14
41 40 40 41 40 41 43 40 41 43 42 44 45 46 46 48 47 48 45 34 35 37 33 31 28 26 24 21 19 20 27 33 30 30 31 16 19 19 20 21 22 21 19 18 17 15 17
40 41 41 41 41 40 42 41 40 41 40 41 44 46 46 47 46 44 37 35 39 39 32 25 25 25 26 28 23 20 18 27 27 29 31 25 18 23 22 22 22 23 22 21 18 17 16
41 40 40 40 42 42 42 42 39 40 40 42 44 45 46 45 42 37 35 37 38 41 30 21 21 24 29 28 25 24 20 24 22 23 30 32 29 19 24 23 23 22 22 20 19 17 15
38 38 40 42 41 40 41 41 40 39 41 42 43 45 46 45 38 35 35 38 39 40 5 7 17 28 27 25 22 24 24 21 25 21 25 29 28 24 19 21 22 22 22 20 19 19 19
38 39 38 38 39 40 40 41 41 40 41 41 42 44 45 37 41 39 39 41 38 30 8 6 18 18 23 24 24 25 29 21 24 21 23 24 27 27 21 19 21 21 19 20 19 19 17
38 39 41 42 42 41 40 40 41 40 39 41 42 44 42 37 36 40 41 37 23 10 6 4 13 15 15 18 21 23 24 21 13 14 16 21 25 23 23 21 16 19 19 18 17 17 17
36 36 37 37 37 37 38 39 42 40 40 41 42 43 37 36 37 41 39 28 14 4 8 14 16 14 12 18 22 23 21 20 16 17 10 10 15 22 21 22 20 20 20 19 17 19 19
36 35 36 35 35 36 39 38 39 40 41 41 42 33 34 36 39 43 36 23 5 9 8 14 15 7 6 16 21 21 21 24 20 19 15 12 17 21 23 23 24 23 18 18 18 24 23
35 36 37 36 37 37 40 39 39 40 40 41 31 34 34 36 41 40 31 21 14 15 22 19 8 12 11 15 18 19 24 29 30 31 19 18 14 16 23 24 23 22 25 19 20 20 19
35 35 35 36 35 36 35 39 40 40 40 40 30 31 28 35 43 37 25 21 19 18 22 20 15 17 15 18 18 18 33 30 24 26 27 18 21 22 20 25 22 21 19 23 22 20 21
36 35 34 36 36 37 37 36 40 40 39 37 27 28 32 37 33 32 27 23 21 18 17 20 22 23 21 19 19 17 17 25 24 25 29 21 28 21 20 19 24 23 19 23 22 23 23
36 36 36 37 37 37 37 38 39 40 39 27 28 26 34 40 27 26 26 22 23 20 16 16 19 17 19 20 18 17 16 24 23 21 26 26 23 21 24 24 22 21 23 23 24 24 27
34 35 35 36 37 37 37 37 39 38 39 35 31 27 25 35 34 28 23 22 20 23 20 17 16 17 17 20 20 19 18 19 22 23 25 28 29 23 15 23 24 20 23 27 24 23 22
36 37 37 37 36 36 36 36 38 38 38 34 30 26 26 25 26 26 30 31 20 20 22 21 20 17 19 18 16 17 18 19 20 22 22 28 31 30 28 29 24 25 25 24 23 24 23
37 39 39 39 38 37 37 38 39 40 38 35 30 26 23 22 26 25 23 25 26 17 17 19 18 17 16 17 18 18 20 21 21 21 22 25 19 22 26 23 22 21 23 23 22 21 21
39 40 40 42 42 41 39 38 39 40 38 33 37 30 29 23 19 22 25 24 21 24 29 24 20 17 21 23 24 26 28 29 26 24 24 25 22 17 19 17 21 21 20 20 21 23 22
39 40 41 42 43 42 42 39 38 40 39 32 32 29 28 22 19 18 18 24 21 26 27 28 25 23 25 31 30 28 28 26 26 26 26 24 23 22 20 24 16 16 18 18 19 20 20
40 40 41 42 42 43 43 43 38 40 40 38 32 34 28 24 17 15 16 18 25 27 27 33 35 27 33 33 28 24 25 26 27 25 25 25 23 23 22 17 15 13 13 14 14 14 21
41 41 41 42 42 42 42 42 40 39 40 39 37 36 34 29 21 16 14 15 20 24 33 28 37 36 35 31 31 22 17 19 19 21 24 25 25 22 21 17 11 12 23 27 22 16 25
41 41 41 42 42 42 42 43 40 39 39 38 35 37 35 31 24 28 18 15 17 25 30 30 36 36 36 31 27 22 18 19 19 21 24 25 27 23 21 19 17 19 21 26 19 24 29
41 42 43 43 43 42 42 42 42 39 40 39 36 38 36 33 26 24 26 28 28 25 26 35 34 34 32 29 26 23 21 22 17 21 25 25 25 24 24 25 18 21 23 23 32 33 32
42 42 43 43 44 43 43 42 42 42 42 42 37 40 39 34 28 29 27 28 29 35 37 33 31 33 32 30 25 24 23 23 19 16 24 24 24 22 20 20 25 29 31 34 34 33 33

GFSGBSN_sfc_30mbdewp_078.txt.gz
Dewpoint
46 46 45 45 44 43 43 43 43 45 45 45 45 46 47 47 47 48 49 50 50 49 49 49 49 49 42 28 28 24 41 49 45 37 32 29 29 25 22 21 19 14 12 12 13 14 12
44 45 45 47 45 45 44 45 45 45 45 45 46 46 47 47 48 48 48 49 50 49 49 48 48 48 40 25 22 20 24 19 20 35 35 33 27 25 22 20 17 14 13 12 13 13 13
45 45 45 44 46 46 44 44 45 45 44 43 44 46 46 47 47 47 48 48 49 49 49 48 48 46 38 24 20 23 21 20 15 18 32 31 27 25 23 21 19 18 16 16 14 14 15
44 45 44 44 44 45 45 44 44 44 43 44 44 45 48 49 48 48 48 48 48 49 48 49 49 44 34 24 24 21 19 17 22 18 18 30 32 29 26 23 21 18 19 16 16 15 15
43 43 44 45 44 46 45 44 43 43 43 42 43 46 47 48 48 48 48 48 48 48 49 48 46 42 29 27 23 21 20 17 19 23 18 12 26 28 28 24 22 21 19 18 17 17 16
42 42 43 43 43 44 45 45 43 43 43 43 43 45 46 47 48 47 47 47 46 47 44 45 41 36 35 19 18 23 28 35 21 18 15 12 18 22 24 22 19 18 18 19 18 17 17
41 41 42 41 41 41 41 43 43 43 44 43 43 44 45 47 47 46 44 42 33 38 42 34 31 31 25 22 19 18 21 34 25 18 16 13 13 10 14 22 22 21 20 20 20 18 16
42 41 41 42 42 41 41 40 44 42 44 41 41 43 45 46 46 46 43 35 33 36 32 30 26 23 22 22 18 16 19 28 29 24 22 19 14 14 15 12 15 16 17 19 22 21 16
42 42 42 41 41 40 41 42 43 42 42 41 41 44 45 47 46 43 39 35 36 38 33 25 24 24 22 25 21 19 16 15 26 26 26 27 25 24 19 20 16 18 21 22 21 21 21
40 40 40 39 40 41 42 42 42 42 41 41 42 43 45 46 40 40 36 36 36 41 30 24 22 21 26 27 24 23 22 16 13 22 22 27 28 26 25 29 31 26 26 25 23 22 22
39 40 40 41 40 40 40 40 40 42 40 41 42 42 44 45 38 34 38 36 38 39 19 20 16 27 24 24 23 22 25 19 12 19 19 23 27 28 29 33 32 32 30 29 30 22 22
37 38 39 40 41 41 41 41 41 40 41 41 41 41 43 36 39 38 41 40 40 31 20 6 19 21 22 22 23 22 25 19 16 15 21 22 25 29 34 36 31 32 29 30 28 23 20
38 40 39 39 41 40 40 40 40 42 41 40 40 42 41 36 35 40 41 39 30 18 4 3 10 14 12 11 13 19 23 22 14 16 18 20 22 28 34 33 33 30 25 28 25 21 20
37 38 38 36 37 37 37 37 40 40 42 39 40 42 37 34 35 37 38 34 20 4 6 13 12 11 9 9 15 19 21 21 20 14 10 10 13 18 25 27 28 26 24 29 22 22 20
37 37 36 36 38 37 38 38 40 40 40 41 40 35 33 34 38 39 38 23 9 12 6 4 11 10 0 7 15 19 20 19 25 17 14 13 10 15 23 23 26 31 27 29 29 29 31
36 37 36 36 36 37 36 38 38 41 40 40 33 31 31 35 40 38 34 26 18 13 16 17 12 3 3 5 13 13 14 28 32 27 20 21 17 19 21 25 29 30 29 24 28 23 25
36 36 36 36 36 36 37 37 36 39 41 37 33 27 28 36 40 37 27 24 20 19 18 18 15 12 11 11 14 15 24 32 30 24 27 26 19 20 20 22 26 27 26 31 31 29 26
36 36 37 37 37 36 38 37 37 38 39 37 31 25 35 38 33 34 29 24 23 18 16 14 15 18 19 17 16 16 17 26 24 23 27 32 22 19 20 25 25 27 25 25 28 30 28
36 36 36 36 36 37 38 38 38 39 38 35 30 23 29 38 26 27 27 25 25 21 17 16 14 15 16 15 14 15 18 24 23 20 24 23 24 22 24 30 24 24 28 31 25 32 32
33 35 37 37 37 36 37 37 38 39 38 37 32 25 22 35 33 29 27 23 22 20 19 17 14 14 13 13 14 17 18 20 21 20 23 25 25 27 27 32 33 29 28 29 29 26 29
36 36 37 37 38 39 38 37 38 38 38 38 30 26 28 23 26 26 26 25 24 16 17 18 16 15 13 14 14 14 16 17 18 22 21 24 26 29 25 31 32 34 33 32 34 34 30
35 36 37 38 39 40 39 38 38 38 38 37 30 23 21 24 26 25 23 23 21 22 22 22 19 16 16 15 16 19 19 21 25 20 22 21 24 23 21 23 32 24 23 23 26 29 24
35 36 39 40 40 41 42 40 39 39 38 36 31 29 31 25 18 20 25 22 20 21 23 32 28 25 17 15 25 32 31 32 32 28 24 25 22 20 17 19 22 21 22 22 21 22 22
36 37 39 40 40 42 42 42 41 39 39 35 30 27 26 23 20 20 16 18 22 18 21 23 25 30 30 35 30 32 30 27 32 29 24 22 22 22 22 20 19 20 19 19 19 21 22
38 38 39 40 41 42 42 44 42 40 39 37 33 32 29 24 20 17 16 18 26 25 26 26 24 31 38 37 26 22 22 23 23 24 24 24 23 23 21 18 17 15 14 13 13 15 18
39 39 40 41 42 42 42 42 44 42 40 38 35 35 32 30 21 17 14 14 14 17 21 26 29 38 39 31 29 20 16 17 18 21 24 24 26 24 23 19 13 14 14 24 20 13 25
40 40 40 41 42 42 42 42 43 43 42 39 34 38 34 30 27 24 20 18 18 17 22 31 35 36 37 30 25 21 19 20 20 20 21 23 26 24 24 22 18 16 28 27 20 26 29
40 41 42 42 42 43 43 43 42 42 43 40 36 37 35 32 28 25 24 24 26 27 28 33 33 35 33 28 26 21 23 22 22 22 27 23 25 25 24 21 19 24 25 28 35 36 35
40 41 42 42 42 43 44 43 43 43 42 40 35 37 38 33 27 30 29 28 26 29 35 37 33 34 31 28 25 26 27 26 22 18 28 28 24 24 22 22 24 30 35 35 34 34 34

GFSGBSN_sfc_30mbdewp_084.txt.gz
Dewpoint
45 46 46 47 46 46 46 47 45 46 46 46 45 44 44 44 44 45 47 48 48 46 46 46 46 47 45 37 32 27 45 52 54 48 38 32 22 19 21 24 27 26 27 26 24 20 19
46 45 45 45 46 46 45 46 46 46 46 46 46 46 44 43 44 46 47 48 47 47 46 45 46 48 43 26 24 24 25 31 44 41 36 35 30 24 26 27 25 24 24 24 23 20 19
44 44 44 45 46 46 46 46 46 46 45 45 45 45 45 44 44 45 47 47 47 47 46 45 46 45 40 29 29 26 29 28 27 37 32 35 34 31 30 27 28 26 24 23 22 20 19
44 44 43 43 43 44 44 44 44 44 46 46 44 45 46 46 46 46 46 46 46 46 45 45 47 46 36 37 38 37 33 29 26 21 20 20 22 24 31 30 29 27 24 21 22 21 20
44 44 44 42 42 43 44 44 44 43 43 45 44 46 46 45 45 46 46 46 45 45 45 46 47 44 32 39 38 37 34 27 20 16 18 21 21 13 22 26 26 25 22 22 22 23 22
40 40 44 43 42 42 43 43 43 44 44 44 45 44 44 44 45 46 45 44 42 46 46 46 44 40 38 26 28 24 27 28 31 29 19 18 19 10 24 25 24 24 23 22 21 22 22
42 42 43 44 43 43 42 42 41 43 44 45 44 42 44 44 45 44 43 40 33 33 37 39 39 38 34 36 30 23 19 20 32 25 16 18 17 10 12 21 25 25 23 23 23 22 25
40 41 42 42 42 41 41 40 41 43 43 42 44 43 43 44 44 44 43 39 39 39 32 34 35 35 38 38 34 32 23 16 31 25 19 16 13 13 15 17 18 20 20 16 17 20 31
41 40 39 39 40 40 41 41 42 42 42 42 43 43 42 44 44 42 34 35 39 41 32 32 32 31 30 27 31 30 22 17 18 28 24 16 17 17 14 14 13 13 15 18 19 29 31
40 41 40 39 40 39 40 40 40 41 41 41 43 43 44 44 34 38 32 37 39 41 29 26 30 27 28 26 22 22 24 18 14 15 26 27 25 22 20 25 25 22 22 24 27 33 27
34 36 38 38 39 41 40 41 41 41 41 41 41 42 43 42 39 37 34 38 36 40 11 21 25 27 26 25 22 22 24 20 13 12 19 23 27 27 26 26 26 26 33 32 33 34 33
37 37 37 38 39 40 39 38 39 40 40 40 40 41 42 40 38 38 38 35 40 28 14 22 22 19 24 24 24 26 23 21 19 16 15 15 19 27 26 31 30 37 35 35 35 34 26
38 36 37 38 38 39 38 38 38 39 39 40 41 41 41 40 35 38 38 36 28 20 20 17 20 18 24 23 23 25 21 16 14 13 13 14 14 29 33 34 37 36 33 26 27 27 22
37 36 37 38 37 38 38 37 38 39 39 39 40 41 40 39 39 38 36 33 19 18 18 17 17 22 21 20 21 24 22 17 17 16 15 13 12 26 33 27 28 34 33 25 23 24 25
35 35 35 37 37 37 37 38 38 38 39 39 39 39 37 36 38 38 33 23 20 20 22 20 19 10 11 14 12 22 23 23 22 17 13 11 12 17 29 30 28 33 30 34 30 32 28
33 35 37 38 38 37 37 38 38 37 38 39 37 36 35 35 38 37 29 22 22 23 23 21 18 17 17 20 17 15 24 31 32 24 20 23 19 24 21 28 28 28 36 31 31 23 24
34 36 37 38 37 37 38 38 38 37 38 39 36 31 32 37 38 33 24 24 24 24 25 24 20 15 15 16 18 17 29 31 25 23 29 30 28 26 27 21 24 26 32 34 33 32 27
33 36 38 37 37 37 37 38 38 39 38 38 34 25 35 39 27 29 26 27 27 25 26 26 22 19 15 16 16 18 22 22 22 23 26 24 25 25 24 23 24 26 30 33 29 29 31
34 35 36 36 35 37 38 38 39 38 38 36 31 30 34 36 23 24 28 26 25 24 25 24 23 22 20 18 14 18 21 25 22 23 21 21 29 24 25 29 35 34 33 33 34 34 29
33 37 34 35 36 38 38 40 40 39 39 36 30 25 27 32 32 28 29 27 26 26 25 24 22 22 18 18 19 17 17 20 23 24 24 22 23 25 21 27 35 32 33 36 36 30 30
35 33 35 35 36 37 38 38 39 40 38 36 30 25 28 23 28 29 30 31 28 26 29 27 22 21 21 18 17 16 18 23 24 29 26 24 20 23 27 29 28 28 30 34 33 35 32
34 33 34 34 36 37 37 38 40 41 38 34 28 27 28 25 27 28 29 26 24 24 24 22 26 29 30 26 29 28 28 26 23 27 29 31 24 25 22 24 23 25 24 35 36 35 35
31 35 35 34 35 36 38 38 40 42 40 34 34 33 29 24 24 21 26 23 24 28 27 26 24 29 30 31 33 31 32 32 31 28 27 28 29 26 22 23 22 20 24 28 34 35 35
35 36 33 35 37 38 39 40 40 42 40 34 31 30 26 21 21 19 20 20 21 23 28 28 29 28 31 36 34 33 31 29 30 31 31 27 28 30 25 21 12 19 20 21 29 30 35
36 33 34 36 38 38 39 41 42 42 41 38 33 32 28 23 23 22 20 20 23 22 24 24 25 32 35 33 27 24 22 24 24 29 30 31 27 22 19 18 17 13 14 24 19 29 33
32 32 34 36 38 39 40 41 42 42 43 40 35 34 32 27 21 24 24 25 23 25 25 22 37 37 36 32 28 22 18 20 19 21 30 31 30 24 22 18 13 18 25 26 28 27 34
34 33 35 36 38 40 40 41 42 42 42 41 37 35 31 28 27 26 24 25 29 29 27 30 33 31 34 30 26 24 20 21 16 20 21 26 26 24 22 20 22 24 33 33 25 29 35
34 33 35 37 38 40 41 41 41 42 42 42 39 37 32 29 27 29 29 28 28 31 28 31 29 30 30 27 25 23 22 22 22 24 23 23 24 24 23 21 18 37 33 29 35 35 36
33 35 37 39 40 40 41 41 42 43 43 42 38 38 37 31 28 32 31 31 29 28 28 32 31 31 33 30 29 30 26 26 26 21 32 27 31 27 24 22 37 39 39 38 39 37 36

GFSGBSN_sfc_30mbdewp_090.txt.gz
Dewpoint
46 45 45 45 46 46 45 44 44 44 44 44 44 45 46 45 44 44 45 45 43 42 43 44 44 44 43 37 26 23 33 30 53 48 37 29 24 25 22 24 29 29 28 27 27 26 25
45 44 44 43 43 43 43 43 43 43 44 44 43 43 44 45 44 44 44 44 44 44 43 43 44 44 41 30 28 25 29 29 39 45 38 31 26 24 21 19 24 27 29 27 27 27 26
44 45 45 43 43 43 43 44 44 44 42 42 42 43 45 45 44 44 43 44 44 44 44 44 45 44 38 33 33 31 32 31 28 31 37 37 30 25 23 21 24 21 20 25 26 26 24
43 41 42 45 44 43 43 43 43 42 42 42 42 43 45 45 45 45 45 44 43 43 46 47 46 43 36 37 38 37 37 34 33 32 35 37 36 33 32 32 30 28 26 24 25 25 25
41 40 41 43 45 44 43 42 41 41 42 42 43 43 44 45 45 45 44 44 43 45 47 46 43 41 34 38 37 38 38 29 29 29 27 25 23 21 21 24 21 27 25 23 23 23 22
42 42 42 42 42 42 41 40 41 43 42 41 41 41 42 44 44 44 44 42 43 46 45 45 43 37 32 24 36 36 38 34 28 23 21 18 19 16 19 24 18 23 25 24 23 23 22
41 40 40 40 39 39 38 38 41 40 40 40 41 42 41 42 42 43 42 35 33 32 35 33 34 35 37 37 37 35 35 27 28 21 12 18 15 15 17 17 22 25 25 24 24 24 21
40 43 40 40 40 38 37 39 40 40 40 40 41 41 41 42 42 43 36 29 34 36 30 34 35 35 35 34 32 31 33 21 29 26 19 16 15 16 16 18 21 23 24 24 23 20 26
40 38 38 39 38 38 39 39 40 40 40 39 40 40 40 42 42 38 37 32 35 35 31 31 32 31 33 35 33 30 30 26 28 26 19 16 15 18 16 15 14 16 17 17 17 24 25
35 35 35 37 37 37 38 40 40 39 38 38 38 39 41 42 35 38 33 34 36 36 27 23 29 31 30 31 31 30 28 22 14 27 26 21 19 17 15 14 14 11 15 17 25 23 17
35 35 35 37 37 38 39 39 39 38 38 38 38 39 40 40 37 35 35 37 36 39 14 11 25 31 30 25 18 27 29 22 15 15 27 23 27 23 18 17 15 18 29 28 31 28 30
39 39 38 36 37 38 37 37 38 38 39 38 38 38 39 39 38 37 38 37 37 26 12 17 27 26 25 23 24 24 23 21 18 14 17 22 20 22 27 36 28 36 30 33 34 30 22
37 39 37 37 37 37 37 37 37 37 38 38 38 38 39 39 33 37 38 33 23 17 15 17 23 22 23 22 23 21 19 18 14 12 12 14 14 25 35 34 35 29 24 19 15 20 18
35 36 35 34 34 37 38 37 37 38 38 38 38 39 39 38 38 38 35 26 16 11 16 26 25 26 22 23 22 23 19 16 16 15 14 11 8 20 31 26 30 30 24 19 12 21 23
38 33 33 34 38 37 38 37 38 38 38 38 39 36 35 36 37 38 29 18 14 19 25 28 28 25 21 18 19 23 18 17 17 16 13 9 11 25 31 32 27 32 27 30 24 26 23
34 32 33 36 37 38 38 38 38 38 38 38 36 34 33 37 39 35 25 16 20 22 22 31 27 28 21 16 19 23 26 30 26 22 20 20 17 25 29 29 34 28 33 25 29 22 20
32 34 36 34 37 39 38 37 38 39 39 39 32 28 32 39 38 31 19 18 20 23 25 29 27 28 26 18 20 27 28 29 26 29 29 29 23 26 25 25 28 31 29 31 30 29 23
33 33 34 35 37 37 37 37 38 40 39 36 32 21 32 38 26 28 22 22 22 23 23 28 31 30 29 23 21 27 26 27 26 26 25 26 28 25 26 32 30 29 31 31 23 25 30
32 32 36 34 37 35 36 37 38 40 38 34 28 27 33 37 21 23 23 23 23 22 18 21 28 31 31 28 23 23 29 29 28 23 21 21 25 15 28 30 29 30 33 34 35 33 28
31 34 35 34 35 35 36 37 37 39 40 34 28 21 24 33 31 24 25 22 20 26 22 30 29 32 31 26 26 25 24 28 31 27 28 25 25 18 17 18 29 27 28 31 32 28 28
32 36 32 35 34 35 35 36 38 39 40 33 28 22 27 19 23 26 26 27 26 28 28 31 30 31 30 27 26 27 28 25 26 29 30 24 21 23 24 24 27 25 25 27 30 31 28
34 34 29 32 34 34 37 36 37 39 39 34 26 25 27 25 24 22 22 24 24 25 30 28 26 28 30 28 28 26 27 28 29 27 27 29 25 25 22 23 23 21 21 23 23 24 30
33 34 33 33 32 35 34 35 37 39 40 34 34 34 28 22 21 19 21 19 21 22 29 29 26 28 26 29 31 31 31 30 31 27 24 26 23 20 15 24 20 14 20 14 15 30 33
35 31 33 33 36 37 34 37 40 40 40 37 35 33 27 19 21 19 20 21 22 21 25 25 28 28 33 36 33 33 33 31 32 30 31 26 24 25 20 21 8 13 17 18 24 25 34
34 31 33 34 37 32 34 38 40 40 41 38 37 33 29 21 22 21 22 21 21 25 25 26 31 33 36 33 23 21 20 20 21 25 27 30 26 20 16 18 15 14 20 26 22 19 34
33 32 34 37 29 33 34 38 39 40 41 40 37 38 33 24 19 24 23 25 25 26 24 28 32 34 32 29 24 16 13 20 19 20 31 30 28 23 22 16 12 15 24 33 30 10 37
32 33 35 37 30 34 35 37 38 40 41 41 38 37 33 27 25 26 22 25 27 25 24 29 27 30 31 27 23 21 19 23 16 17 19 26 27 23 23 19 21 26 34 32 15 20 37
33 34 37 37 34 34 34 36 38 39 41 40 39 37 34 28 25 27 26 22 24 27 22 25 25 25 29 25 25 24 22 23 23 22 23 21 22 22 23 21 18 36 34 26 34 37 36
33 35 37 35 34 34 35 37 39 39 40 41 38 38 38 33 29 32 29 27 28 30 26 27 28 27 31 24 25 27 26 26 25 19 29 23 29 26 27 25 35 35 33 34 35 34 35

GFSGBSN_sfc_30mbdewp_093.txt.gz
Dewpoint
45 45 45 44 43 43 42 43 43 44 43 42 41 42 43 44 44 44 44 44 42 42 42 42 43 44 41 37 31 24 31 32 50 47 33 30 30 30 26 29 30 29 26 27 25 23 23
45 44 44 43 43 43 42 43 43 43 42 41 41 43 43 44 43 43 42 44 44 43 42 43 44 44 40 28 29 30 29 30 27 46 39 32 27 28 24 22 24 27 28 25 25 26 27
44 45 45 44 43 43 43 43 43 41 41 41 42 42 42 43 43 43 42 43 44 43 43 45 47 44 38 31 31 31 30 30 29 25 34 36 30 24 24 22 23 22 20 20 25 26 27
42 41 41 42 45 45 43 42 41 41 42 41 41 41 41 42 43 43 43 44 44 43 44 48 47 43 37 38 38 37 36 35 36 32 26 26 38 29 30 31 30 27 25 22 23 19 23
40 41 41 43 43 42 42 40 41 42 41 40 40 40 41 42 43 44 44 44 43 41 47 46 43 41 35 38 37 37 38 33 30 32 29 27 33 30 28 28 21 27 21 25 25 25 23
42 41 41 42 41 40 39 38 40 41 40 40 40 40 40 41 43 43 44 41 38 45 42 45 41 37 35 28 36 35 38 36 30 28 24 24 21 21 19 21 16 20 24 25 23 24 23
41 41 40 40 40 38 37 38 40 40 40 39 39 39 39 40 41 43 39 31 31 30 32 29 28 33 32 28 29 29 34 31 33 23 14 19 18 16 17 20 19 23 23 22 24 24 24
40 42 41 39 38 38 38 38 40 41 40 38 38 38 39 40 40 41 37 30 31 33 29 32 32 33 32 29 27 25 28 28 25 23 16 16 15 17 18 20 20 20 19 20 24 25 23
39 37 36 36 37 37 37 38 39 39 38 38 38 38 39 40 40 38 37 32 36 35 30 29 30 29 29 33 31 28 30 28 25 29 21 9 13 17 16 16 18 18 17 20 18 21 24
35 35 34 36 36 37 38 39 39 38 38 38 38 38 39 40 34 36 33 34 37 36 25 21 27 31 30 33 31 33 26 26 17 28 28 23 18 18 17 16 15 13 17 16 17 19 14
34 35 35 36 36 38 38 37 37 37 37 38 38 38 38 39 38 33 33 38 38 37 9 13 24 33 31 28 25 29 28 23 16 27 27 24 26 20 18 16 16 12 17 17 28 26 28
37 36 37 36 38 38 37 38 37 37 37 37 38 38 38 38 37 36 38 38 36 21 8 14 23 27 28 26 24 27 26 25 20 20 22 24 23 25 21 32 17 33 32 33 33 30 20
35 38 38 34 36 35 37 38 37 38 38 38 38 38 38 38 32 37 38 33 18 12 11 16 23 23 28 27 22 23 21 21 18 18 16 17 16 32 36 31 34 29 25 21 17 20 11
35 34 35 34 33 38 38 38 38 38 38 38 38 39 38 37 38 38 34 23 11 5 13 25 25 27 28 25 23 20 20 15 16 15 14 13 13 25 32 31 30 28 24 18 9 16 21
38 35 33 33 37 37 38 38 38 38 39 39 39 35 34 35 37 37 26 15 10 19 25 23 23 26 29 20 21 20 19 16 16 16 11 12 11 27 31 34 30 30 25 28 24 27 21
37 33 32 33 36 37 38 38 37 38 39 39 35 33 30 38 38 34 24 16 15 16 15 24 24 27 25 25 21 23 25 30 25 19 19 15 22 28 32 31 33 29 32 24 27 19 19
34 32 35 36 34 39 37 37 37 39 40 39 31 26 32 38 38 30 20 18 18 18 21 28 25 23 28 27 26 30 29 30 28 27 26 28 26 27 28 25 29 29 28 30 29 27 19
36 32 33 34 35 37 37 36 38 39 39 35 30 16 28 38 26 28 22 24 21 18 20 22 29 28 28 29 28 31 28 28 31 30 26 29 28 26 28 32 32 31 31 29 21 24 27
37 33 32 37 34 37 35 36 37 39 38 33 27 26 31 38 20 21 23 22 23 20 19 17 18 27 31 29 27 31 32 31 32 28 23 24 24 27 28 27 27 28 32 33 34 31 26
37 32 32 36 34 35 35 36 36 38 40 33 26 17 23 30 30 24 22 19 23 27 22 25 30 32 31 29 32 29 31 29 30 33 32 29 25 21 20 23 27 23 24 30 30 26 23
36 33 35 33 35 35 35 35 37 39 40 33 28 20 26 19 21 24 24 24 22 23 33 33 31 31 30 27 29 28 30 30 27 29 30 26 24 24 24 26 28 25 23 24 26 28 25
35 33 36 31 31 34 34 36 36 38 40 34 27 24 27 25 24 21 20 22 22 22 28 29 26 29 30 28 30 27 28 29 26 26 25 27 25 24 18 24 22 19 18 22 24 24 25
34 34 32 30 34 33 36 34 35 38 40 35 34 34 29 22 20 19 20 20 19 21 24 27 27 27 28 30 34 33 32 32 30 29 24 26 24 17 15 23 17 9 18 14 17 19 28
34 32 34 31 33 34 38 34 37 40 40 37 35 34 27 19 20 18 19 20 21 19 24 27 30 29 31 34 34 33 33 31 31 30 31 27 23 24 18 21 5 13 20 20 20 22 32
33 34 32 32 34 38 34 34 38 40 40 39 37 33 29 21 22 21 21 21 22 25 25 27 30 30 33 33 24 19 19 20 24 31 29 29 25 23 17 15 15 15 27 26 23 19 35
32 32 32 32 34 37 32 33 37 39 40 40 37 38 32 25 19 23 23 24 24 26 22 27 31 32 32 27 24 17 16 21 19 24 31 29 28 22 21 14 7 18 29 34 33 11 34
33 33 33 33 35 35 34 34 37 38 39 41 38 39 33 27 26 25 22 24 26 24 20 25 26 28 31 26 24 23 20 23 18 17 21 26 26 22 21 17 19 32 34 33 17 22 33
33 33 33 33 36 37 34 34 36 38 39 41 39 39 35 29 26 26 25 22 21 24 19 24 24 23 27 24 24 25 23 24 24 25 26 23 22 22 21 20 17 34 32 27 34 36 36
31 33 33 34 38 35 35 34 35 37 39 39 37 39 39 33 30 31 30 28 27 26 28 27 28 27 29 24 25 25 23 25 24 20 29 25 29 26 28 27 32 34 32 33 35 33 33

GFSGBSN_sfc_30mbdewp_096.txt.gz
Dewpoint
46 45 44 43 43 43 42 43 44 43 42 41 42 42 42 42 42 42 42 43 42 42 42 42 44 44 41 29 23 10 29 25 20 36 29 25 24 21 20 24 25 24 25 21 22 20 18
45 44 44 44 43 43 43 43 43 41 41 41 41 41 41 42 42 42 42 43 44 43 43 44 45 46 40 26 20 22 23 24 21 37 28 21 23 24 22 24 24 24 25 23 22 20 20
45 44 46 45 43 44 43 42 41 41 42 41 41 41 41 42 42 42 42 43 44 45 43 44 48 46 39 27 23 21 24 22 23 25 32 32 24 22 21 20 22 22 21 22 22 24 23
43 41 42 44 45 43 42 41 41 42 41 40 40 40 40 41 40 41 42 44 44 44 43 47 48 44 33 32 33 32 30 28 27 22 24 23 32 28 24 22 24 20 21 20 22 21 21
41 41 42 43 43 42 40 39 41 41 40 40 39 39 39 40 42 43 43 44 43 41 46 47 42 40 26 34 33 35 35 35 32 27 26 18 19 31 27 24 22 23 20 22 23 24 22
41 41 42 41 40 38 38 38 40 40 40 39 38 38 39 39 41 42 42 41 37 41 39 40 40 36 30 19 28 33 27 36 34 28 24 20 23 24 27 22 18 19 20 21 21 23 24
41 40 40 40 39 38 38 38 39 41 40 38 38 38 38 39 40 42 37 27 19 23 27 19 13 10 12 12 15 19 17 31 31 26 7 15 14 15 16 21 21 19 18 19 21 22 23
41 42 40 38 37 37 37 38 40 39 38 38 38 38 38 39 40 40 33 25 30 33 28 24 22 23 24 25 25 20 19 22 27 22 6 13 8 12 14 17 18 23 23 18 19 24 24
39 37 36 36 37 37 37 38 39 38 38 38 38 38 39 39 39 34 30 29 32 34 27 18 20 24 28 29 27 26 20 16 22 23 11 9 10 11 17 16 20 22 18 16 17 19 20
36 35 35 36 36 38 38 37 37 37 37 37 38 38 39 39 33 30 23 27 33 36 23 7 21 33 36 34 30 29 25 18 19 20 20 12 9 15 18 17 20 15 16 16 17 17 15
36 35 35 36 36 38 37 37 37 37 38 38 38 39 39 39 33 27 26 32 34 37 3 0 21 35 30 33 31 27 29 21 17 20 26 20 18 16 16 13 14 12 12 15 13 11 14
37 37 37 36 39 37 37 38 37 38 39 38 38 39 39 33 32 32 34 36 35 22 -0 4 15 20 17 26 25 26 29 24 20 20 27 23 27 21 17 18 17 15 14 18 21 21 20
36 38 36 35 35 34 37 38 38 38 39 39 39 39 37 33 30 37 37 30 14 4 -4 7 15 15 17 26 29 24 24 19 15 20 20 22 20 29 25 26 21 22 22 20 19 20 14
35 34 35 33 33 37 37 38 38 38 39 39 40 39 35 34 37 39 33 18 1 -7 2 18 13 16 27 31 29 23 19 15 16 14 14 14 13 28 31 23 22 22 20 16 8 8 10
35 36 34 33 35 37 38 38 37 38 39 40 40 32 31 37 40 37 28 10 0 3 8 10 12 20 21 23 31 20 14 10 14 17 12 12 11 19 30 31 26 26 23 24 20 24 18
38 35 32 32 36 36 39 38 37 39 40 40 32 30 30 40 40 34 23 14 12 14 14 13 17 21 20 21 28 28 15 11 13 17 18 13 18 20 30 31 31 26 26 22 22 18 15
38 33 32 37 34 37 37 37 37 39 40 38 32 22 30 39 38 29 19 17 18 17 16 15 22 23 23 25 28 30 31 25 28 19 19 17 18 24 27 23 24 27 25 25 23 24 16
37 32 34 34 34 36 37 36 37 39 40 36 31 21 32 39 26 23 19 20 22 21 19 17 24 24 25 27 28 31 30 30 30 27 22 30 23 20 20 30 25 21 20 22 18 23 24
33 33 32 33 37 37 36 36 37 38 38 34 29 24 30 37 20 17 20 18 21 22 22 16 15 22 30 28 27 30 33 33 33 30 27 28 25 24 26 27 27 25 28 28 30 28 25
35 36 32 34 34 36 35 36 36 38 39 34 29 24 23 30 28 22 18 19 22 23 30 29 27 33 31 30 32 29 31 33 34 32 34 29 24 22 18 21 24 26 27 28 26 23 21
39 34 32 37 33 36 36 35 36 38 40 34 30 25 26 22 22 23 21 23 21 23 25 32 29 27 29 26 27 28 31 31 29 33 33 30 21 22 22 22 21 19 17 19 19 20 19
38 36 34 36 33 34 34 35 37 37 40 35 30 24 25 23 23 20 20 21 19 20 26 25 26 28 27 27 29 28 30 30 28 29 30 32 23 18 19 19 16 13 12 13 15 18 19
36 34 34 33 31 32 34 36 35 37 39 35 33 33 29 21 19 17 15 14 16 18 22 26 27 26 25 28 30 31 32 32 31 29 28 23 19 13 16 16 11 9 15 13 16 20 21
34 35 33 33 34 33 34 36 35 37 40 37 35 34 28 20 19 17 18 17 16 17 22 25 26 26 28 32 32 31 32 29 28 29 29 21 16 16 14 13 2 17 18 21 20 26 28
32 34 33 34 31 34 39 38 35 39 40 39 38 35 29 23 19 16 19 19 20 22 22 24 26 28 32 31 23 15 17 20 24 27 27 27 20 16 12 8 12 22 26 25 22 22 30
32 34 34 33 32 35 38 34 35 38 40 40 38 39 33 27 19 20 20 22 20 20 18 23 26 30 31 28 22 17 14 17 16 20 27 26 26 18 17 8 9 25 28 30 29 18 32
33 33 33 33 32 36 37 33 33 38 39 40 39 39 35 30 24 24 21 19 23 18 17 20 24 27 29 26 21 19 16 21 16 15 20 23 24 20 19 15 18 31 30 28 18 27 33
33 34 34 33 34 35 38 34 34 37 38 39 39 40 36 29 27 28 26 23 22 22 20 23 25 24 26 23 21 22 22 23 22 25 24 21 21 21 21 18 17 32 29 27 31 34 34
34 34 33 33 34 38 38 35 35 36 38 40 37 40 40 33 32 34 33 31 29 26 26 27 27 26 28 25 24 24 24 25 23 20 26 25 28 26 27 25 30 31 29 31 32 30 31

GFSGBSN_sfc_30mbdewp_099.txt.gz
Dewpoint
47 46 45 44 43 43 43 44 43 42 42 42 42 42 42 42 42 43 43 43 43 43 42 43 44 46 42 21 16 15 39 33 22 12 20 24 26 21 17 19 23 20 21 23 23 21 21
46 45 44 43 43 43 43 43 42 42 42 41 41 41 41 41 41 41 41 42 44 43 43 43 44 47 40 22 15 13 13 15 15 10 7 20 19 22 19 18 22 22 22 24 24 23 22
45 45 45 44 43 44 43 42 41 42 41 40 41 41 40 40 40 40 40 41 43 44 43 43 45 46 37 23 17 14 13 13 13 11 12 23 20 19 22 21 21 21 23 24 24 25 24
45 45 45 45 45 43 42 40 42 41 40 40 40 40 40 40 40 41 41 43 43 43 42 44 47 42 35 24 22 23 22 19 18 20 17 17 26 23 20 22 22 19 21 21 23 23 23
43 42 43 44 43 41 39 39 41 40 40 40 39 39 39 40 41 43 43 43 43 43 41 47 43 37 31 27 25 25 30 27 29 26 22 15 18 24 25 22 20 19 18 18 19 21 21
42 42 43 42 41 39 39 38 40 40 41 39 39 39 39 39 41 42 42 41 36 37 38 34 34 33 32 23 12 22 27 29 31 31 27 17 12 10 17 22 18 18 19 20 19 21 22
42 42 42 40 39 39 38 38 41 41 39 38 39 39 39 39 40 41 38 23 20 18 26 20 15 20 13 11 15 12 8 6 18 27 24 19 9 5 9 19 20 20 20 24 23 22 23
42 41 40 40 38 38 38 39 39 39 39 38 39 39 39 40 40 40 34 25 25 27 25 23 19 17 17 18 19 23 26 18 7 9 23 15 4 3 12 14 20 21 31 30 26 23 23
41 41 40 38 38 37 38 39 38 38 38 38 38 39 40 40 40 36 26 22 25 29 25 16 13 17 26 31 27 25 26 20 9 11 15 16 4 2 7 10 14 24 28 25 21 20 23
39 39 38 38 37 39 38 37 38 37 38 38 39 39 39 41 36 28 19 25 29 32 21 6 9 27 29 28 26 22 25 19 10 12 19 17 5 7 8 10 13 16 22 22 19 23 23
38 37 37 37 37 38 37 37 38 38 38 39 39 39 40 40 33 26 27 31 31 35 7 0 16 30 24 12 14 18 28 23 11 11 16 19 5 9 10 13 16 15 18 20 22 18 16
37 37 36 37 39 38 37 39 37 38 39 39 39 40 39 30 30 30 34 35 32 23 4 -6 10 8 6 9 21 25 27 27 14 9 13 18 16 14 12 15 16 18 16 14 14 11 10
37 38 37 37 37 35 37 38 38 38 39 39 40 40 38 32 30 33 36 29 14 -0 -7 -7 1 4 5 29 27 28 24 24 10 6 16 26 30 17 15 17 20 18 16 15 13 14 13
38 38 37 34 34 36 38 38 38 38 39 40 41 40 36 32 35 37 32 21 4 0 1 3 6 7 16 28 25 32 24 17 12 13 21 24 24 19 23 19 20 17 16 22 15 17 16
35 35 34 34 35 38 38 38 37 38 40 40 39 32 30 36 38 36 26 10 3 5 6 8 9 11 21 24 27 30 24 14 10 12 27 25 16 26 24 21 19 18 18 23 26 21 16
36 36 35 34 36 37 39 38 37 39 40 40 32 27 28 37 38 33 23 13 12 13 14 13 13 22 20 21 25 26 11 12 11 18 25 16 21 18 23 26 22 21 21 21 21 15 8
39 37 33 33 36 37 38 37 37 39 40 39 33 23 30 37 37 28 22 16 17 17 16 15 13 15 21 25 26 26 29 9 17 13 16 16 23 16 22 24 20 21 23 21 19 19 19
39 34 35 37 35 35 38 36 37 38 40 38 30 24 31 36 30 23 19 18 20 18 19 19 18 27 26 28 26 29 31 34 28 25 13 17 21 18 19 19 29 19 23 20 21 19 19
38 34 32 34 35 36 36 36 37 38 40 32 29 22 31 34 23 20 19 20 21 21 25 26 28 29 30 29 27 30 31 35 34 31 25 28 22 16 22 23 28 25 27 20 25 27 23
34 34 32 33 38 36 36 36 36 38 40 35 28 27 23 27 28 22 21 21 22 23 25 31 33 32 30 28 29 29 30 34 32 33 36 34 25 16 16 19 19 25 22 23 23 19 19
34 38 34 32 36 35 35 36 36 38 40 36 30 27 25 23 23 22 22 23 22 21 23 25 25 22 24 27 26 27 29 31 32 32 35 33 31 31 23 18 20 23 25 25 24 20 19
36 38 34 36 35 36 35 34 36 37 40 34 31 24 23 21 21 20 20 22 19 18 21 22 23 22 23 22 24 25 26 28 31 32 32 31 22 22 17 20 18 15 14 13 13 15 17
39 37 34 36 34 33 34 36 36 36 39 32 29 29 27 21 16 15 15 14 14 17 20 23 23 23 22 23 27 29 30 30 30 28 27 24 20 20 15 11 10 14 13 11 15 20 20
38 36 35 34 33 32 34 37 35 36 39 34 30 29 26 21 15 12 13 13 13 15 20 22 24 23 24 28 29 26 30 28 24 27 27 22 15 16 13 10 8 17 20 19 22 25 27
37 36 35 33 34 34 34 35 36 37 39 40 36 33 28 23 17 15 15 15 17 17 19 19 22 24 29 28 22 16 19 22 18 23 23 24 20 13 10 10 16 19 24 24 22 29 28
32 34 34 35 34 32 38 39 36 38 39 41 37 36 32 28 20 18 20 17 15 14 15 18 23 27 28 24 21 15 14 16 13 16 21 22 22 17 15 6 12 30 28 28 26 25 31
34 34 34 35 33 34 38 36 34 37 39 40 38 39 35 29 24 23 21 22 21 17 15 17 23 26 27 25 23 16 18 17 17 14 16 18 21 19 16 13 24 30 29 29 21 26 33
36 35 35 34 34 35 38 38 34 35 38 38 39 40 37 30 26 27 28 24 23 20 19 21 23 24 26 23 20 22 22 21 22 20 21 23 24 21 21 16 19 30 29 27 28 32 34
37 36 36 35 34 35 37 37 35 35 38 38 37 40 41 35 30 34 33 33 31 28 26 22 25 25 26 25 24 25 24 24 20 25 24 25 28 26 27 25 30 30 30 31 32 30 31

GFSGBSN_sfc_30mbdewp_105.txt.gz
Dewpoint
52 50 49 48 47 46 44 45 44 42 43 42 42 42 42 42 42 41 41 42 42 42 42 42 43 43 43 36 33 30 36 42 37 27 17 13 8 6 15 24 25 19 12 13 19 25 25
52 50 49 48 46 44 44 44 42 42 43 41 42 42 41 41 41 41 41 41 41 42 43 44 44 43 42 25 25 20 26 36 30 25 21 18 15 9 5 7 16 22 21 16 16 19 25
50 49 48 47 45 44 44 43 42 42 41 41 41 41 41 41 41 42 41 41 43 43 44 45 45 43 38 26 22 23 27 29 27 19 15 9 10 8 6 7 12 14 15 17 21 17 17
50 49 47 45 44 44 44 43 42 42 40 41 41 40 40 41 42 42 42 44 44 44 45 45 45 42 33 31 31 32 32 28 24 22 18 18 17 14 10 10 9 13 16 12 16 20 18
50 49 46 45 45 45 44 42 42 41 40 41 40 40 40 41 42 43 44 44 45 46 46 46 43 41 35 36 33 31 18 15 14 15 24 22 17 14 12 9 9 11 14 12 14 20 20
50 47 46 46 46 45 43 40 41 40 41 39 39 39 40 41 42 43 44 44 42 43 36 37 35 34 33 25 17 18 17 15 14 14 12 15 19 19 13 11 7 8 16 16 14 17 20
49 47 48 47 46 45 42 40 41 41 40 40 39 40 40 41 41 42 43 33 18 19 21 16 14 16 17 18 19 18 16 16 15 16 12 10 4 10 25 13 12 10 14 17 15 17 27
49 48 47 47 45 43 41 40 41 40 39 39 39 40 40 41 41 43 42 22 22 25 24 24 22 19 18 18 21 18 23 22 22 19 24 25 8 4 7 25 18 10 9 12 14 19 33
49 47 46 45 44 42 41 40 40 39 38 39 40 40 40 41 41 41 31 27 30 31 25 23 20 14 29 31 21 15 11 19 19 26 21 22 25 15 3 14 26 18 6 6 6 32 37
48 47 46 45 43 41 40 40 39 38 38 39 40 40 41 42 39 35 27 32 33 33 24 8 3 20 20 17 8 9 10 25 23 21 23 26 27 25 16 19 29 11 7 3 5 25 29
47 47 46 44 43 42 41 40 38 38 38 40 40 41 42 42 37 34 32 37 36 34 8 5 4 13 14 14 18 23 26 25 27 28 27 27 20 15 9 4 23 23 10 7 6 31 30
47 46 44 44 42 42 40 38 38 37 39 39 40 41 42 38 40 37 38 39 37 23 5 6 10 12 15 21 24 25 25 29 29 28 29 30 21 11 19 25 26 26 25 31 32 28 24
45 45 44 43 41 42 39 38 38 38 38 39 40 41 41 39 33 37 39 37 24 5 9 7 11 14 16 21 25 26 27 28 29 24 22 22 10 8 25 24 29 26 22 22 24 23 19
45 44 43 41 40 40 38 39 38 38 38 39 41 42 40 38 38 40 38 31 8 10 9 12 13 15 17 24 26 26 25 29 30 28 22 6 11 19 22 22 26 25 23 21 15 19 18
43 43 42 40 40 39 37 38 38 37 38 40 41 39 39 40 39 40 35 14 11 11 13 15 16 17 20 23 26 26 24 29 29 29 14 17 22 27 31 29 26 22 23 27 25 31 23
41 40 41 40 39 37 39 38 37 37 39 40 38 38 35 36 39 39 30 17 14 15 17 19 18 20 21 23 25 26 24 24 34 34 35 31 23 30 27 22 21 18 24 19 28 19 20
41 42 40 38 37 39 38 39 37 37 38 40 38 34 36 37 40 36 24 16 18 18 22 22 22 23 24 27 27 27 25 26 31 34 35 33 31 28 26 28 21 23 27 31 31 29 23
42 41 39 37 38 39 38 38 36 36 39 40 37 28 35 37 31 31 23 19 20 20 22 24 25 25 27 29 27 28 26 29 33 36 34 34 30 23 24 31 31 31 29 33 25 28 30
40 39 38 37 37 38 38 37 35 36 39 38 33 32 35 37 25 21 21 21 21 21 21 23 26 26 29 30 26 26 27 27 33 34 33 35 27 22 28 29 35 33 30 31 31 33 29
39 40 37 36 38 35 38 36 35 35 38 38 35 27 31 32 30 25 21 22 21 22 19 21 21 23 25 29 27 23 23 27 32 33 36 36 31 29 25 29 31 30 32 35 34 29 30
40 38 37 37 35 35 37 36 35 35 39 39 33 29 26 26 28 22 21 21 21 19 16 19 19 19 21 27 20 21 23 27 32 34 34 34 28 31 33 34 32 33 33 34 31 33 30
38 38 36 36 37 36 37 36 35 35 38 37 24 31 25 20 21 19 21 21 17 15 14 18 17 19 21 21 21 21 23 29 32 35 33 34 29 31 32 32 32 30 30 27 31 34 33
38 37 36 36 38 35 36 35 35 36 37 34 30 30 27 27 21 18 16 13 12 14 16 16 16 20 20 23 24 25 27 30 33 32 29 31 31 29 26 25 27 27 28 28 29 30 30
37 38 36 35 37 36 36 35 36 35 37 38 34 30 27 25 24 14 13 13 14 14 15 17 19 22 24 26 28 29 31 33 33 28 29 22 25 27 14 22 21 27 31 32 29 29 30
37 38 37 37 37 35 35 37 36 36 37 37 39 34 32 25 24 20 15 19 21 20 16 18 23 24 26 28 26 24 25 25 24 25 23 24 26 24 23 24 28 26 25 27 29 27 30
37 37 36 37 36 35 35 37 38 37 38 38 39 38 32 28 26 28 19 22 20 21 21 23 25 25 28 26 26 24 20 19 25 27 23 26 29 27 21 21 19 23 26 28 29 21 32
38 39 37 37 37 36 36 37 38 37 39 38 39 39 34 27 28 28 25 25 24 22 22 25 26 27 28 27 24 23 24 22 22 22 23 23 26 23 24 24 23 27 28 28 22 22 32
39 38 38 37 37 36 38 37 36 36 38 39 40 40 36 30 30 33 33 30 29 26 25 26 25 26 26 25 23 22 24 24 25 27 24 24 25 22 23 20 17 28 26 23 28 31 32
37 37 37 38 36 36 38 38 35 34 38 38 37 41 39 33 31 36 34 33 32 30 30 29 28 29 30 24 25 25 23 26 25 23 27 25 26 24 25 23 30 30 30 32 33 31 32

GFSGBSN_sfc_30mbdewp_108.txt.gz
Dewpoint
52 52 52 51 49 49 47 45 46 43 43 43 42 43 43 42 42 42 42 43 43 42 42 43 45 44 41 26 15 31 35 38 45 30 25 19 13 10 13 29 27 19 14 10 10 12 17
52 53 52 51 49 48 46 45 45 43 43 43 42 42 42 42 41 42 42 43 43 43 44 45 45 44 39 8 23 24 25 30 33 30 26 20 15 14 9 6 8 17 18 21 23 20 15
53 54 52 50 49 47 46 45 44 43 43 42 41 42 41 41 41 42 42 43 44 45 45 46 46 43 39 24 26 32 32 29 29 27 23 21 17 17 13 9 9 9 9 10 12 15 19
53 54 52 50 49 47 46 45 43 43 42 41 42 41 41 41 42 42 43 45 46 45 46 47 46 42 31 35 33 31 28 17 17 16 15 16 18 17 16 15 12 10 8 5 9 14 15
53 53 51 50 48 47 46 45 43 43 41 41 41 40 40 41 42 44 44 45 45 46 47 48 42 40 33 38 27 19 19 17 16 15 15 15 13 20 19 13 10 9 5 5 6 13 15
53 52 52 50 48 47 46 44 43 42 41 41 40 40 40 41 43 44 44 44 41 38 31 44 36 35 33 19 18 19 21 19 16 16 16 13 11 10 16 15 12 10 5 5 8 14 15
54 53 51 49 47 46 45 43 41 42 41 40 40 39 41 41 42 43 43 34 21 14 24 17 16 17 18 18 19 20 21 19 21 20 17 22 21 14 8 10 22 20 11 8 8 10 15
53 52 50 49 47 46 45 42 42 42 41 40 39 40 41 41 42 43 41 23 24 25 23 25 25 23 22 21 18 19 23 17 16 18 28 21 18 22 25 24 15 13 19 21 12 10 11
53 52 50 49 48 46 43 41 41 42 40 39 39 41 41 42 43 40 31 30 31 30 26 24 23 19 22 28 19 18 17 17 15 16 18 20 18 20 24 24 23 8 5 21 21 12 12
52 51 50 49 48 45 42 41 42 41 39 38 40 41 41 43 37 37 30 36 36 32 22 9 9 20 20 18 15 20 24 23 23 21 21 20 20 19 23 23 25 16 15 24 26 16 7
51 50 49 48 47 45 43 42 41 39 38 39 40 41 42 42 39 33 34 38 38 33 -2 10 9 15 15 17 19 24 27 26 24 23 23 22 21 22 23 23 24 20 16 23 22 12 10
49 49 48 47 46 45 43 41 40 38 38 39 40 41 42 39 41 37 38 39 37 18 -2 9 11 13 15 17 23 26 27 28 28 28 28 27 29 28 25 18 16 22 25 24 26 15 11
48 47 47 46 46 44 42 41 39 37 38 39 40 41 42 41 32 37 40 36 19 4 12 10 12 15 17 18 25 26 26 29 30 26 21 22 25 21 23 19 21 23 24 18 14 18 17
46 47 46 46 45 43 41 39 39 38 38 38 40 42 40 40 39 40 38 28 3 11 10 14 17 19 17 22 26 25 25 25 32 31 27 18 11 21 30 25 17 27 23 16 17 19 21
46 46 46 44 43 43 41 39 38 38 38 40 41 38 36 39 39 40 33 12 11 12 14 17 19 19 19 22 26 26 25 23 32 33 27 26 17 23 23 22 26 23 23 24 21 27 19
46 45 44 44 43 41 39 39 39 37 38 40 36 37 36 38 40 38 27 14 14 16 21 21 18 20 20 23 26 25 24 24 28 30 35 32 24 25 30 30 31 28 29 21 25 16 15
45 44 43 43 42 40 39 38 38 37 39 41 37 33 35 37 40 33 20 16 18 20 22 23 23 23 24 25 27 25 25 24 27 30 34 36 29 28 29 29 30 26 26 26 26 25 20
44 44 43 42 39 40 38 38 37 37 39 39 37 28 35 38 29 29 23 19 21 21 23 23 25 25 25 27 28 25 25 26 27 31 31 33 32 27 28 33 35 32 30 28 21 22 28
44 43 42 40 40 39 40 37 36 37 40 38 34 31 36 36 23 21 22 22 22 21 20 22 24 26 26 26 26 26 27 27 27 29 33 34 31 23 24 31 34 32 30 31 34 32 28
43 42 40 39 40 39 39 37 36 37 40 37 34 27 31 33 29 23 20 22 22 22 21 20 21 21 24 23 31 23 22 24 26 31 36 36 32 28 23 25 29 30 33 35 33 29 28
41 40 38 38 37 38 38 37 35 37 40 38 32 29 29 25 27 24 21 22 21 19 17 17 18 17 21 19 21 21 22 23 28 32 34 34 28 30 32 32 33 31 31 33 32 32 26
41 39 39 39 36 37 37 36 35 37 39 36 28 29 25 22 27 22 21 21 21 15 13 14 15 16 20 19 22 19 21 26 28 32 32 33 29 31 30 32 31 28 30 31 31 31 30
39 38 39 38 37 37 36 36 35 37 38 35 32 31 27 26 22 20 19 13 12 16 17 16 18 20 21 21 23 24 26 27 28 28 31 28 29 29 25 30 29 21 27 28 28 31 30
38 35 36 38 36 36 36 35 36 36 37 37 36 31 25 23 23 19 14 13 18 21 17 23 21 20 21 26 28 29 30 29 31 32 33 30 25 29 24 29 15 26 31 30 27 28 29
38 36 36 37 37 36 36 36 36 37 38 37 38 33 29 23 25 23 21 21 21 22 20 24 23 25 28 26 25 25 25 23 27 28 28 29 28 28 25 25 26 25 26 26 27 25 29
39 38 37 38 38 37 37 37 37 38 38 37 38 37 31 25 26 28 23 23 21 21 20 24 26 29 28 28 27 24 23 21 25 26 26 28 28 30 28 20 17 24 25 27 28 21 30
39 38 38 38 37 37 37 39 37 38 39 39 38 38 31 25 28 29 25 24 26 23 22 25 26 27 28 25 24 21 22 25 24 24 24 24 26 22 23 21 22 26 27 28 21 21 30
39 39 39 38 38 38 37 38 38 38 39 39 39 39 33 28 28 33 33 29 29 27 23 26 23 26 26 23 21 22 23 24 27 26 26 24 24 21 21 17 15 29 27 22 28 31 31
40 39 38 38 38 38 38 36 35 38 39 38 36 40 38 29 27 35 33 31 30 31 29 30 29 30 29 24 24 25 22 25 27 22 30 23 25 23 24 22 29 31 29 32 33 31 32

GFSGBSN_sfc_30mbdewp_111.txt.gz
Dewpoint
56 55 53 52 53 51 50 48 46 46 44 44 43 43 43 44 43 43 43 43 44 44 45 45 46 46 38 20 9 28 32 33 36 32 25 22 16 14 12 24 29 27 23 21 19 16 13
56 55 54 53 52 51 50 48 46 46 44 44 43 42 43 43 42 42 43 43 44 45 46 46 46 45 36 8 19 25 32 31 28 27 22 23 20 17 14 11 10 13 8 7 7 7 11
55 55 54 54 52 51 50 49 47 46 44 44 42 42 42 42 42 42 43 43 45 45 46 46 47 43 37 19 27 34 32 29 26 21 17 18 18 17 17 14 15 10 12 12 11 8 9
56 54 53 54 52 52 50 48 47 45 44 43 41 42 41 41 42 43 43 44 45 46 47 47 47 42 22 34 36 38 28 19 20 18 17 16 16 15 15 16 15 15 14 9 9 8 8
56 54 53 54 53 51 50 48 47 45 44 42 42 41 41 41 42 43 44 45 45 46 47 47 43 39 22 37 32 23 20 19 19 17 16 17 16 13 17 17 17 16 11 9 8 9 7
56 55 53 54 52 51 49 48 47 45 44 42 42 40 40 41 42 44 44 45 41 37 47 42 40 33 29 18 18 19 21 20 19 17 17 17 16 12 13 13 12 17 17 18 18 15 7
56 55 53 54 52 51 48 47 46 45 43 42 41 40 40 41 42 43 44 27 17 11 23 14 18 19 16 18 20 19 21 21 21 20 17 20 21 18 17 16 13 10 9 8 16 25 19
56 55 54 54 52 50 48 47 46 45 43 42 40 39 41 41 42 44 39 26 25 26 24 26 25 23 23 22 19 19 20 18 15 15 21 22 17 16 20 23 22 20 18 14 14 14 24
56 55 54 54 52 50 48 46 45 44 43 41 40 40 41 42 43 38 31 31 32 29 26 23 24 21 17 22 20 17 23 22 22 20 18 18 16 17 18 19 16 20 23 21 19 11 20
56 54 53 53 51 49 47 47 45 45 43 40 39 41 42 42 36 36 32 37 35 32 20 10 11 15 18 19 17 21 25 25 24 22 22 21 22 19 18 18 19 21 23 23 18 17 14
56 54 54 52 50 48 48 47 46 45 42 39 40 41 42 43 36 31 35 38 38 32 -10 10 9 17 17 17 19 25 27 26 24 25 27 26 23 21 21 20 24 21 24 24 19 14 24
55 54 53 51 49 49 47 46 46 44 41 39 40 41 42 41 40 36 38 39 36 12 -9 9 12 15 19 19 23 26 26 29 28 27 28 28 28 28 26 25 25 23 23 23 22 21 19
55 53 51 50 49 48 46 46 45 43 40 40 40 41 41 40 32 38 39 36 16 -3 12 10 13 19 19 21 24 26 26 26 31 26 25 27 24 29 29 26 23 23 21 13 18 19 15
54 52 50 49 47 46 46 45 43 41 39 39 40 42 41 39 39 39 37 26 1 11 11 15 17 20 18 24 24 26 26 24 31 33 27 25 16 20 28 18 19 23 22 19 14 17 19
53 51 49 47 46 46 45 43 42 39 39 39 41 38 35 38 38 39 29 12 8 12 13 18 20 18 19 22 26 26 25 24 30 31 27 26 23 24 26 26 24 23 23 24 24 24 24
51 49 47 46 46 45 44 42 40 39 38 40 35 37 36 40 40 37 25 13 14 17 21 22 19 21 20 22 24 24 24 24 26 27 30 32 25 27 31 30 27 26 30 25 28 19 15
48 47 46 45 44 44 42 42 40 38 39 40 36 30 36 39 39 31 17 15 18 21 23 22 22 22 23 23 27 23 25 26 26 26 29 33 30 26 28 30 30 29 26 29 28 25 20
47 46 45 44 43 42 42 41 38 38 41 38 37 28 36 40 31 27 22 21 21 21 23 23 25 25 23 25 26 25 24 25 26 25 28 32 32 27 27 33 36 34 30 29 21 22 27
45 44 43 43 43 42 42 39 38 39 39 37 32 31 36 36 23 25 23 22 21 21 21 22 23 26 26 22 21 26 25 28 24 24 31 34 28 24 20 28 34 32 31 32 33 31 25
42 42 43 43 43 41 40 38 38 39 40 38 32 25 31 33 28 22 22 21 20 23 21 19 19 21 21 21 28 23 23 21 22 27 33 36 32 28 23 26 31 29 33 34 33 28 25
42 42 42 43 42 41 39 37 37 40 40 37 32 27 29 26 26 22 21 21 20 17 16 17 18 15 17 18 20 23 21 21 24 30 31 34 28 30 30 30 29 28 30 33 30 29 24
42 43 42 41 41 39 37 36 37 40 40 36 28 28 23 27 28 20 22 21 20 18 12 12 16 17 18 19 20 19 20 22 23 30 29 35 28 31 28 29 27 25 27 28 31 30 28
40 40 41 41 40 37 36 36 37 38 38 33 32 31 24 25 25 20 20 20 18 15 16 20 21 20 19 20 23 24 24 24 24 25 28 32 30 29 24 29 27 18 25 26 26 28 29
41 40 38 38 38 37 36 36 37 39 38 36 34 29 23 23 21 20 20 15 19 20 16 23 21 20 22 27 28 28 29 28 28 29 29 31 30 30 26 28 15 25 30 30 25 26 29
39 38 37 38 38 36 36 35 38 39 39 38 37 31 26 23 24 21 19 21 21 22 20 24 23 23 28 28 25 26 24 22 29 30 28 31 31 28 25 21 24 26 26 25 26 24 28
39 39 39 39 38 38 36 37 38 39 40 38 37 35 29 24 25 28 22 22 20 20 19 23 27 29 28 28 27 23 22 22 23 26 27 30 30 28 26 19 16 23 25 28 28 20 28
39 39 40 39 39 39 37 38 39 41 41 38 37 36 28 26 28 27 22 22 25 23 21 24 26 27 28 23 22 21 20 25 24 23 24 24 26 22 23 21 22 25 29 31 21 21 29
39 39 39 39 39 39 38 38 39 41 41 38 37 37 29 27 27 33 32 28 27 25 15 23 22 25 24 20 20 21 23 24 27 28 28 23 23 21 21 15 15 28 27 22 28 31 30
40 39 39 38 39 39 39 38 39 39 39 38 34 38 34 26 28 34 32 32 30 27 26 29 28 30 28 24 24 25 22 25 25 23 30 22 24 22 23 21 28 31 29 31 32 30 31

GFSGBSN_sfc_30mbdewp_114.txt.gz
Dewpoint
57 57 56 55 53 53 52 51 51 48 47 45 44 44 43 44 44 43 43 44 45 45 46 47 47 47 35 14 4 22 37 33 30 28 24 23 20 16 14 19 15 12 16 21 17 9 9
57 57 56 55 54 53 53 52 51 49 47 45 44 43 43 44 43 42 43 44 44 45 46 47 47 46 31 -4 16 30 34 29 25 22 19 20 19 17 16 15 13 12 11 11 12 13 10
57 57 56 55 54 54 53 52 51 49 48 45 45 43 43 43 42 43 43 44 45 45 46 47 47 43 32 8 30 35 35 28 26 21 16 19 19 15 16 13 14 15 13 15 14 11 9
57 57 56 56 54 54 53 52 51 49 48 45 44 43 43 42 42 43 43 44 45 46 47 48 47 41 15 27 36 38 29 19 20 22 19 17 17 16 14 14 14 13 15 14 13 11 11
58 57 57 56 54 54 53 52 51 49 47 45 44 43 42 41 43 43 43 45 46 46 48 48 43 38 15 31 26 24 20 19 20 20 17 16 16 14 15 14 13 16 13 15 16 16 14
58 58 57 56 54 54 53 52 51 49 48 46 44 42 41 41 43 43 44 45 44 47 46 44 41 31 21 14 19 19 20 20 20 19 17 18 17 14 14 14 9 9 12 15 16 16 17
55 58 57 56 55 54 53 52 50 49 47 45 43 42 40 41 42 43 42 23 15 12 23 12 16 21 15 18 21 19 20 21 21 19 15 18 16 14 15 15 15 13 12 12 13 13 12
52 54 58 57 55 54 54 52 50 48 47 45 43 41 40 41 42 44 34 26 24 26 21 27 25 23 23 22 19 20 21 21 18 20 19 22 20 19 19 18 20 21 20 19 18 14 20
49 51 54 57 55 54 54 52 50 48 46 44 42 40 41 41 43 35 32 31 32 29 23 21 24 22 18 22 21 17 23 24 23 21 21 20 20 20 19 19 16 17 17 14 14 20 23
47 49 51 55 56 54 53 51 50 48 46 44 43 40 41 42 37 35 33 37 33 32 12 9 14 17 18 20 18 22 25 26 25 23 24 24 23 22 21 19 18 17 18 18 20 22 20
46 47 50 52 56 54 53 51 49 47 45 44 43 41 41 41 34 30 34 38 35 29 -29 11 11 17 20 20 22 23 27 26 26 27 26 24 25 26 25 23 21 19 22 23 22 23 22
46 47 48 50 55 54 52 50 47 46 45 43 40 41 42 42 37 36 38 39 34 3 -19 9 13 17 19 20 23 27 26 29 29 29 28 27 28 28 26 26 25 24 24 24 23 24 18
45 47 47 49 53 53 51 49 47 46 44 42 40 41 41 39 31 38 39 34 5 -8 11 10 12 20 19 21 24 26 26 26 31 26 23 26 26 28 29 26 23 25 22 16 14 18 16
44 44 47 49 52 52 50 48 46 46 43 41 41 42 41 39 38 39 35 21 -3 9 10 15 18 19 18 24 24 25 24 23 32 32 27 25 19 21 24 22 16 21 20 20 14 16 20
44 44 47 48 53 50 49 46 46 44 42 41 42 39 36 35 39 39 26 14 2 11 14 18 20 18 19 22 25 24 23 24 28 28 26 25 24 27 28 27 26 22 22 28 25 24 22
43 46 47 48 51 49 47 46 45 43 42 42 36 34 33 39 39 35 23 13 13 16 20 22 17 21 19 21 22 24 22 24 24 28 27 29 25 27 28 33 26 25 28 26 27 19 16
45 47 49 50 50 47 46 45 43 42 41 39 37 32 37 40 38 31 19 16 17 22 22 22 22 22 22 21 26 24 22 24 26 24 25 25 30 25 28 28 27 29 28 30 30 27 21
50 51 50 50 48 46 45 43 42 41 41 39 36 29 37 40 31 27 20 18 21 22 24 23 24 23 22 22 23 25 22 23 24 25 23 29 31 25 24 27 34 34 30 30 26 23 27
51 51 50 47 46 45 44 42 41 40 40 38 32 33 37 36 24 25 23 22 21 21 20 23 23 25 25 22 18 25 25 26 28 22 30 34 29 23 20 27 33 30 31 30 32 32 25
50 48 46 46 45 44 43 41 40 39 40 37 31 27 32 33 29 23 22 21 20 22 21 21 20 24 22 20 25 21 22 23 23 23 30 35 32 27 21 25 28 26 31 34 32 25 23
46 46 45 44 43 42 41 41 41 40 42 37 32 27 29 27 26 23 23 22 20 18 18 17 21 16 16 16 18 23 24 21 21 29 29 34 28 29 29 29 28 26 28 29 26 26 20
44 44 44 43 42 42 41 40 40 41 42 34 30 27 28 28 26 22 23 21 19 18 13 12 17 17 18 17 18 17 20 21 19 26 24 33 27 30 28 31 30 23 26 25 28 27 25
40 41 41 41 41 40 39 40 41 41 39 32 32 30 27 27 22 19 20 22 21 14 21 18 20 19 19 19 22 23 24 24 22 22 27 30 30 28 25 27 24 17 24 24 24 27 28
41 41 40 40 39 38 38 39 41 40 39 34 32 28 25 24 21 18 21 19 18 16 17 22 21 19 21 27 28 27 28 27 26 26 29 29 30 30 26 26 15 24 27 28 24 25 28
41 41 40 39 38 37 37 38 40 40 40 36 36 28 26 23 22 20 19 21 22 22 21 23 23 23 29 28 25 25 24 23 29 31 34 32 31 27 25 21 24 25 25 25 24 23 27
40 40 39 38 38 38 40 41 42 41 39 37 36 33 29 24 22 24 21 21 19 19 18 22 26 30 28 27 26 22 20 22 23 26 30 30 30 28 25 20 16 22 25 29 29 20 27
40 40 39 38 38 39 40 42 42 41 39 37 36 35 30 27 28 25 21 21 24 21 17 23 26 27 27 22 21 20 20 25 23 23 25 23 26 22 23 20 22 25 29 32 21 20 27
40 40 39 38 38 40 41 42 41 41 39 36 36 36 29 28 28 33 30 27 26 21 9 22 22 25 23 18 19 21 22 24 26 28 27 21 21 20 23 18 16 29 29 22 27 30 28
40 39 40 39 39 40 41 41 41 39 37 35 32 36 33 28 29 33 32 32 27 22 26 28 27 29 27 23 24 24 22 24 25 23 30 22 23 22 22 21 28 30 29 31 30 31 29

GFSGBSN_sfc_30mbdewp_117.txt.gz
Dewpoint
58 57 57 57 56 55 54 53 53 52 50 48 46 45 44 43 45 44 44 44 45 46 47 47 47 47 31 1 2 23 40 32 27 24 21 21 20 17 14 14 14 12 11 15 15 12 11
58 58 57 57 56 55 54 53 53 52 50 49 47 45 44 43 44 43 43 44 45 46 47 47 47 46 25 -8 19 32 36 27 23 19 17 19 18 17 15 16 15 16 14 13 14 14 15
59 58 57 57 57 56 54 54 53 53 50 49 47 45 44 44 43 43 44 44 46 47 47 48 47 41 24 5 29 35 36 25 26 20 16 17 20 17 16 15 16 14 13 13 12 12 13
59 59 58 57 57 56 55 54 54 53 51 49 47 45 44 43 42 43 44 45 46 47 48 48 47 39 8 26 34 36 30 20 21 22 20 18 18 17 16 16 15 14 14 10 12 12 13
55 58 58 58 57 56 55 54 54 53 51 49 47 45 43 42 42 43 44 45 47 48 48 47 40 34 12 28 22 23 21 19 20 21 19 17 17 16 16 14 12 15 9 9 9 13 13
51 53 57 58 57 56 55 54 53 53 51 49 47 45 43 42 42 43 45 43 48 46 46 43 41 24 16 12 19 19 20 20 20 20 18 18 18 14 15 13 7 9 9 10 10 9 12
49 50 52 54 58 57 56 55 54 53 51 49 47 44 42 41 42 43 39 22 14 10 27 8 13 19 14 18 21 19 20 21 21 19 18 19 16 15 16 16 15 15 14 12 13 14 16
48 48 49 51 53 56 56 55 54 52 51 49 46 44 42 41 41 44 33 18 18 22 10 26 25 22 23 22 18 19 21 24 22 22 19 22 20 20 21 19 18 16 16 16 17 17 14
48 48 48 47 49 52 57 55 54 52 51 49 46 43 40 41 42 35 30 27 30 30 20 20 24 21 19 22 20 18 24 25 24 22 22 23 22 21 20 20 19 18 17 16 16 16 18
48 48 48 47 47 49 52 56 55 52 50 48 46 43 41 40 32 34 31 36 33 32 2 8 16 18 21 21 18 22 25 26 25 24 24 26 25 22 22 24 22 19 19 17 17 18 15
48 48 47 47 47 47 50 54 55 52 49 47 44 41 41 41 33 31 30 38 33 28 -33 10 13 19 21 21 22 23 28 27 26 28 28 22 26 26 26 25 21 14 20 20 21 21 21
48 47 46 44 45 47 48 52 54 51 48 46 44 40 42 41 36 34 38 39 33 -3 -31 10 15 17 19 21 24 27 27 29 29 30 28 27 28 28 27 27 25 23 24 23 23 23 18
46 47 47 46 43 44 48 50 53 50 47 46 43 40 41 40 32 38 39 35 -0 -18 7 9 12 20 19 21 24 26 26 31 27 23 22 25 26 28 29 25 24 26 22 18 14 17 15
45 47 47 46 44 44 48 49 52 49 47 44 43 41 41 39 38 39 36 20 -10 1 7 16 19 19 17 24 24 25 24 24 31 29 25 23 13 23 25 25 24 22 21 20 15 13 19
45 46 46 45 44 44 46 48 51 48 46 44 43 40 39 40 39 39 30 10 -4 6 13 18 20 17 19 21 25 24 23 23 27 27 19 22 22 27 27 29 26 24 22 25 26 25 23
44 46 45 43 43 44 44 47 49 47 44 42 36 33 32 38 40 35 27 8 11 14 21 20 9 20 18 20 21 23 22 24 23 28 26 25 23 25 28 30 30 27 28 27 27 19 15
44 44 44 43 41 44 44 47 48 45 43 39 33 30 37 40 39 33 25 16 16 21 21 21 21 21 21 20 24 24 22 23 25 26 23 24 26 23 28 25 24 26 27 31 31 27 21
43 41 41 41 43 44 44 48 47 44 40 37 34 28 40 39 31 31 24 18 22 23 24 24 24 22 20 23 22 23 22 23 26 26 22 28 31 23 22 25 33 31 29 32 25 23 28
40 42 43 44 45 44 46 48 45 42 39 37 32 33 39 37 25 27 24 22 23 21 22 24 24 24 24 22 15 23 24 27 28 22 28 33 28 22 18 26 23 26 29 33 33 31 27
45 49 50 51 48 45 48 45 43 40 39 36 33 28 34 36 32 25 22 21 20 22 21 23 24 25 22 21 25 20 23 24 25 22 30 33 30 26 20 24 28 23 27 31 32 25 21
52 52 49 47 46 48 46 44 41 39 40 37 33 30 30 26 30 25 24 23 21 19 20 18 20 18 16 15 19 21 25 23 21 28 29 33 27 29 30 29 27 26 25 26 24 25 18
51 50 48 48 48 46 44 41 39 42 43 35 31 28 31 26 28 25 24 22 19 16 15 16 19 17 18 16 15 15 19 20 18 24 24 34 27 30 27 31 30 24 25 23 27 25 24
46 47 46 45 45 43 41 40 41 43 39 35 33 31 30 28 26 23 23 22 19 16 21 16 18 19 19 19 21 21 22 23 20 20 23 29 29 27 24 30 27 21 23 24 24 26 26
43 44 43 42 42 41 40 40 42 44 40 34 32 32 28 25 24 22 22 22 18 16 19 22 21 18 21 28 28 28 27 27 26 25 25 29 27 28 25 27 17 25 29 28 23 25 27
39 40 42 42 42 42 41 41 43 43 40 35 34 31 29 23 22 23 21 21 22 23 22 22 23 23 29 27 25 25 25 26 29 28 27 30 30 26 24 22 24 25 25 25 24 23 26
40 41 40 40 40 41 41 42 42 41 38 35 34 34 30 23 21 22 21 21 19 19 19 24 26 30 28 27 26 21 20 22 23 29 33 32 30 27 26 21 17 22 27 30 29 19 26
40 40 40 40 39 39 40 42 42 41 39 35 33 35 31 27 28 23 20 20 22 18 18 22 26 26 26 23 22 21 21 25 22 22 25 23 25 22 22 21 21 25 29 33 21 21 26
40 39 39 40 41 41 42 43 41 40 38 33 33 35 30 29 31 31 29 25 23 18 11 23 23 25 22 18 19 21 22 24 25 27 26 21 21 20 22 20 17 28 30 23 26 29 26
38 38 40 42 42 42 42 41 40 38 36 33 29 34 35 31 31 32 32 31 22 19 28 28 24 28 26 23 24 24 23 24 25 22 28 22 24 22 22 21 28 30 28 30 32 28 28

GFSGBSN_sfc_30mbdewp_120.txt.gz
Dewpoint
59 59 58 58 58 57 56 55 54 53 53 51 49 46 45 44 44 45 44 44 45 46 47 47 48 48 33 -1 2 27 39 27 21 15 15 16 15 13 9 9 9 7 7 7 9 9 9
60 59 59 58 58 58 57 55 54 54 53 51 49 47 45 44 44 44 43 44 45 46 47 48 48 47 23 -7 20 32 33 20 17 15 12 12 14 16 14 12 12 10 12 11 10 10 10
60 59 59 58 58 58 57 56 55 54 53 51 49 47 46 44 44 43 43 45 45 47 48 48 47 36 19 11 26 28 29 22 22 19 16 16 15 14 15 12 15 13 11 9 8 8 9
54 55 59 58 58 58 57 56 55 54 54 52 50 48 46 44 43 43 43 45 46 48 48 48 47 34 9 22 28 29 21 19 21 21 20 19 17 15 15 16 14 11 11 6 6 7 9
52 52 54 57 58 58 57 56 55 54 54 52 50 48 46 44 43 42 44 45 48 48 49 47 37 32 12 27 21 18 20 18 22 21 21 18 16 16 17 12 8 11 4 4 4 7 8
47 49 51 53 53 58 57 57 56 55 54 52 50 48 45 44 42 43 44 45 49 47 43 39 37 28 18 11 16 20 21 23 22 21 19 19 17 14 12 10 2 4 7 8 7 7 10
46 48 49 49 52 53 58 57 56 55 55 52 50 48 45 43 41 43 39 36 25 19 28 10 10 13 9 17 21 19 21 24 23 22 19 21 16 8 10 15 15 13 12 11 11 12 13
48 48 48 48 48 49 51 56 56 55 54 52 50 47 45 43 41 43 37 16 14 25 2 23 22 20 21 21 17 18 23 24 25 22 22 21 16 14 19 19 18 17 15 14 12 13 13
46 47 49 47 47 48 48 49 52 55 54 52 49 47 44 42 41 38 29 25 29 31 16 18 22 18 18 21 18 19 25 26 25 23 22 20 17 21 21 20 20 19 15 14 12 15 17
46 47 48 49 47 47 47 48 50 54 53 51 49 47 43 41 34 35 26 34 31 34 9 12 17 16 22 21 18 22 26 27 26 23 25 23 23 21 22 21 22 18 14 12 13 16 15
46 47 48 49 48 47 48 48 49 52 54 51 48 45 40 40 34 32 31 37 35 31 9 8 13 21 20 20 21 23 28 27 25 25 27 19 22 23 23 22 21 17 19 17 18 20 20
46 47 47 48 48 47 45 46 49 50 53 50 48 44 41 41 37 35 40 36 35 11 3 9 12 14 17 20 22 24 26 29 30 29 28 25 25 26 25 25 25 23 23 23 22 21 17
46 46 46 47 48 47 45 43 44 49 52 50 47 42 39 40 32 41 41 36 9 9 6 9 10 15 14 17 21 23 24 28 24 20 17 20 22 26 27 23 25 24 24 17 15 18 8
46 46 45 45 46 47 47 44 45 48 51 50 46 43 39 41 42 43 41 29 9 10 -1 12 14 15 12 20 21 23 22 22 27 22 18 18 14 23 26 25 24 23 24 18 16 14 17
45 45 45 45 45 47 47 44 44 48 50 47 44 42 41 42 43 42 35 16 11 12 8 13 14 10 15 20 22 22 20 20 23 20 21 21 23 23 24 24 27 23 22 25 24 24 23
44 45 45 45 45 46 47 45 44 46 49 45 40 37 36 43 43 37 28 18 13 9 12 14 3 13 14 15 18 19 19 21 21 23 21 23 25 22 25 27 26 27 27 23 28 20 17
44 45 44 44 45 43 46 45 44 45 47 44 37 32 37 43 42 34 25 21 11 15 18 13 17 17 18 22 20 20 19 21 22 22 22 23 27 21 23 22 21 24 26 28 30 24 20
44 44 44 44 44 44 46 45 44 45 46 40 35 30 37 43 30 31 25 19 19 17 21 22 22 22 23 26 19 27 23 20 22 21 25 28 28 22 21 23 23 22 26 32 27 23 27
43 44 43 43 43 43 44 44 45 45 44 38 34 30 37 39 25 26 27 21 23 23 19 21 22 24 26 25 20 26 27 26 25 20 26 31 26 21 17 26 23 23 24 26 30 32 26
43 43 43 42 42 43 43 44 45 45 43 38 33 25 30 33 33 28 27 21 22 27 24 26 25 26 22 22 22 24 27 23 25 20 25 32 27 27 20 23 26 24 24 26 32 28 24
43 42 41 42 43 43 42 42 43 45 42 38 35 29 27 25 28 27 23 20 19 23 25 24 25 21 16 19 20 21 22 21 19 29 29 29 27 29 28 29 30 25 26 27 25 28 25
41 41 45 47 50 50 48 43 43 45 42 38 32 30 28 25 26 29 25 23 17 20 19 19 18 19 17 14 14 15 17 17 15 25 21 32 28 30 28 32 31 25 26 25 26 25 24
40 45 49 50 50 51 48 44 44 43 42 37 37 33 29 26 27 29 26 19 17 19 22 20 18 18 17 16 17 17 18 19 16 16 22 30 29 27 22 30 26 23 25 26 25 24 27
42 49 47 47 49 49 45 44 45 43 40 37 34 31 30 27 29 26 21 20 19 17 18 21 21 18 22 26 25 24 22 20 21 22 22 29 27 27 22 28 20 26 28 25 23 24 25
43 48 47 47 46 46 44 43 44 42 38 35 34 33 32 28 26 24 25 23 21 23 21 21 22 24 27 22 13 21 25 28 29 29 28 27 28 24 23 25 24 26 27 26 25 23 25
41 45 44 43 43 43 43 42 42 41 39 36 36 38 32 29 28 26 24 22 21 19 23 25 30 31 29 17 21 15 14 14 22 28 31 29 30 26 23 22 18 23 27 31 30 22 25
40 43 43 44 43 43 43 43 42 41 40 37 36 38 32 29 29 26 21 20 20 19 18 22 27 27 27 23 19 17 18 22 20 20 25 26 24 22 22 21 22 25 30 32 22 22 25
40 40 42 42 42 43 43 42 42 40 38 37 36 38 34 29 32 29 27 24 22 18 17 24 22 25 23 21 16 20 19 22 24 24 23 18 20 21 22 21 19 28 30 26 27 27 26
40 40 41 41 42 43 43 42 39 36 34 35 34 36 39 30 30 32 32 30 23 20 23 27 25 23 22 20 20 22 22 25 22 21 26 22 24 22 23 22 28 30 29 32 28 27 26

GFSGBSN_sfc_30mbdewp_123.txt.gz
Dewpoint
61 60 60 59 58 58 58 57 56 54 53 53 51 49 47 45 44 45 45 45 45 46 47 48 48 49 38 8 -3 26 33 34 20 10 9 9 10 10 5 4 4 3 4 4 5 5 5
61 60 60 59 58 58 58 58 56 55 54 53 52 49 47 46 44 44 45 44 45 46 47 48 49 48 28 1 18 27 23 17 14 13 12 11 10 11 9 9 7 7 9 8 7 7 7
55 60 60 59 59 58 58 58 57 55 54 53 52 50 48 46 45 44 44 43 45 47 48 48 48 36 21 10 21 20 21 18 19 18 17 16 15 12 11 10 12 12 9 7 5 5 6
53 54 54 58 59 58 58 58 57 56 55 54 52 50 48 46 45 44 43 44 46 48 48 48 47 31 14 18 21 22 18 16 19 19 19 18 16 14 14 14 13 10 9 7 2 4 5
50 50 51 53 54 58 58 58 57 56 55 54 53 51 48 46 45 43 43 44 47 48 48 47 38 30 12 23 17 15 18 17 20 22 21 17 16 16 15 13 5 8 1 -0 2 4 5
47 47 48 50 52 53 55 57 57 56 56 55 53 51 49 46 44 42 43 44 48 47 44 33 28 26 20 12 14 16 19 22 22 21 20 18 17 15 12 8 2 2 3 5 5 6 8
48 48 48 49 49 50 52 53 57 56 56 55 53 51 49 47 43 42 41 36 33 30 26 16 12 12 6 10 16 17 19 21 22 21 16 20 14 8 7 12 13 12 12 10 10 10 11
44 46 48 48 48 48 49 50 51 56 55 55 53 51 49 47 43 42 40 24 21 25 16 16 10 9 15 15 11 16 21 21 22 17 20 18 16 13 15 15 16 16 16 14 12 10 10
45 45 45 46 47 47 48 48 49 51 55 55 53 51 48 44 41 39 26 22 30 32 15 22 16 13 12 14 8 14 21 22 20 18 18 15 13 18 14 15 16 16 16 16 11 10 11
44 45 46 46 47 48 48 48 48 49 52 54 52 50 46 41 33 34 27 26 32 37 22 22 16 14 17 14 14 16 22 23 21 17 18 17 18 18 15 16 18 17 16 13 13 14 12
43 45 46 48 48 49 49 48 47 48 50 52 52 49 42 38 35 31 34 36 37 36 23 20 13 18 16 12 19 19 25 25 20 21 22 15 19 18 17 19 21 18 21 21 21 20 20
43 44 45 47 48 49 49 48 46 46 49 50 51 47 42 40 39 36 38 41 36 26 21 10 12 13 14 15 16 22 24 27 26 23 22 20 21 21 21 23 23 24 23 22 22 20 16
43 44 45 47 47 48 49 48 45 43 46 51 50 45 41 44 39 40 41 37 25 23 16 11 10 11 11 14 15 17 20 23 22 19 20 19 20 21 25 22 21 24 20 16 11 17 14
44 45 45 47 47 47 47 48 47 44 45 49 49 45 44 42 43 45 41 31 22 27 21 10 9 12 10 13 15 17 17 18 22 18 13 9 16 20 23 20 19 20 20 16 12 12 14
43 45 45 45 46 46 46 47 48 44 44 48 48 44 41 43 46 45 35 26 26 26 21 10 11 9 9 14 18 17 14 14 19 18 18 15 17 20 22 22 21 22 18 25 25 20 21
42 43 43 45 45 46 46 46 48 45 44 48 42 40 39 44 45 39 32 29 31 26 14 12 10 11 10 13 13 14 12 15 19 21 21 23 25 19 21 24 23 24 22 22 26 21 17
42 43 43 44 44 46 46 46 47 45 46 45 40 36 41 44 40 34 27 29 31 24 18 13 13 13 12 13 15 13 13 18 19 22 23 23 28 20 20 21 18 22 24 27 26 22 21
41 42 44 44 44 45 45 45 44 45 46 44 38 32 42 43 29 31 28 33 29 23 16 17 16 17 16 24 18 26 21 20 20 21 23 24 27 22 17 21 22 20 23 23 26 21 29
41 42 43 43 44 45 45 45 44 44 45 41 36 31 41 38 28 28 27 30 28 25 21 16 18 23 28 30 25 29 29 21 19 21 25 29 26 21 19 24 24 23 22 23 25 26 25
37 41 42 42 44 44 44 44 44 44 45 40 33 26 31 31 35 27 27 28 26 23 19 21 20 28 26 22 20 25 28 24 22 20 25 31 26 25 21 24 25 24 24 24 27 27 29
38 40 41 42 43 43 43 44 44 45 45 40 35 31 28 25 28 31 28 27 27 24 22 26 28 22 18 19 19 21 25 19 21 21 22 29 27 28 27 26 28 27 27 26 24 27 25
40 40 43 43 43 43 43 43 44 44 45 40 33 29 28 25 26 29 30 28 27 27 22 24 20 24 23 19 19 17 19 19 16 26 27 29 29 31 28 28 28 29 27 27 26 25 24
40 42 42 42 42 42 42 42 43 43 45 39 37 32 27 25 26 27 28 26 25 25 22 23 23 25 22 17 16 16 17 17 15 23 22 30 28 28 22 27 27 26 26 26 24 23 26
41 41 42 42 41 42 42 43 43 44 45 40 37 32 30 27 26 27 26 26 24 22 22 24 22 22 21 24 23 21 19 17 17 16 19 29 28 25 21 27 20 27 27 25 24 23 23
41 40 41 42 43 47 47 47 45 44 45 40 38 34 29 26 26 25 26 26 26 26 26 20 19 21 25 20 11 12 18 20 19 22 25 25 28 24 21 18 26 27 25 24 23 24 25
40 42 46 46 47 47 47 48 49 45 45 39 37 36 30 27 26 26 27 27 28 26 20 25 28 27 22 13 10 10 11 11 17 23 28 27 29 27 21 18 18 27 26 29 27 22 25
43 45 44 46 46 47 47 48 48 45 44 39 38 38 33 32 28 29 29 27 24 22 21 26 28 26 24 14 14 14 13 14 16 21 26 26 25 24 21 19 23 25 28 32 22 24 26
43 43 43 43 44 45 45 44 45 44 41 37 39 42 34 35 34 31 31 27 26 23 21 23 23 22 18 18 16 15 17 20 21 20 21 21 19 20 20 18 17 28 31 26 28 28 27
40 43 43 42 42 42 42 41 40 40 38 38 36 40 37 35 35 34 32 29 25 23 22 25 19 19 18 18 16 16 20 23 18 18 23 19 20 23 24 24 27 31 32 32 31 30 27

GFSGBSN_sfc_30mbdewp_126.txt.gz
Dewpoint
61 61 60 59 59 58 58 58 58 56 55 54 53 52 50 48 46 45 45 47 46 45 47 48 49 50 42 25 10 25 31 30 26 12 9 8 7 8 6 4 2 1 1 2 3 3 3
56 60 61 60 59 59 59 58 58 57 56 54 53 52 50 48 47 45 45 46 45 46 47 48 49 49 37 14 17 22 20 16 13 14 12 11 11 10 8 7 7 6 7 7 6 5 6
55 54 57 60 60 59 59 58 58 58 56 55 54 53 51 49 47 46 45 45 45 46 47 49 49 40 25 16 16 17 19 16 16 17 15 16 15 13 11 10 10 11 8 8 8 6 4
51 52 53 54 58 59 59 58 58 58 57 56 54 53 51 49 48 46 45 44 44 46 49 49 48 34 21 18 19 17 17 15 15 18 18 18 18 15 13 13 11 10 10 8 5 2 3
49 49 49 52 53 53 57 58 58 58 57 56 55 53 51 49 47 45 44 42 44 47 49 48 40 38 24 20 13 14 15 14 15 18 21 18 16 15 14 13 11 7 5 4 -0 2 5
49 48 48 49 50 51 53 54 57 57 57 56 55 54 51 49 47 45 42 41 41 47 43 39 31 22 23 16 12 14 15 17 18 19 19 19 16 15 15 11 5 5 3 1 3 5 6
44 47 50 49 49 49 50 51 52 56 57 56 55 54 51 50 47 44 39 34 34 40 33 24 22 18 14 12 14 11 12 17 18 18 16 18 17 11 10 10 12 10 5 6 9 11 9
44 45 46 46 48 48 48 49 49 50 56 56 55 54 52 49 46 42 41 31 25 27 25 28 28 25 15 10 11 12 16 16 16 17 16 17 15 14 13 12 10 10 11 11 12 12 9
44 45 44 44 45 46 48 48 48 48 51 56 54 53 51 48 43 37 33 32 30 25 21 31 32 29 22 13 12 8 15 17 16 16 16 14 13 17 15 13 7 10 12 12 13 12 12
43 43 45 45 45 47 48 49 48 47 48 53 54 52 49 44 37 36 33 33 32 36 31 31 26 21 20 13 13 10 18 17 18 16 14 13 14 14 13 14 11 11 15 14 14 16 13
44 45 43 46 47 49 49 50 48 46 47 49 53 51 46 42 40 36 34 34 36 39 22 21 18 16 15 14 16 14 18 21 17 16 20 12 16 16 13 10 14 17 18 19 19 18 18
44 43 44 45 46 48 48 50 48 46 46 49 51 50 43 43 39 38 38 37 40 33 23 26 15 16 14 15 13 18 20 22 24 21 20 19 18 18 17 17 20 21 20 20 20 17 17
44 44 44 45 46 47 48 49 49 46 44 47 49 49 44 42 38 40 43 38 31 26 26 20 17 14 13 14 12 14 19 20 16 20 16 16 16 15 17 19 20 19 21 15 12 12 13
43 45 45 45 46 47 47 48 48 48 45 46 52 46 46 45 42 43 42 34 26 27 23 20 15 12 11 13 14 15 14 13 18 18 16 9 9 16 20 21 16 19 18 15 10 13 17
43 44 43 44 45 47 47 47 47 48 45 49 47 45 42 44 45 45 37 29 26 24 23 24 27 17 12 12 15 14 16 13 12 20 13 21 12 18 21 21 19 20 18 22 22 19 20
40 42 43 44 45 45 46 47 47 48 46 47 43 41 40 46 47 40 34 29 29 30 31 27 21 14 12 12 14 15 15 11 11 20 19 23 23 20 19 20 19 19 20 19 23 21 15
41 41 42 43 43 44 45 47 46 47 46 46 41 37 42 45 42 36 28 27 28 28 30 27 25 21 17 21 17 15 13 14 15 20 21 22 28 19 18 19 15 22 22 26 26 25 20
41 40 40 40 43 44 45 46 45 46 46 44 40 33 42 42 31 32 29 28 30 28 30 27 21 19 20 24 22 23 22 22 19 20 22 22 25 23 21 20 22 20 19 21 20 18 25
38 39 40 41 42 44 44 45 45 45 46 42 37 32 42 38 28 29 27 26 28 28 28 23 21 20 29 29 22 30 27 23 20 20 27 28 25 21 21 21 23 20 22 22 23 24 22
38 37 40 41 41 43 43 44 44 45 45 41 34 28 32 36 35 30 27 28 25 31 27 23 20 21 28 28 26 26 26 26 22 24 25 31 27 26 25 30 29 25 24 24 24 26 26
38 39 39 39 39 40 42 43 44 44 45 41 37 31 30 26 28 32 32 29 25 27 28 27 23 20 25 21 21 19 24 28 25 24 22 25 29 27 27 29 28 26 27 26 23 25 26
37 37 37 39 39 39 41 42 44 44 44 41 33 29 29 25 28 29 31 30 27 26 25 23 21 23 21 18 19 18 21 25 20 21 21 24 28 30 27 27 28 26 28 28 26 25 25
37 38 38 39 39 40 41 42 43 44 42 38 39 34 27 26 26 28 28 27 27 25 29 23 24 23 21 20 20 21 22 24 20 20 24 27 28 28 21 26 25 26 30 27 26 25 25
38 38 38 39 40 40 41 43 43 43 43 40 39 34 30 27 25 28 26 27 26 26 29 26 24 23 25 26 24 23 21 19 19 18 22 26 29 29 22 28 20 27 29 26 23 23 23
37 36 38 39 41 42 41 43 43 43 44 42 40 36 31 28 27 22 25 24 25 26 29 26 25 28 29 24 19 12 12 13 13 16 16 18 28 26 21 18 25 26 25 24 22 24 25
36 37 39 41 41 41 41 42 42 43 43 43 41 40 34 30 26 21 25 23 25 27 32 29 31 32 28 21 15 6 8 12 9 12 11 17 29 26 22 18 12 27 26 28 27 25 25
36 38 41 40 41 41 42 42 42 43 42 42 40 43 37 31 29 27 26 25 28 30 27 27 28 27 27 19 14 9 11 13 11 20 26 27 29 24 23 18 22 26 28 30 23 25 26
38 41 42 44 45 46 46 45 42 42 43 42 40 43 39 33 31 30 28 26 29 30 29 30 25 25 24 20 12 13 15 18 18 22 23 25 22 23 23 20 20 28 29 28 29 27 27
39 41 44 43 45 46 46 46 46 44 43 43 40 42 42 36 37 36 34 32 31 29 28 29 25 23 22 19 18 17 17 22 18 20 24 25 24 28 26 25 28 32 34 32 29 31 29

GFSGBSN_sfc_30mbdewp_129.txt.gz
Dewpoint
57 61 61 60 59 59 59 58 58 57 57 56 55 54 52 51 49 48 47 47 47 45 45 47 48 51 43 35 29 26 33 28 31 24 19 10 9 10 8 8 5 2 2 4 5 7 5
56 56 59 61 60 59 59 59 58 58 57 56 55 54 52 51 50 49 48 47 47 45 44 47 49 50 41 21 23 25 30 23 18 15 15 14 13 13 10 8 9 9 10 10 9 8 6
54 54 54 56 60 60 59 59 59 58 57 57 56 54 53 51 50 49 48 47 46 44 44 47 50 44 33 23 18 22 18 16 17 17 16 17 17 16 15 11 13 12 9 9 8 8 8
51 52 53 53 54 59 59 59 58 58 58 57 56 55 54 52 50 48 47 46 45 43 45 49 50 40 26 23 19 17 17 18 17 18 17 19 18 17 16 15 14 12 12 9 11 10 8
49 50 49 51 52 53 55 58 58 58 58 57 57 55 54 52 49 47 46 45 44 43 47 49 43 40 31 19 16 14 15 14 16 17 19 20 17 15 15 14 13 13 10 10 9 5 5
47 49 48 49 50 50 52 52 55 57 58 57 57 56 54 52 50 48 46 44 36 42 40 43 38 30 24 19 14 14 13 15 17 19 19 19 19 15 16 14 8 9 9 6 3 6 10
45 45 48 49 49 49 50 51 51 50 56 57 56 56 53 51 49 47 41 37 30 38 39 28 27 22 23 21 15 14 14 13 18 18 16 18 18 15 15 15 15 12 9 6 8 10 12
43 44 45 46 47 48 48 49 49 48 51 56 56 55 53 51 48 45 39 33 27 28 25 27 30 30 30 29 15 12 13 15 17 15 17 18 17 18 19 15 11 9 10 11 13 14 14
45 43 45 44 45 46 47 48 48 47 48 54 56 54 52 49 45 36 33 34 30 30 23 32 31 32 31 32 23 14 15 16 15 15 17 18 19 19 17 15 14 12 8 11 13 15 16
43 41 44 45 45 46 47 49 48 47 46 51 55 53 50 44 43 37 33 35 33 35 32 31 33 27 30 17 15 16 15 14 16 16 17 17 16 16 15 14 15 12 12 16 18 18 16
42 42 44 42 45 46 49 48 48 46 46 48 53 51 47 47 41 37 34 35 38 40 15 19 18 17 18 17 17 14 19 19 16 17 17 17 17 16 16 16 12 10 20 19 19 19 19
44 43 42 43 44 45 48 48 49 45 45 49 52 49 47 45 40 37 37 40 41 32 24 24 17 16 14 13 15 17 18 22 22 20 22 21 21 20 19 18 18 21 20 20 20 20 18
45 44 44 43 43 46 47 47 48 47 44 46 50 49 46 42 40 40 42 38 32 27 29 23 22 16 16 15 15 14 20 21 17 16 18 19 17 15 18 16 19 19 19 18 15 14 16
44 45 44 43 44 45 46 47 48 49 47 44 47 48 46 45 42 43 42 37 27 26 28 27 24 17 13 13 15 15 13 14 20 19 17 16 13 20 17 15 17 19 19 19 13 17 21
43 44 45 44 44 45 47 47 47 47 47 48 48 44 43 44 44 45 39 31 25 27 25 26 29 29 29 17 14 16 15 15 16 15 17 16 20 24 21 22 22 18 16 18 21 21 19
41 43 43 44 44 45 46 47 47 47 48 46 43 41 41 47 45 41 35 28 29 27 26 28 28 28 27 19 14 15 15 16 16 18 21 27 20 22 20 22 21 19 20 19 23 18 19
42 42 42 43 43 44 45 45 47 46 48 45 42 37 41 47 43 36 29 27 26 27 26 27 28 27 27 21 22 16 17 17 24 21 21 25 26 22 23 19 18 18 18 27 30 25 21
41 42 41 41 42 43 43 45 46 46 47 43 40 32 43 44 33 33 29 29 28 26 27 27 27 28 24 24 22 22 21 22 27 26 23 27 27 24 23 23 25 22 24 28 24 20 23
42 41 41 41 40 40 42 44 45 46 46 42 36 34 42 39 27 28 29 28 28 25 27 25 25 28 30 26 22 25 26 26 25 23 26 29 26 21 21 25 27 26 24 24 24 24 21
41 40 40 40 40 41 42 43 45 45 45 40 33 28 34 36 35 30 26 27 26 26 27 26 27 25 28 26 28 22 29 28 25 25 27 31 29 27 24 27 32 31 32 25 25 23 24
41 41 40 39 39 40 41 43 44 44 44 40 36 30 30 26 29 31 30 28 26 25 27 27 25 28 27 25 26 25 27 27 27 27 23 26 26 29 28 29 28 28 32 26 25 25 23
41 41 40 39 39 39 39 41 43 44 43 40 34 32 31 28 28 28 28 26 28 28 25 23 26 27 26 24 23 21 22 27 25 25 23 24 25 30 26 24 26 26 31 26 27 25 25
40 41 40 39 39 39 38 39 41 43 43 40 38 37 32 27 28 27 26 27 27 29 28 25 29 28 25 25 25 23 24 24 24 24 23 23 26 28 21 26 30 25 27 27 27 28 27
38 40 39 39 39 39 39 38 40 42 43 41 37 36 31 27 26 27 27 27 27 27 28 27 29 28 27 26 25 24 23 23 25 25 24 25 29 29 24 21 16 27 30 31 27 25 26
38 38 39 38 38 39 39 39 39 40 42 41 40 34 32 27 25 26 27 27 28 28 27 28 30 31 28 26 23 24 21 20 20 20 20 20 29 26 20 19 24 26 26 25 25 25 25
37 38 38 38 39 39 39 39 39 39 41 42 40 39 34 30 28 26 25 28 26 25 26 29 32 31 30 29 27 21 15 15 10 12 19 19 29 24 22 20 16 26 28 30 28 24 26
36 37 37 38 38 38 38 39 40 40 41 42 39 40 38 31 30 29 24 23 28 26 27 33 31 31 30 28 26 19 13 13 12 14 11 16 21 22 23 22 23 28 29 30 22 23 27
36 37 37 36 37 37 38 39 40 41 41 42 39 40 38 33 32 31 31 30 31 27 29 31 28 30 30 27 24 16 13 14 13 22 18 15 23 25 26 21 18 30 29 26 28 28 27
36 36 36 37 37 38 38 40 41 42 42 43 38 40 41 36 35 35 36 36 36 36 32 31 28 27 27 24 20 14 15 21 21 24 30 27 27 26 26 25 29 33 33 33 31 28 28

GFSGBSN_sfc_30mbdewp_132.txt.gz
Dewpoint
58 58 61 61 60 59 59 58 58 57 56 56 55 54 54 52 52 50 49 48 47 46 45 45 48 51 41 21 24 25 28 32 32 25 17 14 13 12 10 9 7 4 6 11 11 10 9
56 56 57 60 61 60 59 59 58 58 57 57 56 55 54 53 52 50 49 48 47 46 45 45 49 50 33 25 23 22 28 27 23 17 16 16 16 16 12 11 10 11 12 11 11 10 9
55 56 55 54 58 60 60 59 59 58 58 57 57 56 55 53 52 51 49 48 47 46 45 45 50 45 30 24 23 25 28 16 16 17 16 17 18 16 16 12 14 13 9 10 8 8 7
52 52 53 53 53 56 59 59 59 59 58 58 57 56 55 54 52 50 49 48 47 47 45 45 50 39 25 29 24 19 19 17 19 20 18 18 18 16 16 15 14 14 13 6 10 10 9
50 51 49 51 51 53 54 58 58 58 58 58 57 57 56 54 52 50 48 48 48 48 43 46 44 38 31 30 17 17 15 14 16 17 20 20 17 15 15 14 12 13 8 11 10 7 6
48 49 49 49 50 50 51 52 54 57 58 58 57 57 56 54 52 49 49 49 48 43 42 42 39 33 30 21 17 13 15 15 15 18 18 19 18 15 16 13 4 9 10 9 7 6 9
47 48 47 50 49 49 50 50 50 50 55 57 57 57 56 54 51 48 42 36 35 37 37 30 30 27 27 25 15 14 13 12 17 18 16 18 17 15 15 15 15 15 13 9 9 11 12
45 45 45 46 47 48 49 50 48 47 50 55 57 56 54 52 50 46 37 31 28 27 32 30 31 32 33 29 27 15 15 12 15 14 16 17 16 18 18 19 18 16 9 8 12 13 14
44 45 46 44 45 46 47 49 47 46 48 53 55 55 53 51 47 37 35 35 30 30 27 31 30 31 32 33 32 32 13 15 15 13 14 15 19 19 18 18 18 14 12 11 9 18 19
45 44 44 45 45 46 48 48 47 45 46 51 55 53 51 48 44 39 37 36 35 37 28 29 34 32 32 26 22 18 16 15 15 13 14 16 18 18 17 16 16 14 14 13 18 18 15
44 42 43 43 43 45 48 47 48 45 46 50 54 51 49 47 42 35 33 37 37 39 5 21 20 19 17 25 17 18 22 16 14 16 17 16 17 17 17 18 17 14 20 20 19 18 18
44 43 42 44 43 44 46 47 48 44 46 51 52 49 48 42 40 37 37 41 41 29 15 24 17 15 15 14 15 17 20 22 21 20 21 20 23 21 19 19 19 19 20 20 21 20 18
45 44 43 42 42 43 45 46 48 45 44 50 51 49 48 43 40 39 41 38 30 26 26 25 21 17 15 14 14 15 17 19 17 15 18 18 17 18 18 17 19 18 18 16 17 19 17
45 45 44 43 43 43 45 47 47 48 46 45 50 49 46 44 43 43 42 37 26 26 26 28 29 28 15 16 16 16 15 18 21 18 17 16 16 20 23 16 14 18 18 17 15 12 18
44 45 44 44 44 44 45 46 47 47 47 47 48 44 43 44 45 44 39 29 24 26 26 25 27 27 29 22 13 17 16 14 15 19 17 16 17 23 19 21 18 18 17 20 19 22 20
43 42 44 44 44 44 45 46 45 47 48 46 43 41 42 46 46 41 36 28 29 30 26 28 26 28 27 22 18 14 15 18 19 21 21 24 19 21 22 21 21 19 19 15 21 16 17
43 43 44 44 44 44 45 46 46 47 47 44 41 35 41 46 42 37 30 28 27 28 27 26 28 28 27 26 22 19 17 21 25 24 25 26 25 20 22 18 20 20 19 24 25 26 21
43 42 43 44 43 44 44 45 46 46 46 42 39 29 42 44 34 34 29 29 28 25 27 26 28 28 27 26 23 22 20 21 27 26 25 26 27 23 22 23 25 23 24 24 22 22 24
43 42 42 42 42 42 43 44 45 45 46 41 34 35 42 42 27 29 29 29 28 25 26 26 26 28 28 25 22 24 24 27 25 24 27 27 27 23 16 24 32 32 30 26 27 25 21
42 42 42 42 40 42 42 41 44 45 46 38 34 28 35 38 34 28 26 26 26 28 27 25 26 27 28 26 27 24 28 28 25 27 32 31 29 25 19 25 30 29 31 33 29 22 21
40 41 42 42 41 40 39 41 42 43 45 39 34 28 30 27 30 30 28 25 23 24 26 29 26 26 27 25 24 24 26 28 26 27 24 25 23 26 26 27 27 26 26 29 30 27 24
39 40 41 41 41 41 40 41 43 43 44 40 34 31 31 28 28 30 28 25 25 28 26 25 25 25 26 26 23 21 25 26 25 27 24 25 20 23 20 25 27 25 25 27 29 27 25
36 38 39 41 41 41 40 41 42 43 42 40 38 36 29 28 27 25 24 25 25 27 27 28 26 25 25 27 27 25 24 25 27 25 25 23 22 24 19 22 24 23 27 28 28 28 25
35 36 38 40 41 40 40 40 41 41 41 42 38 35 32 26 26 26 26 26 25 26 27 29 29 26 29 29 27 24 23 22 22 23 26 23 23 25 21 23 15 19 30 31 28 28 27
35 36 36 39 41 41 40 40 39 40 41 40 41 34 31 26 27 26 27 27 27 27 27 27 27 32 30 27 27 27 25 22 23 24 25 25 25 26 21 20 19 24 27 27 28 26 26
35 35 36 38 40 41 41 39 39 40 41 40 40 42 34 27 25 26 27 28 27 27 27 28 30 33 30 28 27 22 19 20 16 18 23 23 24 26 25 19 13 24 28 29 29 24 26
35 36 36 38 40 40 40 39 39 40 40 40 38 41 38 32 30 28 25 25 28 28 27 32 31 29 32 30 25 22 19 18 13 12 14 19 23 21 22 21 20 28 29 30 23 22 27
35 35 37 38 38 39 39 39 39 40 40 40 37 39 38 34 32 29 29 29 31 29 27 31 31 31 32 28 27 24 18 16 16 17 15 17 17 19 22 21 16 31 27 25 27 28 27
36 36 36 37 38 38 39 39 39 40 40 40 34 38 40 36 34 33 33 34 32 31 31 33 30 31 32 28 28 21 16 18 11 13 27 18 20 24 25 22 30 33 32 31 28 27 28

GFSGBSN_sfc_30mbdewp_135.txt.gz
Dewpoint
58 58 58 60 60 60 59 59 58 57 57 56 55 55 55 54 53 51 50 49 48 48 46 45 47 50 37 27 21 29 27 30 25 20 16 16 15 14 11 11 9 5 9 12 12 11 10
57 56 56 57 58 60 60 60 59 58 57 57 56 56 55 54 53 52 50 49 48 48 47 45 48 48 26 33 24 22 27 25 19 17 16 16 16 17 13 12 11 11 12 10 10 10 10
55 56 56 55 55 57 60 60 59 58 58 57 57 57 56 55 54 52 51 50 49 48 48 45 49 42 27 33 26 24 27 18 16 17 16 17 18 17 16 12 14 13 10 10 5 10 7
54 54 55 54 54 54 57 59 59 59 58 57 57 57 56 56 54 53 51 50 49 49 50 46 49 36 32 30 30 27 23 19 17 18 18 18 18 16 16 16 14 14 14 4 7 8 8
53 53 51 51 51 52 53 56 58 59 59 58 58 57 57 56 55 53 51 50 50 51 50 44 43 35 31 33 21 20 18 15 15 17 20 20 18 16 15 13 6 12 6 11 11 8 6
51 51 50 49 50 50 51 51 53 57 58 58 58 57 57 56 54 52 50 50 49 46 43 42 40 33 31 21 19 16 14 15 14 17 18 19 18 16 16 12 2 9 11 11 9 8 10
50 50 50 50 50 49 50 50 50 50 56 57 57 57 57 55 54 50 45 35 35 38 38 34 32 28 28 27 19 13 13 13 17 17 14 18 16 14 14 15 15 15 15 14 14 11 12
50 49 47 48 48 49 49 50 48 47 49 55 57 57 56 54 52 47 37 32 30 28 34 33 33 33 35 32 28 17 14 12 14 12 16 16 14 16 18 19 18 17 17 16 11 12 14
46 47 46 45 46 47 47 50 47 45 47 51 55 56 55 53 49 42 37 36 30 28 31 31 30 32 33 34 33 32 16 13 14 14 15 12 13 16 17 17 17 18 17 12 11 17 19
45 45 46 45 44 46 48 49 47 45 45 49 54 55 53 49 46 41 42 36 34 36 24 24 32 33 33 33 26 22 20 16 14 14 14 13 17 18 18 18 18 15 17 15 14 18 13
45 44 45 45 45 45 47 47 49 44 46 49 55 53 51 48 44 40 34 36 37 35 -5 16 30 24 18 24 18 19 21 15 15 15 16 13 15 13 14 16 18 16 19 19 19 18 18
45 45 44 44 43 44 45 47 48 44 46 52 53 51 49 43 40 37 37 41 39 24 4 21 17 15 18 15 15 18 19 22 21 18 19 17 21 21 20 19 18 19 20 19 23 20 14
45 44 43 42 44 44 43 46 47 44 48 51 51 50 49 43 40 40 41 38 29 22 23 23 17 15 16 15 14 15 17 17 13 13 14 17 17 19 20 17 19 19 17 15 12 18 15
45 45 44 44 43 43 43 46 47 45 47 50 50 49 47 45 43 43 42 35 22 22 26 28 28 26 16 16 15 16 16 15 20 17 16 14 12 20 21 17 17 17 17 14 13 13 13
45 45 45 45 43 43 43 45 47 46 46 50 47 45 44 45 46 43 36 27 22 26 27 25 28 26 25 24 16 17 16 15 15 20 15 16 16 22 20 21 19 17 18 21 19 21 19
45 45 44 44 44 44 43 45 47 46 47 48 43 41 41 45 45 40 34 27 28 30 27 27 22 28 25 22 18 15 15 18 18 21 21 20 18 21 23 22 19 20 21 23 24 19 16
44 44 44 44 44 45 45 45 45 47 48 44 40 35 40 44 43 37 29 27 28 28 27 26 27 26 27 25 23 21 17 21 25 25 26 26 22 19 23 20 21 22 21 25 23 21 17
43 43 43 45 45 44 44 45 45 47 46 42 38 27 42 44 34 35 28 29 29 25 26 25 27 28 26 26 25 22 21 20 26 25 23 26 26 21 22 24 25 26 26 27 27 21 25
43 43 42 42 43 44 44 44 46 47 45 40 34 34 43 41 27 29 30 29 29 26 26 25 26 27 28 25 23 24 24 27 27 25 25 27 25 20 19 27 31 29 31 33 31 29 24
42 43 42 42 43 43 43 44 44 46 45 38 34 29 36 38 34 28 27 27 26 29 26 25 24 26 27 26 27 23 26 28 25 27 32 30 27 22 19 20 29 26 25 28 29 23 20
43 43 43 42 42 42 40 43 43 44 45 38 31 27 31 28 30 29 27 25 26 22 26 28 26 23 19 20 24 25 26 26 26 27 26 27 24 27 28 27 25 25 25 24 25 27 24
42 42 43 42 42 42 41 42 40 42 44 40 33 29 31 28 29 29 26 26 25 24 25 24 24 25 24 23 24 23 25 26 24 27 23 25 20 23 21 22 22 21 23 25 24 25 28
40 40 41 41 42 42 41 41 42 41 42 40 39 36 28 28 28 27 25 25 25 27 26 27 26 25 24 25 28 28 27 26 26 25 25 24 22 21 17 20 20 20 23 24 26 29 28
37 39 40 40 41 41 41 41 39 40 41 40 38 35 28 23 27 26 25 26 25 26 23 28 27 25 28 29 28 27 26 24 24 24 26 23 23 23 20 23 15 18 29 29 29 29 28
36 37 38 39 40 41 41 41 40 41 42 39 42 35 32 24 26 26 26 25 26 26 26 26 27 29 30 28 27 25 25 24 24 24 23 25 23 21 20 19 18 20 27 28 28 27 28
36 36 36 37 37 39 40 41 40 40 41 40 38 42 35 27 26 27 27 27 25 25 26 27 29 31 31 29 30 23 21 22 18 18 23 24 25 22 25 19 17 19 28 29 29 24 27
36 36 36 36 37 37 40 41 40 40 41 39 37 40 39 32 28 28 26 27 29 28 26 30 31 31 31 30 26 23 21 21 16 14 13 22 25 24 24 21 22 26 29 30 23 19 27
34 35 36 36 37 38 38 41 41 40 40 39 36 39 37 32 30 30 29 26 27 28 27 30 30 32 31 27 26 25 23 19 17 18 17 17 21 22 23 21 17 30 27 25 26 27 27
35 35 36 36 37 38 39 39 41 41 39 40 35 38 40 35 34 37 35 31 30 31 30 32 29 30 31 28 28 26 22 20 18 15 19 18 20 20 20 20 29 32 31 31 28 27 26

GFSGBSN_sfc_30mbdewp_138.txt.gz
Dewpoint
61 61 61 61 61 60 60 59 59 58 57 57 56 55 55 55 54 53 52 51 50 50 49 49 46 47 37 34 23 29 27 28 23 17 16 16 15 14 11 12 10 6 9 12 11 11 11
58 58 57 57 57 58 60 60 60 59 58 57 56 56 56 56 55 54 53 51 51 50 49 50 46 46 28 36 25 23 26 21 16 17 16 17 17 17 14 13 11 12 12 11 10 9 10
57 57 56 56 55 56 57 59 60 59 59 58 57 56 56 56 56 55 53 52 51 50 50 51 47 41 28 37 27 24 25 20 17 18 16 17 18 17 16 12 15 14 11 11 6 10 8
55 55 56 55 55 55 54 55 58 59 59 59 58 57 57 57 56 55 54 52 51 50 52 52 46 36 36 32 32 30 24 21 17 19 18 18 18 16 16 16 13 12 12 6 4 8 8
54 54 54 54 53 52 53 52 55 58 58 59 58 58 57 57 56 55 54 52 51 52 50 48 40 34 34 34 25 20 20 17 15 18 20 20 18 17 16 12 5 11 7 11 12 10 8
54 54 53 51 51 50 51 52 51 54 57 58 58 58 57 57 56 55 52 50 49 47 43 43 40 34 32 25 21 16 17 16 14 16 17 19 18 16 16 12 9 8 11 13 13 13 13
50 53 52 51 50 50 50 51 50 49 52 57 57 58 57 57 56 51 48 35 35 38 39 36 34 30 29 27 22 19 15 16 17 15 14 19 16 15 15 15 14 15 15 15 15 17 12
50 51 51 51 51 50 50 51 49 47 47 50 56 57 57 56 54 47 40 37 30 28 35 36 34 33 34 34 33 24 14 12 13 13 17 16 15 16 18 18 18 18 17 17 17 15 13
48 50 49 48 48 48 48 50 49 46 45 48 52 56 56 54 49 44 40 39 30 28 32 32 32 32 33 34 34 34 16 14 13 13 15 13 15 15 15 17 17 17 17 17 15 15 19
46 48 48 47 46 46 47 49 49 46 44 46 52 55 54 50 49 44 45 38 33 35 24 21 30 31 32 34 26 26 22 17 14 13 14 14 16 18 18 16 16 15 18 17 16 15 13
46 46 47 47 46 45 47 47 48 46 44 46 52 54 52 49 44 43 37 36 37 32 -4 14 33 26 28 28 20 18 20 17 15 15 16 14 13 13 13 13 17 15 17 18 18 18 18
47 46 45 46 45 44 45 47 46 47 44 48 53 53 50 43 40 38 37 40 38 23 8 18 18 15 20 15 16 19 19 21 20 16 18 15 19 19 18 19 19 18 18 20 23 20 15
46 45 45 45 44 44 44 45 45 46 46 50 53 51 49 42 41 39 41 38 29 20 21 21 16 15 17 15 15 15 16 15 12 12 13 17 17 19 20 17 19 19 18 13 13 17 12
46 46 45 44 44 43 44 43 44 45 49 51 51 49 47 45 43 43 41 33 25 19 24 28 28 18 17 16 15 16 16 14 18 16 16 13 8 20 21 18 17 17 17 14 13 13 14
46 45 46 44 44 43 43 43 45 45 49 50 48 45 45 45 45 44 36 29 24 22 27 25 28 25 20 23 16 16 15 15 16 19 13 15 16 21 21 22 19 16 18 21 20 21 18
45 45 45 45 45 44 43 43 45 46 49 47 43 42 42 45 45 39 33 28 26 30 28 27 22 27 26 22 17 15 15 19 17 22 21 18 16 20 23 22 19 20 21 17 25 19 18
44 45 45 45 45 45 44 44 45 46 48 44 39 36 39 45 43 36 29 27 28 29 27 26 25 26 26 24 22 20 17 19 25 25 24 24 21 19 23 19 18 21 21 26 26 25 20
44 44 44 45 44 44 45 44 45 47 47 42 37 24 41 44 34 34 30 28 29 26 26 24 27 28 26 26 23 21 20 20 26 25 21 25 24 21 20 23 30 26 26 29 23 23 25
44 44 44 43 43 44 44 44 45 46 45 40 33 34 43 41 28 29 30 29 28 25 25 24 23 26 28 24 16 25 24 25 28 25 24 26 23 19 16 25 26 28 31 32 31 28 21
43 44 43 43 44 43 44 43 44 44 45 38 33 29 36 38 33 28 28 27 27 29 27 25 25 26 27 26 27 23 24 28 25 26 30 30 25 21 19 19 26 26 27 26 26 24 21
44 44 43 43 43 43 43 44 43 44 45 36 30 27 32 29 30 28 28 27 26 24 28 27 24 23 24 22 24 24 26 26 27 25 30 30 25 26 26 27 28 27 25 24 23 23 23
43 42 42 42 42 42 43 42 43 43 45 39 30 28 31 28 30 29 27 25 25 26 23 22 25 25 24 19 15 18 24 25 24 27 24 26 21 23 21 22 22 21 21 21 21 22 24
41 41 41 42 43 42 42 41 42 42 43 40 38 34 29 28 29 29 27 25 26 26 26 25 25 23 22 24 26 26 27 27 27 26 25 25 23 22 19 20 22 18 17 20 22 25 24
41 40 40 42 42 42 42 41 41 42 41 41 40 33 26 22 27 25 25 26 25 26 22 27 27 27 27 29 29 28 27 27 27 27 27 25 23 23 21 22 14 14 25 27 27 28 29
41 42 40 40 41 41 42 41 41 42 42 38 41 38 32 23 26 26 26 26 26 26 27 26 27 29 30 27 25 25 25 24 23 23 24 26 24 21 21 19 18 18 20 28 27 24 29
40 40 40 40 41 41 41 41 42 41 42 39 37 41 37 27 25 26 27 26 24 25 26 26 29 30 29 27 26 21 18 22 19 17 24 24 24 21 22 18 14 19 27 29 29 18 28
38 38 38 39 40 40 41 40 40 39 39 40 37 40 37 31 29 28 26 26 27 26 25 28 30 30 30 29 24 22 22 22 18 16 15 20 24 21 21 20 22 24 28 29 21 16 27
38 37 38 38 38 38 39 40 41 41 41 41 37 39 37 32 33 30 29 28 29 28 25 28 30 30 29 26 26 24 24 22 19 19 17 16 20 22 23 21 17 29 28 25 26 27 27
37 37 37 37 37 37 38 38 40 41 41 41 36 39 40 35 34 38 38 37 31 30 29 30 28 30 31 28 27 26 25 24 20 17 20 18 21 21 23 21 28 31 31 31 29 27 27

GFSGBSN_sfc_30mbdewp_141.txt.gz
Dewpoint
61 61 61 60 60 60 60 60 59 58 58 57 57 56 56 55 56 55 54 53 52 52 51 52 53 48 35 38 32 27 27 26 21 17 17 16 16 14 11 12 10 6 9 11 11 11 11
62 61 61 61 60 60 61 61 60 59 59 58 57 56 56 56 56 56 55 54 53 52 51 52 53 47 32 39 27 24 25 19 16 17 17 18 17 16 14 13 10 12 12 11 12 11 11
59 59 58 57 57 56 57 58 59 59 59 59 58 57 56 56 57 56 56 54 53 52 52 53 50 43 31 40 27 30 24 21 18 18 16 18 19 17 17 12 15 15 11 9 10 10 9
57 57 57 57 56 55 55 54 56 57 58 58 59 58 57 57 57 56 56 54 53 52 53 51 47 37 38 35 32 33 27 21 18 19 18 19 19 18 17 17 12 11 11 6 9 9 8
56 56 55 56 55 54 54 53 53 55 57 57 58 58 58 57 57 56 55 54 52 52 51 48 39 34 37 35 28 21 24 18 16 19 22 20 19 18 17 13 7 12 6 12 13 13 11
54 55 55 55 54 52 51 51 52 51 55 57 58 58 57 57 57 56 54 52 51 47 42 43 40 35 35 30 22 15 19 16 14 17 19 20 19 17 16 14 11 9 12 13 13 15 16
53 54 55 54 52 51 51 51 51 51 49 55 57 58 57 57 56 52 51 40 38 39 38 40 36 33 31 29 26 18 15 16 16 15 15 20 18 17 16 16 15 15 16 15 16 18 17
51 51 52 53 51 51 51 50 51 49 48 48 55 57 57 56 53 47 43 41 32 31 36 37 36 35 34 34 33 31 15 13 13 14 17 17 18 17 17 17 17 18 17 16 18 18 16
49 49 50 51 51 51 50 50 50 48 46 46 49 56 56 53 49 48 44 40 29 29 33 33 34 34 35 35 34 34 21 14 14 14 16 17 18 16 15 17 17 18 17 17 16 17 18
48 48 49 50 49 48 48 48 50 48 45 45 47 54 54 51 51 45 46 40 33 34 26 20 28 31 33 34 28 32 21 16 14 15 15 15 16 18 18 15 15 12 17 18 17 16 13
48 47 49 49 48 47 46 47 48 49 45 44 46 53 52 51 46 45 42 36 36 31 -3 16 32 32 33 30 20 19 20 18 16 15 17 15 15 14 14 14 17 14 18 18 18 17 19
48 47 48 47 48 46 45 46 46 47 46 45 48 53 49 44 42 38 37 38 37 22 1 18 21 16 25 16 16 20 20 21 19 16 18 16 19 18 17 19 19 19 18 20 24 21 15
48 47 47 46 46 45 44 45 46 46 46 47 49 52 50 44 44 39 41 38 29 16 19 19 16 16 20 16 15 16 16 16 13 13 13 16 16 19 21 17 20 19 18 15 14 17 13
46 47 47 46 45 44 43 44 44 46 46 50 52 50 47 45 43 42 40 33 22 21 23 28 24 16 17 16 15 16 16 15 18 16 15 13 11 19 21 18 17 18 18 14 14 13 14
46 46 46 46 45 44 44 43 43 44 47 50 48 46 45 45 45 44 37 30 24 25 27 26 28 24 21 21 16 16 15 15 16 19 14 15 15 20 21 22 19 17 18 21 18 19 20
46 46 46 46 45 44 44 42 43 45 48 49 44 43 44 45 45 40 33 29 27 28 27 27 24 26 23 22 16 15 15 18 18 22 22 19 15 21 23 22 20 18 20 17 22 17 14
46 46 46 45 45 45 44 43 43 46 48 46 41 39 40 46 44 35 30 30 27 29 27 25 25 27 26 24 21 19 15 20 25 25 24 23 21 19 22 19 18 18 20 25 24 22 19
45 46 46 45 44 45 43 43 44 46 46 41 36 33 40 44 36 35 32 29 29 26 26 25 27 28 26 25 20 19 18 20 26 25 20 26 25 19 18 22 30 29 25 27 22 22 25
44 46 45 44 45 44 44 44 44 46 45 38 32 35 43 41 28 31 31 29 28 26 24 23 23 26 28 23 12 24 23 26 27 24 23 26 22 16 10 26 26 27 29 30 30 28 23
44 45 45 44 45 45 44 44 43 45 44 37 33 28 36 38 31 30 29 29 28 29 26 25 25 28 27 25 26 22 24 28 26 25 29 28 25 20 14 17 22 22 24 26 25 23 21
45 44 44 44 44 44 44 44 44 43 43 36 31 30 33 29 31 29 28 26 27 25 28 27 24 24 26 24 25 25 26 26 26 26 29 29 23 26 26 25 25 25 25 24 22 23 21
44 45 44 44 43 43 44 44 43 44 44 37 29 28 31 29 30 29 29 26 26 26 25 24 25 25 24 21 19 17 23 24 23 27 27 27 24 23 22 23 23 22 23 23 23 23 22
44 44 44 44 43 43 43 44 43 43 43 39 36 33 30 30 30 27 26 26 26 27 26 26 25 25 24 24 26 26 26 26 26 26 25 25 25 23 17 21 21 17 19 20 20 22 21
44 45 44 44 44 42 42 43 42 42 41 40 40 32 25 25 29 28 27 26 25 26 22 27 28 25 27 28 28 28 28 28 28 28 28 26 26 24 18 22 12 14 20 24 24 24 26
44 43 42 41 42 44 43 43 42 42 42 40 41 37 27 23 27 27 26 27 26 27 27 26 26 28 29 26 24 26 25 25 25 25 27 28 25 23 21 17 17 19 18 22 27 23 25
42 42 41 41 42 43 42 42 42 42 43 39 40 41 36 27 26 27 26 26 25 26 26 26 28 29 28 27 23 18 16 21 20 18 25 26 27 25 23 17 12 16 24 30 29 19 27
42 41 40 41 41 40 40 41 42 41 41 40 37 41 35 31 31 28 26 26 26 26 23 26 29 30 30 27 22 19 14 23 18 16 17 23 24 22 21 19 18 24 28 30 21 19 28
40 40 39 39 39 39 41 41 41 42 42 42 38 40 36 32 34 33 30 28 28 27 23 28 30 31 28 26 23 23 24 24 21 20 17 16 19 21 21 19 15 29 28 25 27 29 28
38 38 37 39 40 40 41 40 40 41 41 41 37 39 39 34 34 39 37 37 34 30 28 31 27 30 30 26 27 26 24 25 21 18 21 19 19 20 21 20 26 30 29 31 31 29 28